<?xml version='1.0' encoding='UTF-8'?><gpx version="1.1" creator="JPX - https://github.com/jenetics/jpx" xmlns="http://www.topografix.com/GPX/1/1"><trk><trkseg><trkpt lat="41.01427567782731" lon="14.05409225686831"><ele>2.0</ele><time>2026-04-26T09:41:30.998Z</time></trkpt><trkpt lat="41.0143388186219" lon="14.054070514852175"><ele>2.0</ele><time>2026-04-26T09:41:36.998Z</time></trkpt><trkpt lat="41.01442478261701" lon="14.054048418759201"><ele>2.0</ele><time>2026-04-26T09:41:42.998Z</time></trkpt><trkpt lat="41.01451717144325" lon="14.054014866395509"><ele>2.0</ele><time>2026-04-26T09:41:44.998Z</time></trkpt><trkpt lat="41.01465504226716" lon="14.053981509895113"><ele>2.0</ele><time>2026-04-26T09:41:46.998Z</time></trkpt><trkpt lat="41.014738659264886" lon="14.053958149653095"><ele>2.0</ele><time>2026-04-26T09:41:47.998Z</time></trkpt><trkpt lat="41.01482478904871" lon="14.053932158986285"><ele>2.0</ele><time>2026-04-26T09:41:48.998Z</time></trkpt><trkpt lat="41.014925431668274" lon="14.05390213308045"><ele>2.0</ele><time>2026-04-26T09:41:49.998Z</time></trkpt><trkpt lat="41.01502690862977" lon="14.053873095220426"><ele>2.0</ele><time>2026-04-26T09:41:50.998Z</time></trkpt><trkpt lat="41.01512704661659" lon="14.053843828379142"><ele>2.0</ele><time>2026-04-26T09:41:51.998Z</time></trkpt><trkpt lat="41.015228997055786" lon="14.053815018738312"><ele>1.9999999999999998</ele><time>2026-04-26T09:41:52.998Z</time></trkpt><trkpt lat="41.015331142803" lon="14.05378499571884"><ele>2.0</ele><time>2026-04-26T09:41:53.998Z</time></trkpt><trkpt lat="41.01542806568271" lon="14.053755426056526"><ele>2.0</ele><time>2026-04-26T09:41:54.998Z</time></trkpt><trkpt lat="41.01551570603014" lon="14.05372881714564"><ele>2.0</ele><time>2026-04-26T09:41:55.998Z</time></trkpt><trkpt lat="41.01559607815592" lon="14.053704755855406"><ele>1.9999999999999998</ele><time>2026-04-26T09:41:56.997Z</time></trkpt><trkpt lat="41.015663045415494" lon="14.053684460193598"><ele>2.0</ele><time>2026-04-26T09:41:57.997Z</time></trkpt><trkpt lat="41.015769541549" lon="14.053649432019126"><ele>1.9999999999999998</ele><time>2026-04-26T09:41:59.997Z</time></trkpt><trkpt lat="41.015846771056395" lon="14.05362442949314"><ele>2.0</ele><time>2026-04-26T09:42:01.997Z</time></trkpt><trkpt lat="41.015922825255075" lon="14.053606760977402"><ele>2.0</ele><time>2026-04-26T09:42:03.997Z</time></trkpt><trkpt lat="41.016035080120815" lon="14.05358221763091"><ele>2.0</ele><time>2026-04-26T09:42:05.997Z</time></trkpt><trkpt lat="41.01609967262523" lon="14.053566777367168"><ele>1.9999999999999998</ele><time>2026-04-26T09:42:06.997Z</time></trkpt><trkpt lat="41.01617436145543" lon="14.053541665938068"><ele>2.0</ele><time>2026-04-26T09:42:07.997Z</time></trkpt><trkpt lat="41.01625619703217" lon="14.053498143200116"><ele>2.0</ele><time>2026-04-26T09:42:08.997Z</time></trkpt><trkpt lat="41.01633476274338" lon="14.05346385887703"><ele>2.0</ele><time>2026-04-26T09:42:09.997Z</time></trkpt><trkpt lat="41.01642498804601" lon="14.053430239150936"><ele>2.0</ele><time>2026-04-26T09:42:10.997Z</time></trkpt><trkpt lat="41.016521444628005" lon="14.05340495601931"><ele>2.0</ele><time>2026-04-26T09:42:11.997Z</time></trkpt><trkpt lat="41.016629352541266" lon="14.05337590447502"><ele>2.0</ele><time>2026-04-26T09:42:12.997Z</time></trkpt><trkpt lat="41.016731764876305" lon="14.053343529165593"><ele>1.75</ele><time>2026-04-26T09:42:13.997Z</time></trkpt><trkpt lat="41.016840652324326" lon="14.053309982020467"><ele>1.5</ele><time>2026-04-26T09:42:14.997Z</time></trkpt><trkpt lat="41.01695995654827" lon="14.0532794587505"><ele>1.25</ele><time>2026-04-26T09:42:15.997Z</time></trkpt><trkpt lat="41.01707898998441" lon="14.053240005436415"><ele>1.0</ele><time>2026-04-26T09:42:16.997Z</time></trkpt><trkpt lat="41.01720079097071" lon="14.053199689149762"><ele>1.0</ele><time>2026-04-26T09:42:17.997Z</time></trkpt><trkpt lat="41.01732378138523" lon="14.053163645549073"><ele>1.0</ele><time>2026-04-26T09:42:18.997Z</time></trkpt><trkpt lat="41.01744970675407" lon="14.053120406099366"><ele>1.0</ele><time>2026-04-26T09:42:19.997Z</time></trkpt><trkpt lat="41.01758004553801" lon="14.05308385790259"><ele>1.0</ele><time>2026-04-26T09:42:20.997Z</time></trkpt><trkpt lat="41.01770995775013" lon="14.053049325264567"><ele>1.0</ele><time>2026-04-26T09:42:21.997Z</time></trkpt><trkpt lat="41.01783649401114" lon="14.053008349447687"><ele>1.0</ele><time>2026-04-26T09:42:22.997Z</time></trkpt><trkpt lat="41.017962343150245" lon="14.052966875680115"><ele>1.0</ele><time>2026-04-26T09:42:23.999Z</time></trkpt><trkpt lat="41.01808481729026" lon="14.052932539441631"><ele>1.0</ele><time>2026-04-26T09:42:24.999Z</time></trkpt><trkpt lat="41.018206404542134" lon="14.052896615173877"><ele>1.0</ele><time>2026-04-26T09:42:25.999Z</time></trkpt><trkpt lat="41.01832562223506" lon="14.052862483539029"><ele>1.0</ele><time>2026-04-26T09:42:26.999Z</time></trkpt><trkpt lat="41.01844332434756" lon="14.052829507713938"><ele>1.0</ele><time>2026-04-26T09:42:27.999Z</time></trkpt><trkpt lat="41.018559696132435" lon="14.05279669523821"><ele>1.0</ele><time>2026-04-26T09:42:28.999Z</time></trkpt><trkpt lat="41.018666606671324" lon="14.05276149994499"><ele>0.9999999999999999</ele><time>2026-04-26T09:42:29.999Z</time></trkpt><trkpt lat="41.018769647099255" lon="14.05272916069781"><ele>1.0</ele><time>2026-04-26T09:42:30.999Z</time></trkpt><trkpt lat="41.018868729148586" lon="14.052697268541465"><ele>1.0</ele><time>2026-04-26T09:42:31.999Z</time></trkpt><trkpt lat="41.018952267442465" lon="14.052666601531138"><ele>1.0</ele><time>2026-04-26T09:42:32.999Z</time></trkpt><trkpt lat="41.01903233791156" lon="14.052644385548449"><ele>0.9999999999999999</ele><time>2026-04-26T09:42:33.999Z</time></trkpt><trkpt lat="41.01910453779812" lon="14.052643210531818"><ele>1.0</ele><time>2026-04-26T09:42:34.999Z</time></trkpt><trkpt lat="41.01917760919167" lon="14.052623600609575"><ele>1.1666666666666665</ele><time>2026-04-26T09:42:35.999Z</time></trkpt><trkpt lat="41.019238740563615" lon="14.052585479947622"><ele>1.3333333333333333</ele><time>2026-04-26T09:42:36.999Z</time></trkpt><trkpt lat="41.01933746839258" lon="14.05256052382958"><ele>1.5</ele><time>2026-04-26T09:42:38.999Z</time></trkpt><trkpt lat="41.019407733477074" lon="14.05252638082075"><ele>1.6666666666666665</ele><time>2026-04-26T09:42:40.999Z</time></trkpt><trkpt lat="41.0194783427686" lon="14.052481042250088"><ele>1.8333333333333333</ele><time>2026-04-26T09:42:42.999Z</time></trkpt><trkpt lat="41.0195904270003" lon="14.052426468012555"><ele>2.0</ele><time>2026-04-26T09:42:44.999Z</time></trkpt><trkpt lat="41.0196635750239" lon="14.052394469743454"><ele>2.0</ele><time>2026-04-26T09:42:45.999Z</time></trkpt><trkpt lat="41.01974374245746" lon="14.05235793324972"><ele>2.0</ele><time>2026-04-26T09:42:46.999Z</time></trkpt><trkpt lat="41.01982502587153" lon="14.05231967647683"><ele>2.0</ele><time>2026-04-26T09:42:47.999Z</time></trkpt><trkpt lat="41.019906027894166" lon="14.05227925671025"><ele>2.0</ele><time>2026-04-26T09:42:48.999Z</time></trkpt><trkpt lat="41.01999350490765" lon="14.052238444953886"><ele>2.0</ele><time>2026-04-26T09:42:49.999Z</time></trkpt><trkpt lat="41.02009405214636" lon="14.052214382541667"><ele>2.0</ele><time>2026-04-26T09:42:50.999Z</time></trkpt><trkpt lat="41.020187491303176" lon="14.05217253980026"><ele>2.0</ele><time>2026-04-26T09:42:51.999Z</time></trkpt><trkpt lat="41.02027380483325" lon="14.05211646257608"><ele>2.0</ele><time>2026-04-26T09:42:52.999Z</time></trkpt><trkpt lat="41.02037122520035" lon="14.052075536979023"><ele>2.0</ele><time>2026-04-26T09:42:53.999Z</time></trkpt><trkpt lat="41.02046164656693" lon="14.052060614615957"><ele>2.0</ele><time>2026-04-26T09:42:54.999Z</time></trkpt><trkpt lat="41.0205498582333" lon="14.052023989786694"><ele>2.0</ele><time>2026-04-26T09:42:55.999Z</time></trkpt><trkpt lat="41.02064157723032" lon="14.051963167475577"><ele>2.0</ele><time>2026-04-26T09:42:56.999Z</time></trkpt><trkpt lat="41.020742250667915" lon="14.051929699673833"><ele>2.0</ele><time>2026-04-26T09:42:57.999Z</time></trkpt><trkpt lat="41.02083919266506" lon="14.051886925279074"><ele>2.0</ele><time>2026-04-26T09:42:58.999Z</time></trkpt><trkpt lat="41.02094101128504" lon="14.051861279707168"><ele>2.0</ele><time>2026-04-26T09:42:59.999Z</time></trkpt><trkpt lat="41.021026818600866" lon="14.051806847400654"><ele>2.0</ele><time>2026-04-26T09:43:00.999Z</time></trkpt><trkpt lat="41.02112398566978" lon="14.051784900047222"><ele>2.0</ele><time>2026-04-26T09:43:01.999Z</time></trkpt><trkpt lat="41.02121455055296" lon="14.051725817573523"><ele>2.0</ele><time>2026-04-26T09:43:02.999Z</time></trkpt><trkpt lat="41.02131744024875" lon="14.051686232829988"><ele>2.0</ele><time>2026-04-26T09:43:03.999Z</time></trkpt><trkpt lat="41.02141611705672" lon="14.051643693401749"><ele>2.0</ele><time>2026-04-26T09:43:04.999Z</time></trkpt><trkpt lat="41.02151611373992" lon="14.051609750316466"><ele>2.0</ele><time>2026-04-26T09:43:05.999Z</time></trkpt><trkpt lat="41.02161590492355" lon="14.051569373394537"><ele>2.0</ele><time>2026-04-26T09:43:06.999Z</time></trkpt><trkpt lat="41.02171959913051" lon="14.051526206246669"><ele>2.0</ele><time>2026-04-26T09:43:07.999Z</time></trkpt><trkpt lat="41.02182504232104" lon="14.051483804268363"><ele>2.0</ele><time>2026-04-26T09:43:08.999Z</time></trkpt><trkpt lat="41.0219319042027" lon="14.051440190067787"><ele>2.0</ele><time>2026-04-26T09:43:09.999Z</time></trkpt><trkpt lat="41.02203675773193" lon="14.051397274899761"><ele>2.0</ele><time>2026-04-26T09:43:10.999Z</time></trkpt><trkpt lat="41.02214787503035" lon="14.051356415591234"><ele>2.0</ele><time>2026-04-26T09:43:11.998Z</time></trkpt><trkpt lat="41.02226143024331" lon="14.051313146884675"><ele>2.0</ele><time>2026-04-26T09:43:12.998Z</time></trkpt><trkpt lat="41.0223765327853" lon="14.05126567622952"><ele>2.0</ele><time>2026-04-26T09:43:13.998Z</time></trkpt><trkpt lat="41.022490257943424" lon="14.051219402257178"><ele>1.75</ele><time>2026-04-26T09:43:14.998Z</time></trkpt><trkpt lat="41.022603171393" lon="14.051175171009204"><ele>1.5</ele><time>2026-04-26T09:43:15.998Z</time></trkpt><trkpt lat="41.02271665431269" lon="14.051132628253225"><ele>1.25</ele><time>2026-04-26T09:43:16.998Z</time></trkpt><trkpt lat="41.02282490835824" lon="14.051092410089394"><ele>1.0</ele><time>2026-04-26T09:43:17.998Z</time></trkpt><trkpt lat="41.02292582105191" lon="14.051052339408727"><ele>0.9999999999999999</ele><time>2026-04-26T09:43:18.998Z</time></trkpt><trkpt lat="41.02301480064877" lon="14.051019538773122"><ele>1.0</ele><time>2026-04-26T09:43:19.998Z</time></trkpt><trkpt lat="41.02310036726406" lon="14.05098940728739"><ele>1.0</ele><time>2026-04-26T09:43:20.998Z</time></trkpt><trkpt lat="41.02317564194753" lon="14.050957745723425"><ele>1.0</ele><time>2026-04-26T09:43:21.998Z</time></trkpt><trkpt lat="41.02327770281265" lon="14.05091480396411"><ele>0.9999999999999999</ele><time>2026-04-26T09:43:23.998Z</time></trkpt><trkpt lat="41.02335790185555" lon="14.05090915168874"><ele>1.0</ele><time>2026-04-26T09:43:25.998Z</time></trkpt><trkpt lat="41.023424738771006" lon="14.050974321915294"><ele>0.9999999999999999</ele><time>2026-04-26T09:43:27.998Z</time></trkpt><trkpt lat="41.023455434843086" lon="14.051066148155"><ele>1.0</ele><time>2026-04-26T09:43:29.998Z</time></trkpt><trkpt lat="41.0233886477714" lon="14.050982913741384"><ele>1.0</ele><time>2026-04-26T09:43:54.997Z</time></trkpt><trkpt lat="41.023331351314056" lon="14.050925510253462"><ele>1.0</ele><time>2026-04-26T09:43:56.997Z</time></trkpt><trkpt lat="41.023233686873056" lon="14.050915658229753"><ele>0.9999999999999999</ele><time>2026-04-26T09:43:58.997Z</time></trkpt><trkpt lat="41.02313308456069" lon="14.050970745577038"><ele>1.0</ele><time>2026-04-26T09:44:00.997Z</time></trkpt><trkpt lat="41.02302376699547" lon="14.05100625957758"><ele>1.0</ele><time>2026-04-26T09:44:02.997Z</time></trkpt><trkpt lat="41.02290415660106" lon="14.051054509001682"><ele>1.0</ele><time>2026-04-26T09:44:04.997Z</time></trkpt><trkpt lat="41.02283275862299" lon="14.051082218770432"><ele>1.0</ele><time>2026-04-26T09:44:05.997Z</time></trkpt><trkpt lat="41.022750845243976" lon="14.05110969747436"><ele>1.0</ele><time>2026-04-26T09:44:06.997Z</time></trkpt><trkpt lat="41.02266502746229" lon="14.05114448298141"><ele>1.0</ele><time>2026-04-26T09:44:07.997Z</time></trkpt><trkpt lat="41.022576690420614" lon="14.051181831745275"><ele>0.9999999999999999</ele><time>2026-04-26T09:44:08.997Z</time></trkpt><trkpt lat="41.02249157494012" lon="14.051217355532279"><ele>1.0</ele><time>2026-04-26T09:44:09.997Z</time></trkpt><trkpt lat="41.022404203751044" lon="14.051249329184273"><ele>1.0</ele><time>2026-04-26T09:44:10.997Z</time></trkpt><trkpt lat="41.02232398874305" lon="14.051286727179349"><ele>1.0</ele><time>2026-04-26T09:44:11.997Z</time></trkpt><trkpt lat="41.02224855442167" lon="14.051321019532299"><ele>0.9999999999999999</ele><time>2026-04-26T09:44:12.997Z</time></trkpt><trkpt lat="41.022167385197335" lon="14.051349023670664"><ele>1.0</ele><time>2026-04-26T09:44:13.997Z</time></trkpt><trkpt lat="41.02208735358537" lon="14.05137720331309"><ele>1.1666666666666665</ele><time>2026-04-26T09:44:14.997Z</time></trkpt><trkpt lat="41.02200689512394" lon="14.05141229585128"><ele>1.3333333333333333</ele><time>2026-04-26T09:44:15.997Z</time></trkpt><trkpt lat="41.02193134651774" lon="14.051446182460868"><ele>1.5</ele><time>2026-04-26T09:44:16.997Z</time></trkpt><trkpt lat="41.02186053918042" lon="14.05146752797495"><ele>1.6666666666666665</ele><time>2026-04-26T09:44:17.997Z</time></trkpt><trkpt lat="41.02178334059288" lon="14.051493735931041"><ele>1.8333333333333333</ele><time>2026-04-26T09:44:18.997Z</time></trkpt><trkpt lat="41.02170905682938" lon="14.051526270533026"><ele>2.0</ele><time>2026-04-26T09:44:19.997Z</time></trkpt><trkpt lat="41.02163114830305" lon="14.051559524004738"><ele>1.9999999999999998</ele><time>2026-04-26T09:44:20.997Z</time></trkpt><trkpt lat="41.021554774077934" lon="14.05158715830825"><ele>2.0</ele><time>2026-04-26T09:44:21.997Z</time></trkpt><trkpt lat="41.021468238568794" lon="14.051597743763407"><ele>2.0</ele><time>2026-04-26T09:44:22.997Z</time></trkpt><trkpt lat="41.02139322032626" lon="14.051646510326332"><ele>2.0</ele><time>2026-04-26T09:44:23.997Z</time></trkpt><trkpt lat="41.02130573330954" lon="14.051682077250941"><ele>1.9999999999999998</ele><time>2026-04-26T09:44:24.997Z</time></trkpt><trkpt lat="41.02121731231599" lon="14.051715998762933"><ele>2.0</ele><time>2026-04-26T09:44:25.997Z</time></trkpt><trkpt lat="41.02111440698662" lon="14.051760189408085"><ele>2.0</ele><time>2026-04-26T09:44:26.997Z</time></trkpt><trkpt lat="41.02100724487982" lon="14.051806827854218"><ele>2.0</ele><time>2026-04-26T09:44:27.997Z</time></trkpt><trkpt lat="41.02090427626896" lon="14.05184769310498"><ele>2.0</ele><time>2026-04-26T09:44:28.997Z</time></trkpt><trkpt lat="41.020802649268454" lon="14.051887149976755"><ele>2.0</ele><time>2026-04-26T09:44:29.998Z</time></trkpt><trkpt lat="41.020700656784214" lon="14.0519304906888"><ele>2.0</ele><time>2026-04-26T09:44:30.998Z</time></trkpt><trkpt lat="41.02059470931007" lon="14.051975033243387"><ele>2.0</ele><time>2026-04-26T09:44:31.998Z</time></trkpt><trkpt lat="41.02049113411351" lon="14.052019234976497"><ele>2.0</ele><time>2026-04-26T09:44:32.998Z</time></trkpt><trkpt lat="41.02038288829472" lon="14.052068834436605"><ele>2.0</ele><time>2026-04-26T09:44:33.998Z</time></trkpt><trkpt lat="41.020286953001545" lon="14.052100080519384"><ele>2.0</ele><time>2026-04-26T09:44:34.998Z</time></trkpt><trkpt lat="41.02019318707395" lon="14.052145127369844"><ele>2.0</ele><time>2026-04-26T09:44:35.998Z</time></trkpt><trkpt lat="41.020093730355256" lon="14.052168075701788"><ele>1.9999999999999998</ele><time>2026-04-26T09:44:36.998Z</time></trkpt><trkpt lat="41.02000538626296" lon="14.052230023084261"><ele>2.0</ele><time>2026-04-26T09:44:37.998Z</time></trkpt><trkpt lat="41.01991483491914" lon="14.052270655384143"><ele>2.0</ele><time>2026-04-26T09:44:38.999Z</time></trkpt><trkpt lat="41.01982882048745" lon="14.052301780025383"><ele>2.0</ele><time>2026-04-26T09:44:39.999Z</time></trkpt><trkpt lat="41.01974894581488" lon="14.052342982713405"><ele>1.9999999999999998</ele><time>2026-04-26T09:44:40.999Z</time></trkpt><trkpt lat="41.01968195536688" lon="14.052375888053755"><ele>2.0</ele><time>2026-04-26T09:44:41.999Z</time></trkpt><trkpt lat="41.01957449433836" lon="14.052432362129236"><ele>2.0</ele><time>2026-04-26T09:44:43.999Z</time></trkpt><trkpt lat="41.019508904864075" lon="14.052441701108924"><ele>2.0</ele><time>2026-04-26T09:44:44.999Z</time></trkpt><trkpt lat="41.01939920222316" lon="14.052494593174925"><ele>2.0</ele><time>2026-04-26T09:44:46.999Z</time></trkpt><trkpt lat="41.01933488476674" lon="14.052523141457169"><ele>2.0</ele><time>2026-04-26T09:44:48.999Z</time></trkpt><trkpt lat="41.01936840155604" lon="14.052693639550307"><ele>2.0</ele><time>2026-04-26T09:44:51.999Z</time></trkpt><trkpt lat="41.019431534853645" lon="14.05282831000631"><ele>2.0</ele><time>2026-04-26T09:44:53.999Z</time></trkpt><trkpt lat="41.01946345590678" lon="14.05292376220272"><ele>2.0</ele><time>2026-04-26T09:44:54.999Z</time></trkpt><trkpt lat="41.019520589467554" lon="14.053010998288622"><ele>2.0</ele><time>2026-04-26T09:44:55.999Z</time></trkpt><trkpt lat="41.01956754741696" lon="14.053115434576897"><ele>2.0</ele><time>2026-04-26T09:44:56.999Z</time></trkpt><trkpt lat="41.01962503098329" lon="14.0532187154252"><ele>2.0</ele><time>2026-04-26T09:44:57.999Z</time></trkpt><trkpt lat="41.019704471089035" lon="14.053320793248837"><ele>2.0</ele><time>2026-04-26T09:44:58.999Z</time></trkpt><trkpt lat="41.0197808279852" lon="14.053416686895654"><ele>2.0</ele><time>2026-04-26T09:44:59.999Z</time></trkpt><trkpt lat="41.01985983223668" lon="14.053513965337762"><ele>2.0</ele><time>2026-04-26T09:45:00.999Z</time></trkpt><trkpt lat="41.01993173479894" lon="14.05361270034043"><ele>2.0</ele><time>2026-04-26T09:45:01.999Z</time></trkpt><trkpt lat="41.020005281202415" lon="14.053728471744487"><ele>2.0</ele><time>2026-04-26T09:45:02.999Z</time></trkpt><trkpt lat="41.02006914604047" lon="14.05384508771576"><ele>2.0</ele><time>2026-04-26T09:45:03.999Z</time></trkpt><trkpt lat="41.020130815385826" lon="14.0539698152567"><ele>2.0</ele><time>2026-04-26T09:45:04.999Z</time></trkpt><trkpt lat="41.020189047102456" lon="14.054087746940096"><ele>2.0</ele><time>2026-04-26T09:45:05.999Z</time></trkpt><trkpt lat="41.020236270001035" lon="14.054201601479916"><ele>2.0</ele><time>2026-04-26T09:45:06.999Z</time></trkpt><trkpt lat="41.02026711063047" lon="14.054311630115194"><ele>2.0</ele><time>2026-04-26T09:45:07.999Z</time></trkpt><trkpt lat="41.020282313980964" lon="14.05442135383287"><ele>1.8333333333333333</ele><time>2026-04-26T09:45:08.999Z</time></trkpt><trkpt lat="41.02029036981191" lon="14.054529808317278"><ele>1.6666666666666665</ele><time>2026-04-26T09:45:09.999Z</time></trkpt><trkpt lat="41.02028773425354" lon="14.054643473245953"><ele>1.5</ele><time>2026-04-26T09:45:10.999Z</time></trkpt><trkpt lat="41.020277559042036" lon="14.054760705314692"><ele>1.3333333333333333</ele><time>2026-04-26T09:45:11.999Z</time></trkpt><trkpt lat="41.02026689778434" lon="14.054874155460796"><ele>1.1666666666666665</ele><time>2026-04-26T09:45:12.999Z</time></trkpt><trkpt lat="41.02026713012595" lon="14.05499245237908"><ele>1.0</ele><time>2026-04-26T09:45:13.999Z</time></trkpt><trkpt lat="41.0202866447347" lon="14.055121110992062"><ele>1.5</ele><time>2026-04-26T09:45:14.999Z</time></trkpt><trkpt lat="41.02032246037193" lon="14.05525987900585"><ele>2.0</ele><time>2026-04-26T09:45:15.999Z</time></trkpt><trkpt lat="41.020364273529914" lon="14.055410556225786"><ele>2.5</ele><time>2026-04-26T09:45:16.999Z</time></trkpt><trkpt lat="41.02040419341905" lon="14.055559668822227"><ele>3.0</ele><time>2026-04-26T09:45:17.999Z</time></trkpt><trkpt lat="41.020434922459835" lon="14.055705276668716"><ele>3.5</ele><time>2026-04-26T09:45:18.999Z</time></trkpt><trkpt lat="41.02046355525964" lon="14.055854868468927"><ele>4.0</ele><time>2026-04-26T09:45:19.999Z</time></trkpt><trkpt lat="41.02048605748415" lon="14.056004586183807"><ele>4.5</ele><time>2026-04-26T09:45:20.999Z</time></trkpt><trkpt lat="41.02050931881571" lon="14.056154093757929"><ele>5.0</ele><time>2026-04-26T09:45:21.999Z</time></trkpt><trkpt lat="41.02052234671473" lon="14.056306231978558"><ele>5.0</ele><time>2026-04-26T09:45:22.999Z</time></trkpt><trkpt lat="41.02053274407566" lon="14.056460070292077"><ele>5.0</ele><time>2026-04-26T09:45:23.999Z</time></trkpt><trkpt lat="41.02054728366323" lon="14.056617228018125"><ele>5.0</ele><time>2026-04-26T09:45:24.998Z</time></trkpt><trkpt lat="41.02055832503305" lon="14.056774439445494"><ele>5.0</ele><time>2026-04-26T09:45:25.998Z</time></trkpt><trkpt lat="41.02057043832273" lon="14.056926257627069"><ele>5.0</ele><time>2026-04-26T09:45:26.998Z</time></trkpt><trkpt lat="41.02058213308553" lon="14.05707291906528"><ele>5.0</ele><time>2026-04-26T09:45:27.998Z</time></trkpt><trkpt lat="41.020596135150285" lon="14.057217424726602"><ele>5.0</ele><time>2026-04-26T09:45:28.998Z</time></trkpt><trkpt lat="41.02063297917282" lon="14.057354121997713"><ele>5.0</ele><time>2026-04-26T09:45:29.998Z</time></trkpt><trkpt lat="41.020684044249755" lon="14.057498602615427"><ele>4.5</ele><time>2026-04-26T09:45:30.998Z</time></trkpt><trkpt lat="41.02073852074186" lon="14.057645420494383"><ele>4.0</ele><time>2026-04-26T09:45:31.998Z</time></trkpt><trkpt lat="41.020800309250475" lon="14.057801848074542"><ele>3.5</ele><time>2026-04-26T09:45:32.998Z</time></trkpt><trkpt lat="41.02087434032216" lon="14.057979580691638"><ele>3.0</ele><time>2026-04-26T09:45:33.998Z</time></trkpt><trkpt lat="41.020926788975565" lon="14.058166880681874"><ele>3.333333333333333</ele><time>2026-04-26T09:45:34.998Z</time></trkpt><trkpt lat="41.02099422328875" lon="14.058349191621199"><ele>3.6666666666666665</ele><time>2026-04-26T09:45:35.998Z</time></trkpt><trkpt lat="41.02107477854222" lon="14.058518385744385"><ele>4.0</ele><time>2026-04-26T09:45:36.998Z</time></trkpt><trkpt lat="41.02114391717602" lon="14.058696887594786"><ele>4.0</ele><time>2026-04-26T09:45:37.998Z</time></trkpt><trkpt lat="41.02121409343011" lon="14.058873763662495"><ele>4.0</ele><time>2026-04-26T09:45:38.998Z</time></trkpt><trkpt lat="41.021279913471" lon="14.059054662336134"><ele>4.0</ele><time>2026-04-26T09:45:39.998Z</time></trkpt><trkpt lat="41.02133981580284" lon="14.059229281831986"><ele>4.0</ele><time>2026-04-26T09:45:40.998Z</time></trkpt><trkpt lat="41.021389583298635" lon="14.059383963825411"><ele>4.0</ele><time>2026-04-26T09:45:41.998Z</time></trkpt><trkpt lat="41.02144074956722" lon="14.059508751913892"><ele>4.0</ele><time>2026-04-26T09:45:42.998Z</time></trkpt><trkpt lat="41.021494673705384" lon="14.059619549968685"><ele>4.0</ele><time>2026-04-26T09:45:43.998Z</time></trkpt><trkpt lat="41.02155724753624" lon="14.05972111720292"><ele>4.0</ele><time>2026-04-26T09:45:44.998Z</time></trkpt><trkpt lat="41.02162604802144" lon="14.059826449369599"><ele>4.0</ele><time>2026-04-26T09:45:45.998Z</time></trkpt><trkpt lat="41.02170578150875" lon="14.059930061304021"><ele>3.75</ele><time>2026-04-26T09:45:46.998Z</time></trkpt><trkpt lat="41.02179239385576" lon="14.060042970939802"><ele>3.5</ele><time>2026-04-26T09:45:47.998Z</time></trkpt><trkpt lat="41.02188814829147" lon="14.060166019192812"><ele>3.25</ele><time>2026-04-26T09:45:48.998Z</time></trkpt><trkpt lat="41.02199094768804" lon="14.060288837342881"><ele>3.0</ele><time>2026-04-26T09:45:49.998Z</time></trkpt><trkpt lat="41.022088336977355" lon="14.0604296383928"><ele>3.0</ele><time>2026-04-26T09:45:50.998Z</time></trkpt><trkpt lat="41.02220119826532" lon="14.060550764605255"><ele>3.0</ele><time>2026-04-26T09:45:51.998Z</time></trkpt><trkpt lat="41.02230248297267" lon="14.060703689523125"><ele>3.0</ele><time>2026-04-26T09:45:52.998Z</time></trkpt><trkpt lat="41.022426366810166" lon="14.060835055781107"><ele>3.333333333333333</ele><time>2026-04-26T09:45:53.998Z</time></trkpt><trkpt lat="41.02253993165405" lon="14.060975738526043"><ele>3.6666666666666665</ele><time>2026-04-26T09:45:54.998Z</time></trkpt><trkpt lat="41.022651801175805" lon="14.061113686801066"><ele>4.0</ele><time>2026-04-26T09:45:55.998Z</time></trkpt><trkpt lat="41.0227643837257" lon="14.061245197870193"><ele>4.0</ele><time>2026-04-26T09:45:56.998Z</time></trkpt><trkpt lat="41.02285558907908" lon="14.061393124311163"><ele>4.0</ele><time>2026-04-26T09:45:57.998Z</time></trkpt><trkpt lat="41.02295823140259" lon="14.061526936969216"><ele>4.0</ele><time>2026-04-26T09:45:58.998Z</time></trkpt><trkpt lat="41.02305048651022" lon="14.061658874529986"><ele>4.0</ele><time>2026-04-26T09:45:59.998Z</time></trkpt><trkpt lat="41.02314097258171" lon="14.061779378133236"><ele>4.25</ele><time>2026-04-26T09:46:00.998Z</time></trkpt><trkpt lat="41.02320584527814" lon="14.061928655127055"><ele>4.5</ele><time>2026-04-26T09:46:01.998Z</time></trkpt><trkpt lat="41.023240211352864" lon="14.06209539728728"><ele>4.75</ele><time>2026-04-26T09:46:02.998Z</time></trkpt><trkpt lat="41.023277902259416" lon="14.062247787512975"><ele>5.0</ele><time>2026-04-26T09:46:03.998Z</time></trkpt><trkpt lat="41.02330550906767" lon="14.062395229501583"><ele>4.75</ele><time>2026-04-26T09:46:04.998Z</time></trkpt><trkpt lat="41.02333159342549" lon="14.0625485548828"><ele>4.5</ele><time>2026-04-26T09:46:05.998Z</time></trkpt><trkpt lat="41.023352309838835" lon="14.062711027984557"><ele>4.25</ele><time>2026-04-26T09:46:06.998Z</time></trkpt><trkpt lat="41.02337849217289" lon="14.06287305768354"><ele>4.0</ele><time>2026-04-26T09:46:07.998Z</time></trkpt><trkpt lat="41.023394970372145" lon="14.063031847603508"><ele>4.0</ele><time>2026-04-26T09:46:08.998Z</time></trkpt><trkpt lat="41.02340933153166" lon="14.063174932637235"><ele>4.0</ele><time>2026-04-26T09:46:09.998Z</time></trkpt><trkpt lat="41.02342283880566" lon="14.063310052672831"><ele>4.0</ele><time>2026-04-26T09:46:10.998Z</time></trkpt><trkpt lat="41.02345046779987" lon="14.06344933286577"><ele>4.0</ele><time>2026-04-26T09:46:11.998Z</time></trkpt><trkpt lat="41.02351055462702" lon="14.063603761939872"><ele>4.0</ele><time>2026-04-26T09:46:12.998Z</time></trkpt><trkpt lat="41.02357881066033" lon="14.063769900693725"><ele>4.0</ele><time>2026-04-26T09:46:13.998Z</time></trkpt><trkpt lat="41.0236392342109" lon="14.06393845301512"><ele>4.0</ele><time>2026-04-26T09:46:14.998Z</time></trkpt><trkpt lat="41.02369684929382" lon="14.064117456137602"><ele>4.0</ele><time>2026-04-26T09:46:15.998Z</time></trkpt><trkpt lat="41.02375017431376" lon="14.06430608427869"><ele>4.0</ele><time>2026-04-26T09:46:16.997Z</time></trkpt><trkpt lat="41.02380844133942" lon="14.064490261585545"><ele>4.0</ele><time>2026-04-26T09:46:17.997Z</time></trkpt><trkpt lat="41.02386587447393" lon="14.064670423577464"><ele>4.0</ele><time>2026-04-26T09:46:18.997Z</time></trkpt><trkpt lat="41.023921293558345" lon="14.064848872074725"><ele>4.0</ele><time>2026-04-26T09:46:19.997Z</time></trkpt><trkpt lat="41.02398568773298" lon="14.065021096662763"><ele>4.0</ele><time>2026-04-26T09:46:20.997Z</time></trkpt><trkpt lat="41.0240166361777" lon="14.065186531573852"><ele>4.0</ele><time>2026-04-26T09:46:21.997Z</time></trkpt><trkpt lat="41.024045941709446" lon="14.065316280963021"><ele>4.0</ele><time>2026-04-26T09:46:22.997Z</time></trkpt><trkpt lat="41.024064906131905" lon="14.065410803717768"><ele>4.0</ele><time>2026-04-26T09:46:23.997Z</time></trkpt><trkpt lat="41.024070641490106" lon="14.065547742798278"><ele>4.0</ele><time>2026-04-26T09:46:25.997Z</time></trkpt><trkpt lat="41.024044149108256" lon="14.065677111385991"><ele>4.2</ele><time>2026-04-26T09:46:27.997Z</time></trkpt><trkpt lat="41.023996905934304" lon="14.065788796149757"><ele>4.4</ele><time>2026-04-26T09:46:29.997Z</time></trkpt><trkpt lat="41.023951942361975" lon="14.065847676803374"><ele>4.6</ele><time>2026-04-26T09:46:30.997Z</time></trkpt><trkpt lat="41.023906071798216" lon="14.065908800675786"><ele>4.8</ele><time>2026-04-26T09:46:31.997Z</time></trkpt><trkpt lat="41.02380946572268" lon="14.065980361619202"><ele>5.0</ele><time>2026-04-26T09:46:33.997Z</time></trkpt><trkpt lat="41.02370894591906" lon="14.06610711636439"><ele>5.0</ele><time>2026-04-26T09:46:35.999Z</time></trkpt><trkpt lat="41.02370063784697" lon="14.066245250916639"><ele>5.0</ele><time>2026-04-26T09:46:37.999Z</time></trkpt><trkpt lat="41.02371928291829" lon="14.066345896045423"><ele>5.0</ele><time>2026-04-26T09:46:38.999Z</time></trkpt><trkpt lat="41.02373890343036" lon="14.066460909321943"><ele>5.0</ele><time>2026-04-26T09:46:39.999Z</time></trkpt><trkpt lat="41.02375133829526" lon="14.06657180376269"><ele>5.0</ele><time>2026-04-26T09:46:40.999Z</time></trkpt><trkpt lat="41.02376175702695" lon="14.066690899724131"><ele>5.0</ele><time>2026-04-26T09:46:41.999Z</time></trkpt><trkpt lat="41.02377198839264" lon="14.066822889451748"><ele>4.8</ele><time>2026-04-26T09:46:42.999Z</time></trkpt><trkpt lat="41.0237857674676" lon="14.066952204948349"><ele>4.6</ele><time>2026-04-26T09:46:43.999Z</time></trkpt><trkpt lat="41.02380177016206" lon="14.067085495312083"><ele>4.4</ele><time>2026-04-26T09:46:44.999Z</time></trkpt><trkpt lat="41.023814986525686" lon="14.067223029349867"><ele>4.2</ele><time>2026-04-26T09:46:45.999Z</time></trkpt><trkpt lat="41.02382517735572" lon="14.067356171418362"><ele>4.0</ele><time>2026-04-26T09:46:46.999Z</time></trkpt><trkpt lat="41.02384109483475" lon="14.067476576026129"><ele>3.833333333333333</ele><time>2026-04-26T09:46:47.999Z</time></trkpt><trkpt lat="41.0238504901475" lon="14.06758931410984"><ele>3.6666666666666665</ele><time>2026-04-26T09:46:48.999Z</time></trkpt><trkpt lat="41.02386424811372" lon="14.067696997500457"><ele>3.5</ele><time>2026-04-26T09:46:49.999Z</time></trkpt><trkpt lat="41.02385419168331" lon="14.067790645257986"><ele>3.333333333333333</ele><time>2026-04-26T09:46:50.999Z</time></trkpt><trkpt lat="41.02386209392475" lon="14.067929322510546"><ele>3.1666666666666665</ele><time>2026-04-26T09:46:52.999Z</time></trkpt><trkpt lat="41.02386802835159" lon="14.068046872766073"><ele>3.0</ele><time>2026-04-26T09:46:54.999Z</time></trkpt><trkpt lat="41.0238862163347" lon="14.068132494330602"><ele>3.0</ele><time>2026-04-26T09:46:56.999Z</time></trkpt><trkpt lat="41.02388032620128" lon="14.068255702893977"><ele>3.0</ele><time>2026-04-26T09:46:59.999Z</time></trkpt><trkpt lat="41.02390127126307" lon="14.068337780140226"><ele>3.0</ele><time>2026-04-26T09:47:01.999Z</time></trkpt><trkpt lat="41.02390231673958" lon="14.068453918909958"><ele>3.0</ele><time>2026-04-26T09:47:04.999Z</time></trkpt><trkpt lat="41.02389991533778" lon="14.068549248357177"><ele>3.0</ele><time>2026-04-26T09:47:07.999Z</time></trkpt><trkpt lat="41.023908179392244" lon="14.068644774645756"><ele>3.0</ele><time>2026-04-26T09:47:20.999Z</time></trkpt><trkpt lat="41.02405696777658" lon="14.068618928144009"><ele>2.8333333333333335</ele><time>2026-04-26T09:47:25.999Z</time></trkpt><trkpt lat="41.02411369075562" lon="14.06857484375667"><ele>2.6666666666666665</ele><time>2026-04-26T09:47:26.999Z</time></trkpt><trkpt lat="41.024186010512175" lon="14.068516774500468"><ele>2.5</ele><time>2026-04-26T09:47:27.999Z</time></trkpt><trkpt lat="41.02426245226572" lon="14.068464216236816"><ele>2.333333333333333</ele><time>2026-04-26T09:47:28.999Z</time></trkpt><trkpt lat="41.024344676348456" lon="14.068410817687793"><ele>2.1666666666666665</ele><time>2026-04-26T09:47:29.999Z</time></trkpt><trkpt lat="41.0244387186546" lon="14.068334276053825"><ele>2.0</ele><time>2026-04-26T09:47:30.999Z</time></trkpt><trkpt lat="41.02454271285777" lon="14.068278078347376"><ele>2.4000000000000004</ele><time>2026-04-26T09:47:31.999Z</time></trkpt><trkpt lat="41.024643817050986" lon="14.068217624970748"><ele>2.8000000000000003</ele><time>2026-04-26T09:47:32.999Z</time></trkpt><trkpt lat="41.024742048220006" lon="14.068154768224915"><ele>3.2</ele><time>2026-04-26T09:47:33.999Z</time></trkpt><trkpt lat="41.02483905149182" lon="14.068087110738032"><ele>3.6</ele><time>2026-04-26T09:47:34.999Z</time></trkpt><trkpt lat="41.024936883976736" lon="14.068021796273126"><ele>4.0</ele><time>2026-04-26T09:47:35.999Z</time></trkpt><trkpt lat="41.02503363262014" lon="14.067967903687325"><ele>4.2</ele><time>2026-04-26T09:47:36.999Z</time></trkpt><trkpt lat="41.025130092753784" lon="14.067927200094912"><ele>4.4</ele><time>2026-04-26T09:47:37.999Z</time></trkpt><trkpt lat="41.025223362258046" lon="14.067902807262229"><ele>4.6</ele><time>2026-04-26T09:47:38.999Z</time></trkpt><trkpt lat="41.02530665238877" lon="14.067907550266298"><ele>4.8</ele><time>2026-04-26T09:47:39.999Z</time></trkpt><trkpt lat="41.02539426783803" lon="14.067943103586101"><ele>5.0</ele><time>2026-04-26T09:47:40.999Z</time></trkpt><trkpt lat="41.02546918427485" lon="14.06801269578318"><ele>5.0</ele><time>2026-04-26T09:47:41.999Z</time></trkpt><trkpt lat="41.02552092982427" lon="14.068126084924579"><ele>5.0</ele><time>2026-04-26T09:47:42.999Z</time></trkpt><trkpt lat="41.02555444318421" lon="14.06827179551322"><ele>5.0</ele><time>2026-04-26T09:47:43.999Z</time></trkpt><trkpt lat="41.025574688725314" lon="14.06842582812367"><ele>5.0</ele><time>2026-04-26T09:47:44.999Z</time></trkpt><trkpt lat="41.02559322354787" lon="14.068584346926235"><ele>5.0</ele><time>2026-04-26T09:47:45.999Z</time></trkpt><trkpt lat="41.02561664954413" lon="14.06876050953277"><ele>5.0</ele><time>2026-04-26T09:47:46.999Z</time></trkpt><trkpt lat="41.025644944379295" lon="14.068935145977592"><ele>5.0</ele><time>2026-04-26T09:47:47.999Z</time></trkpt><trkpt lat="41.025678908716365" lon="14.069105754529561"><ele>5.0</ele><time>2026-04-26T09:47:48.999Z</time></trkpt><trkpt lat="41.02571042807578" lon="14.069272364668086"><ele>4.75</ele><time>2026-04-26T09:47:49.998Z</time></trkpt><trkpt lat="41.025738351217846" lon="14.069438367918902"><ele>4.5</ele><time>2026-04-26T09:47:50.998Z</time></trkpt><trkpt lat="41.02575921751965" lon="14.069603579196581"><ele>4.25</ele><time>2026-04-26T09:47:51.998Z</time></trkpt><trkpt lat="41.025777348222825" lon="14.069764568104379"><ele>4.0</ele><time>2026-04-26T09:47:52.998Z</time></trkpt><trkpt lat="41.02578644748629" lon="14.069925821517979"><ele>4.25</ele><time>2026-04-26T09:47:53.998Z</time></trkpt><trkpt lat="41.02577897235532" lon="14.070090166079693"><ele>4.5</ele><time>2026-04-26T09:47:54.998Z</time></trkpt><trkpt lat="41.025750373897246" lon="14.070250560909068"><ele>4.75</ele><time>2026-04-26T09:47:55.998Z</time></trkpt><trkpt lat="41.025697335787484" lon="14.070407386293132"><ele>5.0</ele><time>2026-04-26T09:47:56.998Z</time></trkpt><trkpt lat="41.02563012598054" lon="14.070552211945872"><ele>5.0</ele><time>2026-04-26T09:47:57.998Z</time></trkpt><trkpt lat="41.02554259613208" lon="14.070677110531204"><ele>5.0</ele><time>2026-04-26T09:47:58.998Z</time></trkpt><trkpt lat="41.02542927654781" lon="14.070769132321976"><ele>5.0</ele><time>2026-04-26T09:47:59.998Z</time></trkpt><trkpt lat="41.02530306672572" lon="14.070829946188312"><ele>5.0</ele><time>2026-04-26T09:48:00.998Z</time></trkpt><trkpt lat="41.02516458176914" lon="14.070858191482463"><ele>5.0</ele><time>2026-04-26T09:48:01.998Z</time></trkpt><trkpt lat="41.025028863722504" lon="14.070849283228505"><ele>5.0</ele><time>2026-04-26T09:48:02.998Z</time></trkpt><trkpt lat="41.02490096484332" lon="14.070791436059505"><ele>5.0</ele><time>2026-04-26T09:48:03.998Z</time></trkpt><trkpt lat="41.02478552937955" lon="14.070699106824398"><ele>5.0</ele><time>2026-04-26T09:48:04.998Z</time></trkpt><trkpt lat="41.024684997097296" lon="14.07058440534053"><ele>4.75</ele><time>2026-04-26T09:48:05.998Z</time></trkpt><trkpt lat="41.024606316562014" lon="14.070445981260562"><ele>4.5</ele><time>2026-04-26T09:48:06.998Z</time></trkpt><trkpt lat="41.024548131060136" lon="14.070291187381402"><ele>4.25</ele><time>2026-04-26T09:48:07.998Z</time></trkpt><trkpt lat="41.02451014933521" lon="14.07012235649801"><ele>4.0</ele><time>2026-04-26T09:48:08.998Z</time></trkpt><trkpt lat="41.02447783532559" lon="14.069944457543459"><ele>3.6666666666666665</ele><time>2026-04-26T09:48:09.998Z</time></trkpt><trkpt lat="41.02442659569462" lon="14.069770167915234"><ele>3.333333333333333</ele><time>2026-04-26T09:48:10.998Z</time></trkpt><trkpt lat="41.02442110066752" lon="14.069564882060877"><ele>3.0</ele><time>2026-04-26T09:48:11.998Z</time></trkpt><trkpt lat="41.02438958651894" lon="14.069349089838065"><ele>3.0</ele><time>2026-04-26T09:48:12.998Z</time></trkpt><trkpt lat="41.02435376507254" lon="14.069118400198322"><ele>3.0</ele><time>2026-04-26T09:48:13.998Z</time></trkpt><trkpt lat="41.02431898359248" lon="14.068876983730995"><ele>3.0</ele><time>2026-04-26T09:48:14.998Z</time></trkpt><trkpt lat="41.02428165244326" lon="14.068635458950794"><ele>3.333333333333333</ele><time>2026-04-26T09:48:15.998Z</time></trkpt><trkpt lat="41.024246178737144" lon="14.068395277440278"><ele>3.6666666666666665</ele><time>2026-04-26T09:48:16.998Z</time></trkpt><trkpt lat="41.02421622153029" lon="14.068152811656677"><ele>4.0</ele><time>2026-04-26T09:48:17.998Z</time></trkpt><trkpt lat="41.02418428757398" lon="14.067914426959053"><ele>4.0</ele><time>2026-04-26T09:48:18.998Z</time></trkpt><trkpt lat="41.02415580672493" lon="14.067684835836218"><ele>4.0</ele><time>2026-04-26T09:48:19.998Z</time></trkpt><trkpt lat="41.02412609573492" lon="14.067459146111933"><ele>4.0</ele><time>2026-04-26T09:48:20.998Z</time></trkpt><trkpt lat="41.02409763829892" lon="14.067240474786283"><ele>4.0</ele><time>2026-04-26T09:48:21.998Z</time></trkpt><trkpt lat="41.02406924231621" lon="14.06701858711104"><ele>4.0</ele><time>2026-04-26T09:48:22.998Z</time></trkpt><trkpt lat="41.02404237615459" lon="14.066798959291162"><ele>4.0</ele><time>2026-04-26T09:48:23.998Z</time></trkpt><trkpt lat="41.02401414178105" lon="14.066584352780925"><ele>4.333333333333333</ele><time>2026-04-26T09:48:24.998Z</time></trkpt><trkpt lat="41.02398372533813" lon="14.066363649525837"><ele>4.666666666666667</ele><time>2026-04-26T09:48:25.998Z</time></trkpt><trkpt lat="41.02394884652366" lon="14.066135916742336"><ele>5.0</ele><time>2026-04-26T09:48:26.998Z</time></trkpt><trkpt lat="41.02391319227969" lon="14.065910344791195"><ele>4.666666666666667</ele><time>2026-04-26T09:48:27.998Z</time></trkpt><trkpt lat="41.023870632562556" lon="14.065684562261104"><ele>4.333333333333333</ele><time>2026-04-26T09:48:28.998Z</time></trkpt><trkpt lat="41.023817493035764" lon="14.065453718697121"><ele>4.0</ele><time>2026-04-26T09:48:29.998Z</time></trkpt><trkpt lat="41.023758100780896" lon="14.065220436872876"><ele>4.0</ele><time>2026-04-26T09:48:30.998Z</time></trkpt><trkpt lat="41.02369428667909" lon="14.06498647446339"><ele>4.0</ele><time>2026-04-26T09:48:31.998Z</time></trkpt><trkpt lat="41.02362651729451" lon="14.064754637740435"><ele>4.0</ele><time>2026-04-26T09:48:32.998Z</time></trkpt><trkpt lat="41.02355288107497" lon="14.06452866823202"><ele>4.0</ele><time>2026-04-26T09:48:33.998Z</time></trkpt><trkpt lat="41.02347697409963" lon="14.064305729608737"><ele>4.0</ele><time>2026-04-26T09:48:34.998Z</time></trkpt><trkpt lat="41.02339329165855" lon="14.064081681446885"><ele>4.0</ele><time>2026-04-26T09:48:35.998Z</time></trkpt><trkpt lat="41.02330895552037" lon="14.06386663444596"><ele>4.333333333333333</ele><time>2026-04-26T09:48:36.998Z</time></trkpt><trkpt lat="41.0232181855974" lon="14.063654526400528"><ele>4.666666666666667</ele><time>2026-04-26T09:48:37.998Z</time></trkpt><trkpt lat="41.023121589675554" lon="14.06344599158059"><ele>5.0</ele><time>2026-04-26T09:48:38.998Z</time></trkpt><trkpt lat="41.023023499289096" lon="14.063242843089968"><ele>5.333333333333334</ele><time>2026-04-26T09:48:39.998Z</time></trkpt><trkpt lat="41.02291771582316" lon="14.063035386313414"><ele>5.666666666666667</ele><time>2026-04-26T09:48:40.999Z</time></trkpt><trkpt lat="41.02281068452947" lon="14.062833210522243"><ele>6.0</ele><time>2026-04-26T09:48:41.999Z</time></trkpt><trkpt lat="41.02270338678153" lon="14.062635044271326"><ele>5.666666666666667</ele><time>2026-04-26T09:48:42.999Z</time></trkpt><trkpt lat="41.02259483581277" lon="14.062433793710095"><ele>5.333333333333334</ele><time>2026-04-26T09:48:43.999Z</time></trkpt><trkpt lat="41.02248778743091" lon="14.062235180333012"><ele>5.0</ele><time>2026-04-26T09:48:44.999Z</time></trkpt><trkpt lat="41.02238021859948" lon="14.06203059970582"><ele>4.666666666666667</ele><time>2026-04-26T09:48:45.999Z</time></trkpt><trkpt lat="41.022273749275996" lon="14.06182984028935"><ele>4.333333333333333</ele><time>2026-04-26T09:48:46.999Z</time></trkpt><trkpt lat="41.0221655542943" lon="14.061629081500067"><ele>4.0</ele><time>2026-04-26T09:48:47.999Z</time></trkpt><trkpt lat="41.02205584933399" lon="14.06143003802041"><ele>4.666666666666666</ele><time>2026-04-26T09:48:48.999Z</time></trkpt><trkpt lat="41.02194664393997" lon="14.06123083980638"><ele>5.333333333333333</ele><time>2026-04-26T09:48:49.999Z</time></trkpt><trkpt lat="41.021838278004516" lon="14.061032832706184"><ele>6.0</ele><time>2026-04-26T09:48:50.999Z</time></trkpt><trkpt lat="41.021733652075774" lon="14.060836417662697"><ele>5.666666666666667</ele><time>2026-04-26T09:48:51.999Z</time></trkpt><trkpt lat="41.02162561384358" lon="14.060632925647504"><ele>5.333333333333334</ele><time>2026-04-26T09:48:52.999Z</time></trkpt><trkpt lat="41.0215197092033" lon="14.060437916740307"><ele>5.0</ele><time>2026-04-26T09:48:53.999Z</time></trkpt><trkpt lat="41.02142457787652" lon="14.060224392731204"><ele>5.0</ele><time>2026-04-26T09:48:54.999Z</time></trkpt><trkpt lat="41.02133112355602" lon="14.060007485076182"><ele>5.0</ele><time>2026-04-26T09:48:55.999Z</time></trkpt><trkpt lat="41.02124753620135" lon="14.059785863649875"><ele>5.0</ele><time>2026-04-26T09:48:56.999Z</time></trkpt><trkpt lat="41.02116576000441" lon="14.05956333094293"><ele>5.333333333333334</ele><time>2026-04-26T09:48:57.999Z</time></trkpt><trkpt lat="41.021089709978796" lon="14.059340306822499"><ele>5.666666666666667</ele><time>2026-04-26T09:48:58.999Z</time></trkpt><trkpt lat="41.0210163777414" lon="14.059115005977306"><ele>6.0</ele><time>2026-04-26T09:48:59.999Z</time></trkpt><trkpt lat="41.02094177965068" lon="14.05888853842438"><ele>5.333333333333333</ele><time>2026-04-26T09:49:00.999Z</time></trkpt><trkpt lat="41.02086827659958" lon="14.058657115239951"><ele>4.666666666666666</ele><time>2026-04-26T09:49:01.999Z</time></trkpt><trkpt lat="41.02079315427873" lon="14.058419614856163"><ele>4.0</ele><time>2026-04-26T09:49:02.999Z</time></trkpt><trkpt lat="41.020714675796405" lon="14.058188531376283"><ele>3.6666666666666665</ele><time>2026-04-26T09:49:03.999Z</time></trkpt><trkpt lat="41.02063799077669" lon="14.057955695404951"><ele>3.333333333333333</ele><time>2026-04-26T09:49:04.999Z</time></trkpt><trkpt lat="41.020563072505766" lon="14.057718959662015"><ele>3.0</ele><time>2026-04-26T09:49:05.999Z</time></trkpt><trkpt lat="41.02049133211174" lon="14.057480050265001"><ele>3.666666666666667</ele><time>2026-04-26T09:49:06.999Z</time></trkpt><trkpt lat="41.0204178507305" lon="14.057243195494005"><ele>4.333333333333334</ele><time>2026-04-26T09:49:07.999Z</time></trkpt><trkpt lat="41.02034079015056" lon="14.057006080130709"><ele>5.0</ele><time>2026-04-26T09:49:08.999Z</time></trkpt><trkpt lat="41.02026540335065" lon="14.056772152346399"><ele>5.0</ele><time>2026-04-26T09:49:09.999Z</time></trkpt><trkpt lat="41.02019081416256" lon="14.0565387081427"><ele>5.0</ele><time>2026-04-26T09:49:10.999Z</time></trkpt><trkpt lat="41.020116448709366" lon="14.056305457198196"><ele>5.0</ele><time>2026-04-26T09:49:11.999Z</time></trkpt><trkpt lat="41.02004092314687" lon="14.056073467096397"><ele>4.333333333333334</ele><time>2026-04-26T09:49:12.999Z</time></trkpt><trkpt lat="41.01996709387728" lon="14.055845746680324"><ele>3.666666666666667</ele><time>2026-04-26T09:49:13.999Z</time></trkpt><trkpt lat="41.01989402796204" lon="14.055616795899015"><ele>3.0</ele><time>2026-04-26T09:49:14.999Z</time></trkpt><trkpt lat="41.01982028919406" lon="14.055387350094184"><ele>2.6666666666666665</ele><time>2026-04-26T09:49:15.999Z</time></trkpt><trkpt lat="41.01974747411833" lon="14.055161021700158"><ele>2.333333333333333</ele><time>2026-04-26T09:49:16.999Z</time></trkpt><trkpt lat="41.01967454383703" lon="14.054935628438054"><ele>2.0</ele><time>2026-04-26T09:49:17.999Z</time></trkpt><trkpt lat="41.019607278369826" lon="14.054711526306646"><ele>2.0</ele><time>2026-04-26T09:49:18.999Z</time></trkpt><trkpt lat="41.019543621851575" lon="14.054486955311997"><ele>2.0</ele><time>2026-04-26T09:49:19.999Z</time></trkpt><trkpt lat="41.01948554127623" lon="14.05426524676764"><ele>2.0</ele><time>2026-04-26T09:49:20.999Z</time></trkpt><trkpt lat="41.01942593375705" lon="14.054040838722443"><ele>2.0</ele><time>2026-04-26T09:49:21.999Z</time></trkpt><trkpt lat="41.01937495422444" lon="14.0538204342066"><ele>2.0</ele><time>2026-04-26T09:49:22.999Z</time></trkpt><trkpt lat="41.0193249878342" lon="14.053594920224402"><ele>2.0</ele><time>2026-04-26T09:49:23.999Z</time></trkpt><trkpt lat="41.01928141961587" lon="14.053375085597828"><ele>2.0</ele><time>2026-04-26T09:49:24.999Z</time></trkpt><trkpt lat="41.01923918924511" lon="14.053149261948684"><ele>2.0</ele><time>2026-04-26T09:49:25.999Z</time></trkpt><trkpt lat="41.019195385423174" lon="14.052920079846542"><ele>2.0</ele><time>2026-04-26T09:49:26.999Z</time></trkpt><trkpt lat="41.01915150532099" lon="14.052686989869962"><ele>1.6666666666666665</ele><time>2026-04-26T09:49:27.999Z</time></trkpt><trkpt lat="41.01912454545009" lon="14.052466308226565"><ele>1.3333333333333333</ele><time>2026-04-26T09:49:28.999Z</time></trkpt><trkpt lat="41.01909836102387" lon="14.052229139639593"><ele>1.0</ele><time>2026-04-26T09:49:29.999Z</time></trkpt><trkpt lat="41.01907546556038" lon="14.051991284670823"><ele>1.0</ele><time>2026-04-26T09:49:30.999Z</time></trkpt><trkpt lat="41.01904440311202" lon="14.051748144348513"><ele>1.0</ele><time>2026-04-26T09:49:31.999Z</time></trkpt><trkpt lat="41.01902267374445" lon="14.051505547659248"><ele>1.0</ele><time>2026-04-26T09:49:32.999Z</time></trkpt><trkpt lat="41.019004354904766" lon="14.051266361823005"><ele>0.6666666666666666</ele><time>2026-04-26T09:49:33.999Z</time></trkpt><trkpt lat="41.018991487662014" lon="14.05102295684487"><ele>0.3333333333333333</ele><time>2026-04-26T09:49:34.999Z</time></trkpt><trkpt lat="41.01897303161217" lon="14.050779199982163"><ele>0.0</ele><time>2026-04-26T09:49:35.999Z</time></trkpt><trkpt lat="41.01895257676528" lon="14.050534227643267"><ele>0.0</ele><time>2026-04-26T09:49:36.999Z</time></trkpt><trkpt lat="41.01893608961448" lon="14.050287040256414"><ele>0.0</ele><time>2026-04-26T09:49:37.999Z</time></trkpt><trkpt lat="41.018915587858814" lon="14.050041745606622"><ele>0.0</ele><time>2026-04-26T09:49:38.999Z</time></trkpt><trkpt lat="41.01889524815706" lon="14.049791293540277"><ele>0.3333333333333333</ele><time>2026-04-26T09:49:39.999Z</time></trkpt><trkpt lat="41.018878359471636" lon="14.049542564316166"><ele>0.6666666666666666</ele><time>2026-04-26T09:49:40.999Z</time></trkpt><trkpt lat="41.018862641453524" lon="14.049293384247768"><ele>1.0</ele><time>2026-04-26T09:49:41.999Z</time></trkpt><trkpt lat="41.018845928322804" lon="14.049038589368093"><ele>1.0</ele><time>2026-04-26T09:49:42.999Z</time></trkpt><trkpt lat="41.01882851227757" lon="14.048786861378995"><ele>1.0</ele><time>2026-04-26T09:49:43.999Z</time></trkpt><trkpt lat="41.01881025251798" lon="14.048535898418075"><ele>1.0</ele><time>2026-04-26T09:49:44.999Z</time></trkpt><trkpt lat="41.01879328910123" lon="14.048279866697463"><ele>1.3333333333333333</ele><time>2026-04-26T09:49:45.999Z</time></trkpt><trkpt lat="41.018779596759884" lon="14.048032807352403"><ele>1.6666666666666665</ele><time>2026-04-26T09:49:46.999Z</time></trkpt><trkpt lat="41.01876237305319" lon="14.047788821819788"><ele>2.0</ele><time>2026-04-26T09:49:47.999Z</time></trkpt><trkpt lat="41.018740674871175" lon="14.04754295742389"><ele>1.6666666666666665</ele><time>2026-04-26T09:49:48.999Z</time></trkpt><trkpt lat="41.018720605134355" lon="14.047297842789327"><ele>1.3333333333333333</ele><time>2026-04-26T09:49:49.999Z</time></trkpt><trkpt lat="41.018703613259206" lon="14.047053053656736"><ele>1.0</ele><time>2026-04-26T09:49:50.999Z</time></trkpt><trkpt lat="41.01869028829671" lon="14.046815154467426"><ele>1.3333333333333333</ele><time>2026-04-26T09:49:51.999Z</time></trkpt><trkpt lat="41.0186729005429" lon="14.046572854365559"><ele>1.6666666666666665</ele><time>2026-04-26T09:49:52.999Z</time></trkpt><trkpt lat="41.01865409482466" lon="14.046337913993357"><ele>2.0</ele><time>2026-04-26T09:49:53.999Z</time></trkpt><trkpt lat="41.01863545333721" lon="14.046095670991305"><ele>2.0</ele><time>2026-04-26T09:49:54.999Z</time></trkpt><trkpt lat="41.01861683844307" lon="14.04585353395858"><ele>2.0</ele><time>2026-04-26T09:49:55.999Z</time></trkpt><trkpt lat="41.01859569786464" lon="14.045598765272244"><ele>2.0</ele><time>2026-04-26T09:49:56.999Z</time></trkpt><trkpt lat="41.01857952864976" lon="14.045326461818147"><ele>2.0</ele><time>2026-04-26T09:49:57.999Z</time></trkpt><trkpt lat="41.018558286435855" lon="14.04504154894209"><ele>2.0</ele><time>2026-04-26T09:49:58.999Z</time></trkpt><trkpt lat="41.01853617966924" lon="14.044745866789265"><ele>2.0</ele><time>2026-04-26T09:49:59.999Z</time></trkpt><trkpt lat="41.018514472496776" lon="14.044431889598068"><ele>2.0</ele><time>2026-04-26T09:50:00.999Z</time></trkpt><trkpt lat="41.0184887958039" lon="14.044106047031962"><ele>2.0</ele><time>2026-04-26T09:50:01.999Z</time></trkpt><trkpt lat="41.01846965852277" lon="14.043795490916185"><ele>2.0</ele><time>2026-04-26T09:50:02.999Z</time></trkpt><trkpt lat="41.01844435834006" lon="14.043501784372843"><ele>2.0</ele><time>2026-04-26T09:50:03.999Z</time></trkpt><trkpt lat="41.01842472171928" lon="14.043230586138574"><ele>2.0</ele><time>2026-04-26T09:50:04.999Z</time></trkpt><trkpt lat="41.018404181496294" lon="14.042959419505145"><ele>1.3333333333333333</ele><time>2026-04-26T09:50:05.999Z</time></trkpt><trkpt lat="41.01838493768816" lon="14.042691878483698"><ele>0.6666666666666666</ele><time>2026-04-26T09:50:06.998Z</time></trkpt><trkpt lat="41.018370083466415" lon="14.042429302411238"><ele>0.0</ele><time>2026-04-26T09:50:07.998Z</time></trkpt><trkpt lat="41.018351140125176" lon="14.04217012664409"><ele>0.0</ele><time>2026-04-26T09:50:08.998Z</time></trkpt><trkpt lat="41.01833099733024" lon="14.041911749276228"><ele>0.0</ele><time>2026-04-26T09:50:09.998Z</time></trkpt><trkpt lat="41.018315773284115" lon="14.041656667487546"><ele>0.0</ele><time>2026-04-26T09:50:10.998Z</time></trkpt><trkpt lat="41.018296321181154" lon="14.041402470809622"><ele>0.0</ele><time>2026-04-26T09:50:11.998Z</time></trkpt><trkpt lat="41.018279816745064" lon="14.041149622653016"><ele>0.0</ele><time>2026-04-26T09:50:12.998Z</time></trkpt><trkpt lat="41.01826150908332" lon="14.040898422928267"><ele>0.0</ele><time>2026-04-26T09:50:13.998Z</time></trkpt><trkpt lat="41.018243888642864" lon="14.040645171227997"><ele>0.0</ele><time>2026-04-26T09:50:14.998Z</time></trkpt><trkpt lat="41.01822203996221" lon="14.04039124697074"><ele>0.0</ele><time>2026-04-26T09:50:15.998Z</time></trkpt><trkpt lat="41.01820593189508" lon="14.040134684128423"><ele>0.0</ele><time>2026-04-26T09:50:16.998Z</time></trkpt><trkpt lat="41.01818764363736" lon="14.03988488469804"><ele>0.0</ele><time>2026-04-26T09:50:17.998Z</time></trkpt><trkpt lat="41.018170259751344" lon="14.039629804578473"><ele>0.0</ele><time>2026-04-26T09:50:18.998Z</time></trkpt><trkpt lat="41.01815338252842" lon="14.039377186306062"><ele>0.0</ele><time>2026-04-26T09:50:19.998Z</time></trkpt><trkpt lat="41.018129568898566" lon="14.039121864334712"><ele>0.3333333333333333</ele><time>2026-04-26T09:50:20.998Z</time></trkpt><trkpt lat="41.0181002732071" lon="14.038866649594967"><ele>0.6666666666666666</ele><time>2026-04-26T09:50:21.998Z</time></trkpt><trkpt lat="41.01806731863748" lon="14.038620267881333"><ele>1.0</ele><time>2026-04-26T09:50:22.998Z</time></trkpt><trkpt lat="41.0180293045646" lon="14.038375004813487"><ele>0.3333333333333333</ele><time>2026-04-26T09:50:23.998Z</time></trkpt><trkpt lat="41.01798074919089" lon="14.038129158967834"><ele>-0.3333333333333333</ele><time>2026-04-26T09:50:24.998Z</time></trkpt><trkpt lat="41.017930971968504" lon="14.037890737131653"><ele>-1.0</ele><time>2026-04-26T09:50:25.998Z</time></trkpt><trkpt lat="41.0178707867502" lon="14.037647618625288"><ele>-0.6666666666666666</ele><time>2026-04-26T09:50:26.998Z</time></trkpt><trkpt lat="41.01781380475467" lon="14.037407249008107"><ele>-0.3333333333333333</ele><time>2026-04-26T09:50:27.998Z</time></trkpt><trkpt lat="41.01775011327456" lon="14.037164516320896"><ele>0.0</ele><time>2026-04-26T09:50:28.998Z</time></trkpt><trkpt lat="41.01767770255499" lon="14.03692677189302"><ele>0.0</ele><time>2026-04-26T09:50:29.998Z</time></trkpt><trkpt lat="41.01760237249087" lon="14.03669406274049"><ele>0.0</ele><time>2026-04-26T09:50:30.998Z</time></trkpt><trkpt lat="41.01752333816421" lon="14.03646120059247"><ele>0.0</ele><time>2026-04-26T09:50:31.998Z</time></trkpt><trkpt lat="41.01744125617669" lon="14.036235219170393"><ele>0.0</ele><time>2026-04-26T09:50:32.998Z</time></trkpt><trkpt lat="41.017351418674885" lon="14.036011040486489"><ele>0.0</ele><time>2026-04-26T09:50:33.998Z</time></trkpt><trkpt lat="41.01726027513947" lon="14.035789282370615"><ele>0.0</ele><time>2026-04-26T09:50:34.998Z</time></trkpt><trkpt lat="41.017162231723525" lon="14.03557707048769"><ele>-0.3333333333333333</ele><time>2026-04-26T09:50:35.998Z</time></trkpt><trkpt lat="41.017057224549184" lon="14.03536845066628"><ele>-0.6666666666666666</ele><time>2026-04-26T09:50:36.998Z</time></trkpt><trkpt lat="41.01695113348181" lon="14.035164258692195"><ele>-1.0</ele><time>2026-04-26T09:50:37.998Z</time></trkpt><trkpt lat="41.01684030544084" lon="14.034960888292812"><ele>-0.6666666666666666</ele><time>2026-04-26T09:50:38.998Z</time></trkpt><trkpt lat="41.016733742927194" lon="14.034759493036233"><ele>-0.3333333333333333</ele><time>2026-04-26T09:50:39.998Z</time></trkpt><trkpt lat="41.01661655788934" lon="14.034558339763926"><ele>0.0</ele><time>2026-04-26T09:50:40.998Z</time></trkpt><trkpt lat="41.01650849186386" lon="14.03434801031753"><ele>0.0</ele><time>2026-04-26T09:50:41.998Z</time></trkpt><trkpt lat="41.01640004442107" lon="14.034141372747124"><ele>0.0</ele><time>2026-04-26T09:50:42.998Z</time></trkpt><trkpt lat="41.016292258233335" lon="14.033932308619267"><ele>0.0</ele><time>2026-04-26T09:50:43.998Z</time></trkpt><trkpt lat="41.01617738112035" lon="14.033726181102711"><ele>0.0</ele><time>2026-04-26T09:50:44.998Z</time></trkpt><trkpt lat="41.016072104928746" lon="14.033518361277636"><ele>0.0</ele><time>2026-04-26T09:50:45.998Z</time></trkpt><trkpt lat="41.015959846622174" lon="14.033312088082845"><ele>0.0</ele><time>2026-04-26T09:50:46.999Z</time></trkpt><trkpt lat="41.015847538556095" lon="14.033106253649038"><ele>-0.3333333333333333</ele><time>2026-04-26T09:50:47.999Z</time></trkpt><trkpt lat="41.01573800646163" lon="14.03290325786939"><ele>-0.6666666666666666</ele><time>2026-04-26T09:50:48.999Z</time></trkpt><trkpt lat="41.015626359098086" lon="14.032700508224037"><ele>-1.0</ele><time>2026-04-26T09:50:49.999Z</time></trkpt><trkpt lat="41.01551592290865" lon="14.032497232294102"><ele>-0.6666666666666666</ele><time>2026-04-26T09:50:51Z</time></trkpt><trkpt lat="41.015398598846275" lon="14.0322904916791"><ele>-0.3333333333333333</ele><time>2026-04-26T09:50:52Z</time></trkpt><trkpt lat="41.01529078849407" lon="14.032078633277088"><ele>0.0</ele><time>2026-04-26T09:50:53Z</time></trkpt><trkpt lat="41.01517477683803" lon="14.031869081463283"><ele>0.0</ele><time>2026-04-26T09:50:54Z</time></trkpt><trkpt lat="41.01506139816735" lon="14.031660451824969"><ele>0.0</ele><time>2026-04-26T09:50:55Z</time></trkpt><trkpt lat="41.01495202901905" lon="14.03145194026966"><ele>0.0</ele><time>2026-04-26T09:50:56Z</time></trkpt><trkpt lat="41.01483946848939" lon="14.031246387214752"><ele>0.0</ele><time>2026-04-26T09:50:57Z</time></trkpt><trkpt lat="41.01472401197344" lon="14.031040352828114"><ele>0.0</ele><time>2026-04-26T09:50:58Z</time></trkpt><trkpt lat="41.014614773748164" lon="14.03083371377715"><ele>0.0</ele><time>2026-04-26T09:50:59Z</time></trkpt><trkpt lat="41.01449841458288" lon="14.030632258304092"><ele>0.0</ele><time>2026-04-26T09:51:00Z</time></trkpt><trkpt lat="41.01438028175575" lon="14.030430064853334"><ele>0.0</ele><time>2026-04-26T09:51:01Z</time></trkpt><trkpt lat="41.01425816084315" lon="14.030232803494366"><ele>0.0</ele><time>2026-04-26T09:51:02Z</time></trkpt><trkpt lat="41.0141341502243" lon="14.030038255436981"><ele>0.0</ele><time>2026-04-26T09:51:03Z</time></trkpt><trkpt lat="41.01400356538322" lon="14.029845786240843"><ele>0.0</ele><time>2026-04-26T09:51:04Z</time></trkpt><trkpt lat="41.013872206441995" lon="14.02966003434716"><ele>0.0</ele><time>2026-04-26T09:51:05Z</time></trkpt><trkpt lat="41.01373261463576" lon="14.029471749970428"><ele>0.0</ele><time>2026-04-26T09:51:06Z</time></trkpt><trkpt lat="41.01358855742662" lon="14.02929888517998"><ele>0.0</ele><time>2026-04-26T09:51:07Z</time></trkpt><trkpt lat="41.01344095897944" lon="14.029133429298989"><ele>0.0</ele><time>2026-04-26T09:51:08Z</time></trkpt><trkpt lat="41.0132896576479" lon="14.028976189064133"><ele>0.0</ele><time>2026-04-26T09:51:09Z</time></trkpt><trkpt lat="41.0131325675908" lon="14.028819216560139"><ele>0.0</ele><time>2026-04-26T09:51:10Z</time></trkpt><trkpt lat="41.01298128392904" lon="14.028676931213877"><ele>0.0</ele><time>2026-04-26T09:51:11Z</time></trkpt><trkpt lat="41.01282026093233" lon="14.028541309561458"><ele>0.0</ele><time>2026-04-26T09:51:12Z</time></trkpt><trkpt lat="41.01266590472862" lon="14.028411793644372"><ele>0.0</ele><time>2026-04-26T09:51:13Z</time></trkpt><trkpt lat="41.01250775772368" lon="14.028286891575432"><ele>0.0</ele><time>2026-04-26T09:51:14Z</time></trkpt><trkpt lat="41.012347519890206" lon="14.028165687390043"><ele>-0.3333333333333333</ele><time>2026-04-26T09:51:15Z</time></trkpt><trkpt lat="41.012177006382295" lon="14.028063330847798"><ele>-0.6666666666666666</ele><time>2026-04-26T09:51:16Z</time></trkpt><trkpt lat="41.01201992522999" lon="14.027940759741378"><ele>-1.0</ele><time>2026-04-26T09:51:17Z</time></trkpt><trkpt lat="41.011855805482725" lon="14.02782717073359"><ele>-1.0</ele><time>2026-04-26T09:51:18Z</time></trkpt><trkpt lat="41.0116896116656" lon="14.027717651272834"><ele>-1.0</ele><time>2026-04-26T09:51:18.999Z</time></trkpt><trkpt lat="41.011523063814785" lon="14.027605933704669"><ele>-1.0</ele><time>2026-04-26T09:51:19.999Z</time></trkpt><trkpt lat="41.01136034150596" lon="14.027490536238886"><ele>-0.6666666666666666</ele><time>2026-04-26T09:51:20.999Z</time></trkpt><trkpt lat="41.01119516904129" lon="14.02737439161114"><ele>-0.3333333333333333</ele><time>2026-04-26T09:51:21.999Z</time></trkpt><trkpt lat="41.01103196305811" lon="14.027262346745964"><ele>0.0</ele><time>2026-04-26T09:51:22.999Z</time></trkpt><trkpt lat="41.01086544284357" lon="14.027149453349685"><ele>1.3333333333333333</ele><time>2026-04-26T09:51:23.999Z</time></trkpt><trkpt lat="41.010703798994534" lon="14.027033323866508"><ele>2.6666666666666665</ele><time>2026-04-26T09:51:24.999Z</time></trkpt><trkpt lat="41.010546898485444" lon="14.026911411710303"><ele>4.0</ele><time>2026-04-26T09:51:25.999Z</time></trkpt><trkpt lat="41.010394659117594" lon="14.026782431369403"><ele>4.0</ele><time>2026-04-26T09:51:26.999Z</time></trkpt><trkpt lat="41.010244956371" lon="14.026647850738803"><ele>4.0</ele><time>2026-04-26T09:51:27.999Z</time></trkpt><trkpt lat="41.0100937704042" lon="14.026510725458463"><ele>4.0</ele><time>2026-04-26T09:51:28.999Z</time></trkpt><trkpt lat="41.00994652084083" lon="14.026365516369188"><ele>4.0</ele><time>2026-04-26T09:51:29.999Z</time></trkpt><trkpt lat="41.00980270276148" lon="14.026212956021324"><ele>4.0</ele><time>2026-04-26T09:51:30.999Z</time></trkpt><trkpt lat="41.009664728254" lon="14.026056297774726"><ele>4.0</ele><time>2026-04-26T09:51:31.999Z</time></trkpt><trkpt lat="41.00952659161713" lon="14.02589100240202"><ele>3.333333333333333</ele><time>2026-04-26T09:51:32.999Z</time></trkpt><trkpt lat="41.009397799835526" lon="14.025720108590178"><ele>2.6666666666666665</ele><time>2026-04-26T09:51:33.999Z</time></trkpt><trkpt lat="41.009267028492644" lon="14.02554423612589"><ele>2.0</ele><time>2026-04-26T09:51:34.999Z</time></trkpt><trkpt lat="41.009139937510845" lon="14.025362620939529"><ele>1.6666666666666665</ele><time>2026-04-26T09:51:35.999Z</time></trkpt><trkpt lat="41.00902241779242" lon="14.025173300720065"><ele>1.3333333333333333</ele><time>2026-04-26T09:51:36.999Z</time></trkpt><trkpt lat="41.00890512305648" lon="14.024970904030596"><ele>1.0</ele><time>2026-04-26T09:51:37.999Z</time></trkpt><trkpt lat="41.008788208274495" lon="14.024769895619423"><ele>1.0</ele><time>2026-04-26T09:51:38.999Z</time></trkpt><trkpt lat="41.008677729805946" lon="14.02456072744847"><ele>1.0</ele><time>2026-04-26T09:51:39.999Z</time></trkpt><trkpt lat="41.00857079019955" lon="14.024345715183163"><ele>1.0</ele><time>2026-04-26T09:51:40.999Z</time></trkpt><trkpt lat="41.00846816157379" lon="14.024126874491339"><ele>1.0</ele><time>2026-04-26T09:51:41.999Z</time></trkpt><trkpt lat="41.00837296303392" lon="14.023903626932137"><ele>1.0</ele><time>2026-04-26T09:51:42.999Z</time></trkpt><trkpt lat="41.00828839452992" lon="14.023677711940111"><ele>1.0</ele><time>2026-04-26T09:51:43.999Z</time></trkpt><trkpt lat="41.00820906726679" lon="14.02344635824739"><ele>0.6666666666666666</ele><time>2026-04-26T09:51:44.999Z</time></trkpt><trkpt lat="41.008131163496095" lon="14.023201453295165"><ele>0.3333333333333333</ele><time>2026-04-26T09:51:45.999Z</time></trkpt><trkpt lat="41.00806331996904" lon="14.022963205736593"><ele>0.0</ele><time>2026-04-26T09:51:46.999Z</time></trkpt><trkpt lat="41.00800028803029" lon="14.022728608738296"><ele>0.0</ele><time>2026-04-26T09:51:47.999Z</time></trkpt><trkpt lat="41.0079428360846" lon="14.02249767071876"><ele>0.0</ele><time>2026-04-26T09:51:48.999Z</time></trkpt><trkpt lat="41.007891738382426" lon="14.022266543048271"><ele>0.0</ele><time>2026-04-26T09:51:49.999Z</time></trkpt><trkpt lat="41.007845674230026" lon="14.022036760631972"><ele>-0.3333333333333333</ele><time>2026-04-26T09:51:50.999Z</time></trkpt><trkpt lat="41.00780342262723" lon="14.021802546076295"><ele>-0.6666666666666666</ele><time>2026-04-26T09:51:51.999Z</time></trkpt><trkpt lat="41.00776703824667" lon="14.021571820937401"><ele>-1.0</ele><time>2026-04-26T09:51:52.999Z</time></trkpt><trkpt lat="41.00772714199953" lon="14.02134483964983"><ele>-0.6666666666666666</ele><time>2026-04-26T09:51:53.999Z</time></trkpt><trkpt lat="41.00769384789509" lon="14.021111580081605"><ele>-0.3333333333333333</ele><time>2026-04-26T09:51:54.999Z</time></trkpt><trkpt lat="41.00765970490537" lon="14.020881408321895"><ele>0.0</ele><time>2026-04-26T09:51:55.999Z</time></trkpt><trkpt lat="41.00762454909873" lon="14.020654936990503"><ele>0.0</ele><time>2026-04-26T09:51:56.999Z</time></trkpt><trkpt lat="41.00759076523113" lon="14.020425986775289"><ele>0.0</ele><time>2026-04-26T09:51:57.999Z</time></trkpt><trkpt lat="41.00755014236322" lon="14.02020484543517"><ele>0.0</ele><time>2026-04-26T09:51:58.999Z</time></trkpt><trkpt lat="41.007506262614946" lon="14.019986707171654"><ele>-0.6666666666666666</ele><time>2026-04-26T09:51:59.999Z</time></trkpt><trkpt lat="41.00746003323935" lon="14.019771937298225"><ele>-1.3333333333333333</ele><time>2026-04-26T09:52:00.999Z</time></trkpt><trkpt lat="41.00741113282599" lon="14.019562809570479"><ele>-2.0</ele><time>2026-04-26T09:52:01.999Z</time></trkpt><trkpt lat="41.00735735856446" lon="14.019350525561482"><ele>-1.0</ele><time>2026-04-26T09:52:02.999Z</time></trkpt><trkpt lat="41.00730105188032" lon="14.01914411045637"><ele>0.0</ele><time>2026-04-26T09:52:03.999Z</time></trkpt><trkpt lat="41.007236413346575" lon="14.018942589347434"><ele>1.0</ele><time>2026-04-26T09:52:04.999Z</time></trkpt><trkpt lat="41.00716688688872" lon="14.018742316468149"><ele>1.0</ele><time>2026-04-26T09:52:05.999Z</time></trkpt><trkpt lat="41.007099448536465" lon="14.018540631152092"><ele>1.0</ele><time>2026-04-26T09:52:06.999Z</time></trkpt><trkpt lat="41.007028789275914" lon="14.018341640896896"><ele>1.0</ele><time>2026-04-26T09:52:07.999Z</time></trkpt><trkpt lat="41.00695274907006" lon="14.018140115685682"><ele>1.6666666666666665</ele><time>2026-04-26T09:52:08.999Z</time></trkpt><trkpt lat="41.00687620787356" lon="14.01793717889869"><ele>2.3333333333333335</ele><time>2026-04-26T09:52:09.999Z</time></trkpt><trkpt lat="41.00680146565752" lon="14.017740977555782"><ele>3.0</ele><time>2026-04-26T09:52:10.999Z</time></trkpt><trkpt lat="41.006722179836785" lon="14.017538954054361"><ele>2.3333333333333335</ele><time>2026-04-26T09:52:11.999Z</time></trkpt><trkpt lat="41.00664391641439" lon="14.017334809740824"><ele>1.6666666666666665</ele><time>2026-04-26T09:52:12.999Z</time></trkpt><trkpt lat="41.00656777063845" lon="14.017132960921879"><ele>1.0</ele><time>2026-04-26T09:52:13.999Z</time></trkpt><trkpt lat="41.00649146968749" lon="14.016924979962122"><ele>1.0</ele><time>2026-04-26T09:52:14.999Z</time></trkpt><trkpt lat="41.006418142814155" lon="14.016719894251255"><ele>1.0</ele><time>2026-04-26T09:52:15.999Z</time></trkpt><trkpt lat="41.00634236670565" lon="14.016513098563896"><ele>1.0</ele><time>2026-04-26T09:52:16.999Z</time></trkpt><trkpt lat="41.006268058611134" lon="14.016304747052693"><ele>1.6666666666666665</ele><time>2026-04-26T09:52:17.999Z</time></trkpt><trkpt lat="41.006193412638375" lon="14.016104420975443"><ele>2.3333333333333335</ele><time>2026-04-26T09:52:18.999Z</time></trkpt><trkpt lat="41.00611773289009" lon="14.015900116243381"><ele>3.0</ele><time>2026-04-26T09:52:19.999Z</time></trkpt><trkpt lat="41.00604192700991" lon="14.015692694686738"><ele>3.333333333333333</ele><time>2026-04-26T09:52:20.999Z</time></trkpt><trkpt lat="41.0059677201587" lon="14.0154876638226"><ele>3.6666666666666665</ele><time>2026-04-26T09:52:21.999Z</time></trkpt><trkpt lat="41.00589207480043" lon="14.015284764757121"><ele>4.0</ele><time>2026-04-26T09:52:22.999Z</time></trkpt><trkpt lat="41.00581865155342" lon="14.015080855702879"><ele>2.6666666666666665</ele><time>2026-04-26T09:52:23.999Z</time></trkpt><trkpt lat="41.005749934690236" lon="14.014875043484254"><ele>1.3333333333333333</ele><time>2026-04-26T09:52:24.999Z</time></trkpt><trkpt lat="41.00568289524272" lon="14.01466904785341"><ele>0.0</ele><time>2026-04-26T09:52:25.999Z</time></trkpt><trkpt lat="41.00560699628281" lon="14.014456087454063"><ele>0.0</ele><time>2026-04-26T09:52:26.999Z</time></trkpt><trkpt lat="41.00554413672547" lon="14.014253038127123"><ele>0.0</ele><time>2026-04-26T09:52:27.999Z</time></trkpt><trkpt lat="41.005478068277576" lon="14.014040928344928"><ele>0.0</ele><time>2026-04-26T09:52:28.999Z</time></trkpt><trkpt lat="41.005411190374694" lon="14.013831701408195"><ele>0.6666666666666666</ele><time>2026-04-26T09:52:29.999Z</time></trkpt><trkpt lat="41.005341567099954" lon="14.013618495911064"><ele>1.3333333333333333</ele><time>2026-04-26T09:52:30.999Z</time></trkpt><trkpt lat="41.005274729808235" lon="14.013405265147318"><ele>2.0</ele><time>2026-04-26T09:52:31.999Z</time></trkpt><trkpt lat="41.005206761011024" lon="14.01318856265819"><ele>2.0</ele><time>2026-04-26T09:52:32.999Z</time></trkpt><trkpt lat="41.0051420935235" lon="14.012969231971681"><ele>2.0</ele><time>2026-04-26T09:52:33.999Z</time></trkpt><trkpt lat="41.00507644064478" lon="14.01275737207659"><ele>2.0</ele><time>2026-04-26T09:52:34.999Z</time></trkpt><trkpt lat="41.00501252051234" lon="14.012549000335639"><ele>2.333333333333333</ele><time>2026-04-26T09:52:35.999Z</time></trkpt><trkpt lat="41.00494375618491" lon="14.01233555014526"><ele>2.6666666666666665</ele><time>2026-04-26T09:52:36.999Z</time></trkpt><trkpt lat="41.00487923785637" lon="14.012127821534996"><ele>3.0</ele><time>2026-04-26T09:52:37.999Z</time></trkpt><trkpt lat="41.00481481903236" lon="14.011917105058368"><ele>3.0</ele><time>2026-04-26T09:52:38.999Z</time></trkpt><trkpt lat="41.00475487532856" lon="14.011710584099761"><ele>3.0</ele><time>2026-04-26T09:52:39.998Z</time></trkpt><trkpt lat="41.00469678690558" lon="14.011493197694966"><ele>3.0</ele><time>2026-04-26T09:52:40.998Z</time></trkpt><trkpt lat="41.00464386361758" lon="14.011280668805544"><ele>3.0</ele><time>2026-04-26T09:52:41.998Z</time></trkpt><trkpt lat="41.00459438445822" lon="14.011062037146589"><ele>3.0</ele><time>2026-04-26T09:52:42.998Z</time></trkpt><trkpt lat="41.00455193710309" lon="14.010838887333055"><ele>3.0</ele><time>2026-04-26T09:52:43.998Z</time></trkpt><trkpt lat="41.004515665475886" lon="14.010617804407223"><ele>2.3333333333333335</ele><time>2026-04-26T09:52:44.998Z</time></trkpt><trkpt lat="41.004487283135575" lon="14.01039009708371"><ele>1.6666666666666665</ele><time>2026-04-26T09:52:45.998Z</time></trkpt><trkpt lat="41.00446941197569" lon="14.010153167228427"><ele>1.0</ele><time>2026-04-26T09:52:46.998Z</time></trkpt><trkpt lat="41.004461996711875" lon="14.009906815695777"><ele>1.0</ele><time>2026-04-26T09:52:47.998Z</time></trkpt><trkpt lat="41.004468849553675" lon="14.009649501892861"><ele>1.0</ele><time>2026-04-26T09:52:48.998Z</time></trkpt><trkpt lat="41.0044860489981" lon="14.00939112950545"><ele>1.0</ele><time>2026-04-26T09:52:49.998Z</time></trkpt><trkpt lat="41.00450870691586" lon="14.009133576650374"><ele>0.6666666666666666</ele><time>2026-04-26T09:52:50.998Z</time></trkpt><trkpt lat="41.00453965961351" lon="14.008877158233348"><ele>0.3333333333333333</ele><time>2026-04-26T09:52:51.998Z</time></trkpt><trkpt lat="41.00457353340429" lon="14.008632052558257"><ele>0.0</ele><time>2026-04-26T09:52:53Z</time></trkpt><trkpt lat="41.004606039049314" lon="14.008387244250784"><ele>0.0</ele><time>2026-04-26T09:52:54Z</time></trkpt><trkpt lat="41.004633571149164" lon="14.00815150609574"><ele>0.0</ele><time>2026-04-26T09:52:55Z</time></trkpt><trkpt lat="41.00465891142557" lon="14.007920560846879"><ele>0.0</ele><time>2026-04-26T09:52:56Z</time></trkpt><trkpt lat="41.00468371589216" lon="14.007694233114755"><ele>1.3333333333333333</ele><time>2026-04-26T09:52:57Z</time></trkpt><trkpt lat="41.004708401354435" lon="14.007471753022214"><ele>2.6666666666666665</ele><time>2026-04-26T09:52:58Z</time></trkpt><trkpt lat="41.00473632834686" lon="14.007252701629964"><ele>4.0</ele><time>2026-04-26T09:52:59Z</time></trkpt><trkpt lat="41.00477730617266" lon="14.007025365846411"><ele>4.0</ele><time>2026-04-26T09:53:00Z</time></trkpt><trkpt lat="41.00482896768886" lon="14.006800267779491"><ele>4.0</ele><time>2026-04-26T09:53:01Z</time></trkpt><trkpt lat="41.00489290855079" lon="14.006583762940886"><ele>4.0</ele><time>2026-04-26T09:53:02Z</time></trkpt><trkpt lat="41.00496834048341" lon="14.006368229904686"><ele>4.0</ele><time>2026-04-26T09:53:03Z</time></trkpt><trkpt lat="41.005047191413205" lon="14.006151176607045"><ele>4.0</ele><time>2026-04-26T09:53:04Z</time></trkpt><trkpt lat="41.005135392923044" lon="14.00594189937098"><ele>4.0</ele><time>2026-04-26T09:53:05Z</time></trkpt><trkpt lat="41.00523320588532" lon="14.0057360251351"><ele>3.333333333333333</ele><time>2026-04-26T09:53:06Z</time></trkpt><trkpt lat="41.00534166688408" lon="14.005537066831248"><ele>2.6666666666666665</ele><time>2026-04-26T09:53:07Z</time></trkpt><trkpt lat="41.00545536771243" lon="14.005351585974134"><ele>2.0</ele><time>2026-04-26T09:53:08Z</time></trkpt><trkpt lat="41.00557529028931" lon="14.00516724249911"><ele>2.333333333333333</ele><time>2026-04-26T09:53:09Z</time></trkpt><trkpt lat="41.0056987984012" lon="14.00498227129392"><ele>2.6666666666666665</ele><time>2026-04-26T09:53:10Z</time></trkpt><trkpt lat="41.0058200626206" lon="14.004795173019648"><ele>3.0</ele><time>2026-04-26T09:53:11Z</time></trkpt><trkpt lat="41.00594183733441" lon="14.004607913276647"><ele>3.0</ele><time>2026-04-26T09:53:12Z</time></trkpt><trkpt lat="41.00606173834513" lon="14.004413270994823"><ele>3.0</ele><time>2026-04-26T09:53:13Z</time></trkpt><trkpt lat="41.0061823212557" lon="14.004222684649282"><ele>3.0</ele><time>2026-04-26T09:53:14Z</time></trkpt><trkpt lat="41.00630489980069" lon="14.004037083146926"><ele>3.0</ele><time>2026-04-26T09:53:15Z</time></trkpt><trkpt lat="41.00642950612495" lon="14.003849607208934"><ele>3.0</ele><time>2026-04-26T09:53:16Z</time></trkpt><trkpt lat="41.00655071090796" lon="14.003665848226422"><ele>3.0</ele><time>2026-04-26T09:53:17Z</time></trkpt><trkpt lat="41.00667290227556" lon="14.00348350997691"><ele>2.3333333333333335</ele><time>2026-04-26T09:53:18Z</time></trkpt><trkpt lat="41.006793317958696" lon="14.00330208786135"><ele>1.6666666666666665</ele><time>2026-04-26T09:53:19Z</time></trkpt><trkpt lat="41.0069137246474" lon="14.0031191135276"><ele>1.0</ele><time>2026-04-26T09:53:20Z</time></trkpt><trkpt lat="41.00703425787969" lon="14.00292737359906"><ele>1.0</ele><time>2026-04-26T09:53:21Z</time></trkpt><trkpt lat="41.00715449116378" lon="14.002745998752292"><ele>1.0</ele><time>2026-04-26T09:53:22Z</time></trkpt><trkpt lat="41.007274884089654" lon="14.002558132725492"><ele>1.0</ele><time>2026-04-26T09:53:23Z</time></trkpt><trkpt lat="41.00739036822281" lon="14.002371626637121"><ele>1.0</ele><time>2026-04-26T09:53:24Z</time></trkpt><trkpt lat="41.00750659651838" lon="14.00218044585456"><ele>1.0</ele><time>2026-04-26T09:53:25Z</time></trkpt><trkpt lat="41.00762592536308" lon="14.001988049362534"><ele>1.0</ele><time>2026-04-26T09:53:26Z</time></trkpt><trkpt lat="41.00774123673116" lon="14.001797688800059"><ele>1.0</ele><time>2026-04-26T09:53:27Z</time></trkpt><trkpt lat="41.007857504332435" lon="14.001599612082744"><ele>1.0</ele><time>2026-04-26T09:53:28Z</time></trkpt><trkpt lat="41.0079732834963" lon="14.001399606785569"><ele>1.0</ele><time>2026-04-26T09:53:29Z</time></trkpt><trkpt lat="41.00808417846465" lon="14.001194394005472"><ele>1.0</ele><time>2026-04-26T09:53:30Z</time></trkpt><trkpt lat="41.00819369327592" lon="14.000983592524415"><ele>1.0</ele><time>2026-04-26T09:53:31Z</time></trkpt><trkpt lat="41.00830265667992" lon="14.000779573694665"><ele>1.0</ele><time>2026-04-26T09:53:32Z</time></trkpt><trkpt lat="41.00841103345935" lon="14.000567262554666"><ele>1.0</ele><time>2026-04-26T09:53:33Z</time></trkpt><trkpt lat="41.0085145101312" lon="14.000346744085528"><ele>1.0</ele><time>2026-04-26T09:53:34Z</time></trkpt><trkpt lat="41.00861844862328" lon="14.000132232384612"><ele>1.0</ele><time>2026-04-26T09:53:35Z</time></trkpt><trkpt lat="41.008721732469425" lon="13.999923865007624"><ele>1.0</ele><time>2026-04-26T09:53:36Z</time></trkpt><trkpt lat="41.00881406912378" lon="13.999728611818753"><ele>1.0</ele><time>2026-04-26T09:53:37Z</time></trkpt><trkpt lat="41.00890240898622" lon="13.999528276763028"><ele>1.0</ele><time>2026-04-26T09:53:38Z</time></trkpt><trkpt lat="41.00898790312505" lon="13.999326637084796"><ele>0.6666666666666666</ele><time>2026-04-26T09:53:39Z</time></trkpt><trkpt lat="41.00907475462964" lon="13.999123912975259"><ele>0.3333333333333333</ele><time>2026-04-26T09:53:40Z</time></trkpt><trkpt lat="41.00916065951618" lon="13.998921142838931"><ele>0.0</ele><time>2026-04-26T09:53:41Z</time></trkpt><trkpt lat="41.00924762132187" lon="13.998712263008773"><ele>0.6666666666666666</ele><time>2026-04-26T09:53:42Z</time></trkpt><trkpt lat="41.00933443134515" lon="13.998495252004046"><ele>1.3333333333333333</ele><time>2026-04-26T09:53:43Z</time></trkpt><trkpt lat="41.00941897228268" lon="13.998284230126062"><ele>2.0</ele><time>2026-04-26T09:53:44Z</time></trkpt><trkpt lat="41.00950031780508" lon="13.99806554884524"><ele>2.0</ele><time>2026-04-26T09:53:44.999Z</time></trkpt><trkpt lat="41.00957892188044" lon="13.997852890038747"><ele>2.0</ele><time>2026-04-26T09:53:45.999Z</time></trkpt><trkpt lat="41.00965462008536" lon="13.997637430747478"><ele>2.0</ele><time>2026-04-26T09:53:46.999Z</time></trkpt><trkpt lat="41.00972872295805" lon="13.997421807821777"><ele>2.333333333333333</ele><time>2026-04-26T09:53:47.999Z</time></trkpt><trkpt lat="41.00980562946383" lon="13.99719144020125"><ele>2.6666666666666665</ele><time>2026-04-26T09:53:48.999Z</time></trkpt><trkpt lat="41.00987293573804" lon="13.996987746380212"><ele>3.0</ele><time>2026-04-26T09:53:49.999Z</time></trkpt><trkpt lat="41.009930407801555" lon="13.996774729355394"><ele>2.6666666666666665</ele><time>2026-04-26T09:53:50.999Z</time></trkpt><trkpt lat="41.00999590210635" lon="13.996565051256853"><ele>2.333333333333333</ele><time>2026-04-26T09:53:51.999Z</time></trkpt><trkpt lat="41.010066803858805" lon="13.996346696351306"><ele>2.0</ele><time>2026-04-26T09:53:52.999Z</time></trkpt><trkpt lat="41.01012919287538" lon="13.99613245122106"><ele>2.0</ele><time>2026-04-26T09:53:53.999Z</time></trkpt><trkpt lat="41.01018660873302" lon="13.995909907788498"><ele>2.0</ele><time>2026-04-26T09:53:54.999Z</time></trkpt><trkpt lat="41.0102467646947" lon="13.995690818357723"><ele>2.0</ele><time>2026-04-26T09:53:55.999Z</time></trkpt><trkpt lat="41.01030663583356" lon="13.995469469365329"><ele>2.0</ele><time>2026-04-26T09:53:56.999Z</time></trkpt><trkpt lat="41.01036433114287" lon="13.995242496531453"><ele>2.0</ele><time>2026-04-26T09:53:57.999Z</time></trkpt><trkpt lat="41.01041873265619" lon="13.995015119955287"><ele>2.0</ele><time>2026-04-26T09:53:58.999Z</time></trkpt><trkpt lat="41.010470877208974" lon="13.994783738473695"><ele>2.0</ele><time>2026-04-26T09:53:59.999Z</time></trkpt><trkpt lat="41.010521488033376" lon="13.994556454323197"><ele>2.0</ele><time>2026-04-26T09:54:00.999Z</time></trkpt><trkpt lat="41.01057256402243" lon="13.994326267050567"><ele>2.0</ele><time>2026-04-26T09:54:01.999Z</time></trkpt><trkpt lat="41.01062092815614" lon="13.994091102154988"><ele>2.0</ele><time>2026-04-26T09:54:02.999Z</time></trkpt><trkpt lat="41.01066605567998" lon="13.993860731521368"><ele>2.0</ele><time>2026-04-26T09:54:03.999Z</time></trkpt><trkpt lat="41.010713738323574" lon="13.993618872447287"><ele>2.0</ele><time>2026-04-26T09:54:04.999Z</time></trkpt><trkpt lat="41.010759645108116" lon="13.993387264607716"><ele>1.6666666666666665</ele><time>2026-04-26T09:54:05.999Z</time></trkpt><trkpt lat="41.01080674601633" lon="13.993152301691486"><ele>1.3333333333333333</ele><time>2026-04-26T09:54:06.999Z</time></trkpt><trkpt lat="41.010851892293495" lon="13.992922506651807"><ele>1.0</ele><time>2026-04-26T09:54:07.999Z</time></trkpt><trkpt lat="41.01089653221588" lon="13.992692781334567"><ele>1.3333333333333333</ele><time>2026-04-26T09:54:08.999Z</time></trkpt><trkpt lat="41.0109379871865" lon="13.9924696034294"><ele>1.6666666666666665</ele><time>2026-04-26T09:54:09.999Z</time></trkpt><trkpt lat="41.01098212918054" lon="13.992243595187107"><ele>2.0</ele><time>2026-04-26T09:54:10.999Z</time></trkpt><trkpt lat="41.01102549681544" lon="13.992017254763178"><ele>2.0</ele><time>2026-04-26T09:54:11.999Z</time></trkpt><trkpt lat="41.01106990256976" lon="13.991790697123733"><ele>2.0</ele><time>2026-04-26T09:54:12.999Z</time></trkpt><trkpt lat="41.01111471694615" lon="13.991566010612521"><ele>2.0</ele><time>2026-04-26T09:54:13.999Z</time></trkpt><trkpt lat="41.01116126920552" lon="13.991339805386716"><ele>2.0</ele><time>2026-04-26T09:54:14.999Z</time></trkpt><trkpt lat="41.01121119122834" lon="13.991106874695587"><ele>2.0</ele><time>2026-04-26T09:54:15.999Z</time></trkpt><trkpt lat="41.011256643089325" lon="13.990875277649145"><ele>2.0</ele><time>2026-04-26T09:54:16.999Z</time></trkpt><trkpt lat="41.01130653457881" lon="13.990640418571868"><ele>1.6666666666666665</ele><time>2026-04-26T09:54:17.999Z</time></trkpt><trkpt lat="41.01135952777111" lon="13.990408148096021"><ele>1.3333333333333333</ele><time>2026-04-26T09:54:18.999Z</time></trkpt><trkpt lat="41.01141439116792" lon="13.990176215586262"><ele>1.0</ele><time>2026-04-26T09:54:19.999Z</time></trkpt><trkpt lat="41.011471661795845" lon="13.989948893446073"><ele>0.6666666666666666</ele><time>2026-04-26T09:54:20.999Z</time></trkpt><trkpt lat="41.011530810419096" lon="13.989718340830075"><ele>0.3333333333333333</ele><time>2026-04-26T09:54:21.999Z</time></trkpt><trkpt lat="41.0115890658446" lon="13.989488301764512"><ele>0.0</ele><time>2026-04-26T09:54:22.999Z</time></trkpt><trkpt lat="41.01164511480817" lon="13.989263159957776"><ele>0.6666666666666666</ele><time>2026-04-26T09:54:23.999Z</time></trkpt><trkpt lat="41.011707068491255" lon="13.989045685930293"><ele>1.3333333333333333</ele><time>2026-04-26T09:54:24.999Z</time></trkpt><trkpt lat="41.011774167088994" lon="13.988830570583952"><ele>2.0</ele><time>2026-04-26T09:54:25.999Z</time></trkpt><trkpt lat="41.01184598142436" lon="13.988614817339373"><ele>2.0</ele><time>2026-04-26T09:54:26.999Z</time></trkpt><trkpt lat="41.011916023539186" lon="13.988401292645225"><ele>2.0</ele><time>2026-04-26T09:54:27.999Z</time></trkpt><trkpt lat="41.01198434352457" lon="13.988197268845656"><ele>2.0</ele><time>2026-04-26T09:54:28.999Z</time></trkpt><trkpt lat="41.012055059145034" lon="13.98800626436339"><ele>2.333333333333333</ele><time>2026-04-26T09:54:29.999Z</time></trkpt><trkpt lat="41.01212783560197" lon="13.987786213498499"><ele>2.6666666666666665</ele><time>2026-04-26T09:54:30.999Z</time></trkpt><trkpt lat="41.012200753881636" lon="13.987575996943843"><ele>3.0</ele><time>2026-04-26T09:54:31.999Z</time></trkpt><trkpt lat="41.01228180887442" lon="13.987367929470574"><ele>2.3333333333333335</ele><time>2026-04-26T09:54:32.999Z</time></trkpt><trkpt lat="41.0123633632109" lon="13.987165473324715"><ele>1.6666666666666665</ele><time>2026-04-26T09:54:33.999Z</time></trkpt><trkpt lat="41.012447116879756" lon="13.986957193339661"><ele>1.0</ele><time>2026-04-26T09:54:34.999Z</time></trkpt><trkpt lat="41.01253334153949" lon="13.98674203604756"><ele>0.6666666666666666</ele><time>2026-04-26T09:54:35.999Z</time></trkpt><trkpt lat="41.012623203430834" lon="13.98653317565074"><ele>0.3333333333333333</ele><time>2026-04-26T09:54:36.999Z</time></trkpt><trkpt lat="41.01271527932609" lon="13.986327015989822"><ele>0.0</ele><time>2026-04-26T09:54:37.999Z</time></trkpt><trkpt lat="41.01281261838651" lon="13.986116625986215"><ele>0.0</ele><time>2026-04-26T09:54:38.999Z</time></trkpt><trkpt lat="41.01291161698757" lon="13.985918370996762"><ele>0.0</ele><time>2026-04-26T09:54:39.999Z</time></trkpt><trkpt lat="41.01301079191545" lon="13.985714141419185"><ele>0.0</ele><time>2026-04-26T09:54:40.999Z</time></trkpt><trkpt lat="41.013108982058256" lon="13.985512826932183"><ele>0.0</ele><time>2026-04-26T09:54:41.999Z</time></trkpt><trkpt lat="41.0132107683267" lon="13.985311157578245"><ele>0.0</ele><time>2026-04-26T09:54:42.999Z</time></trkpt><trkpt lat="41.01331371977068" lon="13.985114813265511"><ele>0.0</ele><time>2026-04-26T09:54:43.999Z</time></trkpt><trkpt lat="41.01341924666449" lon="13.98491755464086"><ele>0.6666666666666666</ele><time>2026-04-26T09:54:44.999Z</time></trkpt><trkpt lat="41.01352530155121" lon="13.984726904819162"><ele>1.3333333333333333</ele><time>2026-04-26T09:54:45.999Z</time></trkpt><trkpt lat="41.013632498134626" lon="13.984536756973034"><ele>2.0</ele><time>2026-04-26T09:54:46.999Z</time></trkpt><trkpt lat="41.01374213576181" lon="13.984344431558265"><ele>1.6666666666666665</ele><time>2026-04-26T09:54:47.999Z</time></trkpt><trkpt lat="41.013851772550005" lon="13.9841555117462"><ele>1.3333333333333333</ele><time>2026-04-26T09:54:48.999Z</time></trkpt><trkpt lat="41.01396556296615" lon="13.983957701140495"><ele>1.0</ele><time>2026-04-26T09:54:49.999Z</time></trkpt><trkpt lat="41.0140785256418" lon="13.98375791388659"><ele>1.0</ele><time>2026-04-26T09:54:50.999Z</time></trkpt><trkpt lat="41.01419250939773" lon="13.98355874912843"><ele>1.0</ele><time>2026-04-26T09:54:51.999Z</time></trkpt><trkpt lat="41.01431336495442" lon="13.983355725950208"><ele>1.0</ele><time>2026-04-26T09:54:52.999Z</time></trkpt><trkpt lat="41.01443319522537" lon="13.98315310678569"><ele>1.0</ele><time>2026-04-26T09:54:53.999Z</time></trkpt><trkpt lat="41.01455214572966" lon="13.982951864904393"><ele>1.0</ele><time>2026-04-26T09:54:54.999Z</time></trkpt><trkpt lat="41.014672146663784" lon="13.98275264322984"><ele>1.0</ele><time>2026-04-26T09:54:55.999Z</time></trkpt><trkpt lat="41.01479212100945" lon="13.982552150001498"><ele>1.0</ele><time>2026-04-26T09:54:56.999Z</time></trkpt><trkpt lat="41.01491103676496" lon="13.982348614905906"><ele>1.0</ele><time>2026-04-26T09:54:57.999Z</time></trkpt><trkpt lat="41.015031176354725" lon="13.982146968598054"><ele>1.0</ele><time>2026-04-26T09:54:59Z</time></trkpt><trkpt lat="41.015151852977816" lon="13.981946157162538"><ele>1.0</ele><time>2026-04-26T09:55:00Z</time></trkpt><trkpt lat="41.01526980148966" lon="13.981750685350018"><ele>1.0</ele><time>2026-04-26T09:55:01Z</time></trkpt><trkpt lat="41.015384162620705" lon="13.981555784065698"><ele>1.0</ele><time>2026-04-26T09:55:02Z</time></trkpt><trkpt lat="41.01549793169663" lon="13.981364837355502"><ele>1.0</ele><time>2026-04-26T09:55:03Z</time></trkpt><trkpt lat="41.015610288950214" lon="13.981171863064148"><ele>1.0</ele><time>2026-04-26T09:55:04Z</time></trkpt><trkpt lat="41.01572249931492" lon="13.980977822841627"><ele>1.0</ele><time>2026-04-26T09:55:05Z</time></trkpt><trkpt lat="41.01583391043625" lon="13.980784264574664"><ele>0.6666666666666666</ele><time>2026-04-26T09:55:06Z</time></trkpt><trkpt lat="41.015945159986686" lon="13.980603690579132"><ele>0.3333333333333333</ele><time>2026-04-26T09:55:07Z</time></trkpt><trkpt lat="41.016057795006475" lon="13.980423574031828"><ele>0.0</ele><time>2026-04-26T09:55:08Z</time></trkpt><trkpt lat="41.016167167994944" lon="13.980238456388832"><ele>0.0</ele><time>2026-04-26T09:55:09Z</time></trkpt><trkpt lat="41.01627603397643" lon="13.980056664621065"><ele>0.0</ele><time>2026-04-26T09:55:10Z</time></trkpt><trkpt lat="41.01638435281217" lon="13.979875402946663"><ele>0.0</ele><time>2026-04-26T09:55:11Z</time></trkpt><trkpt lat="41.01649552086622" lon="13.979693841656088"><ele>0.0</ele><time>2026-04-26T09:55:12Z</time></trkpt><trkpt lat="41.01661164392276" lon="13.979510992732319"><ele>0.0</ele><time>2026-04-26T09:55:13Z</time></trkpt><trkpt lat="41.01672718221389" lon="13.979330335181857"><ele>0.0</ele><time>2026-04-26T09:55:14Z</time></trkpt><trkpt lat="41.01683392766218" lon="13.979163242649603"><ele>-0.25</ele><time>2026-04-26T09:55:15Z</time></trkpt><trkpt lat="41.016930080301144" lon="13.979003970279004"><ele>-0.5</ele><time>2026-04-26T09:55:16Z</time></trkpt><trkpt lat="41.01701704531014" lon="13.978861820789465"><ele>-0.75</ele><time>2026-04-26T09:55:17Z</time></trkpt><trkpt lat="41.017096570548865" lon="13.978733018128363"><ele>-1.0</ele><time>2026-04-26T09:55:18Z</time></trkpt><trkpt lat="41.01717357959479" lon="13.978620905829716"><ele>-1.0</ele><time>2026-04-26T09:55:19Z</time></trkpt><trkpt lat="41.01724824414988" lon="13.978523008743718"><ele>-1.0</ele><time>2026-04-26T09:55:20Z</time></trkpt><trkpt lat="41.01733281689446" lon="13.978437103608433"><ele>-1.0</ele><time>2026-04-26T09:55:21Z</time></trkpt><trkpt lat="41.017427936370986" lon="13.978368173522815"><ele>-1.0</ele><time>2026-04-26T09:55:22Z</time></trkpt><trkpt lat="41.017538146311196" lon="13.97833431968175"><ele>-1.0</ele><time>2026-04-26T09:55:23Z</time></trkpt><trkpt lat="41.01765291461345" lon="13.978336736926847"><ele>-1.0</ele><time>2026-04-26T09:55:24Z</time></trkpt><trkpt lat="41.01777485149609" lon="13.978380254104708"><ele>-1.0</ele><time>2026-04-26T09:55:25Z</time></trkpt><trkpt lat="41.01788999331964" lon="13.978454766367712"><ele>-1.0</ele><time>2026-04-26T09:55:26Z</time></trkpt><trkpt lat="41.01799826254046" lon="13.978563885529006"><ele>-1.0</ele><time>2026-04-26T09:55:27Z</time></trkpt><trkpt lat="41.01810128573366" lon="13.97868800742026"><ele>-1.0</ele><time>2026-04-26T09:55:28Z</time></trkpt><trkpt lat="41.01819143039653" lon="13.978815495512436"><ele>-1.0</ele><time>2026-04-26T09:55:29Z</time></trkpt><trkpt lat="41.0182979595816" lon="13.978942190117904"><ele>-1.0</ele><time>2026-04-26T09:55:30Z</time></trkpt><trkpt lat="41.018384601848595" lon="13.979078481512497"><ele>-1.0</ele><time>2026-04-26T09:55:31Z</time></trkpt><trkpt lat="41.018460650476214" lon="13.979225146201356"><ele>-1.0</ele><time>2026-04-26T09:55:32Z</time></trkpt><trkpt lat="41.018528565025406" lon="13.97938250727579"><ele>-1.0</ele><time>2026-04-26T09:55:33Z</time></trkpt><trkpt lat="41.01858181114439" lon="13.979550198327514"><ele>-1.0</ele><time>2026-04-26T09:55:34Z</time></trkpt><trkpt lat="41.018619731825765" lon="13.979733044118202"><ele>-1.0</ele><time>2026-04-26T09:55:35Z</time></trkpt><trkpt lat="41.01864482909716" lon="13.979926760930994"><ele>-0.6666666666666666</ele><time>2026-04-26T09:55:36Z</time></trkpt><trkpt lat="41.01865758457223" lon="13.980130605935818"><ele>-0.3333333333333333</ele><time>2026-04-26T09:55:37Z</time></trkpt><trkpt lat="41.018652685758305" lon="13.980344399797675"><ele>0.0</ele><time>2026-04-26T09:55:38Z</time></trkpt><trkpt lat="41.018638562218726" lon="13.980559595654436"><ele>0.0</ele><time>2026-04-26T09:55:39Z</time></trkpt><trkpt lat="41.01861133985755" lon="13.980772480784399"><ele>0.0</ele><time>2026-04-26T09:55:40Z</time></trkpt><trkpt lat="41.01858937982254" lon="13.980995418195375"><ele>0.0</ele><time>2026-04-26T09:55:41Z</time></trkpt><trkpt lat="41.01856361094102" lon="13.98121349681522"><ele>0.25</ele><time>2026-04-26T09:55:42Z</time></trkpt><trkpt lat="41.018534959225114" lon="13.981414000219992"><ele>0.5</ele><time>2026-04-26T09:55:43Z</time></trkpt><trkpt lat="41.01851379230404" lon="13.981605959263172"><ele>0.75</ele><time>2026-04-26T09:55:44Z</time></trkpt><trkpt lat="41.018491724336684" lon="13.981782963552991"><ele>1.0</ele><time>2026-04-26T09:55:45Z</time></trkpt><trkpt lat="41.01847314986831" lon="13.98195468858224"><ele>1.0</ele><time>2026-04-26T09:55:46Z</time></trkpt><trkpt lat="41.01845067052202" lon="13.982110849111274"><ele>1.0</ele><time>2026-04-26T09:55:47Z</time></trkpt><trkpt lat="41.01842998113136" lon="13.98224934178568"><ele>1.0</ele><time>2026-04-26T09:55:48Z</time></trkpt><trkpt lat="41.01841239560328" lon="13.982367499473789"><ele>1.0</ele><time>2026-04-26T09:55:49Z</time></trkpt><trkpt lat="41.01839313596342" lon="13.98247007236997"><ele>1.0</ele><time>2026-04-26T09:55:50Z</time></trkpt><trkpt lat="41.018376510149594" lon="13.982563606141483"><ele>0.9999999999999999</ele><time>2026-04-26T09:55:51Z</time></trkpt><trkpt lat="41.01838846459125" lon="13.982651132762676"><ele>1.0</ele><time>2026-04-26T09:55:52Z</time></trkpt><trkpt lat="41.01830850280362" lon="13.982718810108748"><ele>1.0</ele><time>2026-04-26T09:55:52.999Z</time></trkpt><trkpt lat="41.01824967833308" lon="13.982780783470565"><ele>1.0</ele><time>2026-04-26T09:55:53.999Z</time></trkpt><trkpt lat="41.01816677049134" lon="13.98282254529734"><ele>0.9999999999999999</ele><time>2026-04-26T09:55:54.999Z</time></trkpt><trkpt lat="41.01806656611293" lon="13.982855183717454"><ele>1.0</ele><time>2026-04-26T09:55:55.999Z</time></trkpt><trkpt lat="41.017943210457936" lon="13.982871796915667"><ele>1.0</ele><time>2026-04-26T09:55:56.999Z</time></trkpt><trkpt lat="41.017811088180224" lon="13.982895273300405"><ele>1.0</ele><time>2026-04-26T09:55:57.999Z</time></trkpt><trkpt lat="41.01767326102752" lon="13.982909743656892"><ele>1.0</ele><time>2026-04-26T09:55:58.999Z</time></trkpt><trkpt lat="41.01752686110036" lon="13.98291828112973"><ele>1.0</ele><time>2026-04-26T09:55:59.999Z</time></trkpt><trkpt lat="41.01737657562092" lon="13.982925597806057"><ele>1.0</ele><time>2026-04-26T09:56:00.999Z</time></trkpt><trkpt lat="41.017228472356166" lon="13.982934134018208"><ele>1.0</ele><time>2026-04-26T09:56:01.999Z</time></trkpt><trkpt lat="41.017077854284466" lon="13.982943666286813"><ele>1.0</ele><time>2026-04-26T09:56:02.999Z</time></trkpt><trkpt lat="41.01692346265461" lon="13.982954414829273"><ele>1.0</ele><time>2026-04-26T09:56:03.999Z</time></trkpt><trkpt lat="41.01676513578524" lon="13.982964732305021"><ele>1.0</ele><time>2026-04-26T09:56:04.999Z</time></trkpt><trkpt lat="41.016605077804485" lon="13.98297221600875"><ele>1.0</ele><time>2026-04-26T09:56:05.999Z</time></trkpt><trkpt lat="41.0164474324882" lon="13.98298041662194"><ele>0.6666666666666666</ele><time>2026-04-26T09:56:06.999Z</time></trkpt><trkpt lat="41.01628910288933" lon="13.982988893176152"><ele>0.3333333333333333</ele><time>2026-04-26T09:56:07.999Z</time></trkpt><trkpt lat="41.01612793791788" lon="13.982997283052859"><ele>0.0</ele><time>2026-04-26T09:56:08.999Z</time></trkpt><trkpt lat="41.015963680963075" lon="13.983001914857525"><ele>0.3333333333333333</ele><time>2026-04-26T09:56:09.999Z</time></trkpt><trkpt lat="41.01580227244211" lon="13.983004019791947"><ele>0.6666666666666666</ele><time>2026-04-26T09:56:10.999Z</time></trkpt><trkpt lat="41.01565437509247" lon="13.983008071405413"><ele>1.0</ele><time>2026-04-26T09:56:11.999Z</time></trkpt><trkpt lat="41.01551383172517" lon="13.983008253454763"><ele>1.0</ele><time>2026-04-26T09:56:12.999Z</time></trkpt><trkpt lat="41.01537725453448" lon="13.983001066527857"><ele>1.0</ele><time>2026-04-26T09:56:13.999Z</time></trkpt><trkpt lat="41.015243451244714" lon="13.982974712942546"><ele>1.0</ele><time>2026-04-26T09:56:14.999Z</time></trkpt><trkpt lat="41.01510691387394" lon="13.982920904585518"><ele>1.0</ele><time>2026-04-26T09:56:15.999Z</time></trkpt><trkpt lat="41.014970781680624" lon="13.982841139059813"><ele>1.0</ele><time>2026-04-26T09:56:16.999Z</time></trkpt><trkpt lat="41.014837532694486" lon="13.982740519267486"><ele>1.0</ele><time>2026-04-26T09:56:17.999Z</time></trkpt><trkpt lat="41.014714316833" lon="13.98262336488958"><ele>1.0</ele><time>2026-04-26T09:56:18.999Z</time></trkpt><trkpt lat="41.01460470707082" lon="13.982489289676803"><ele>0.75</ele><time>2026-04-26T09:56:19.999Z</time></trkpt><trkpt lat="41.01450195285116" lon="13.98234217932822"><ele>0.5</ele><time>2026-04-26T09:56:20.999Z</time></trkpt><trkpt lat="41.01440539201174" lon="13.982188829609298"><ele>0.25</ele><time>2026-04-26T09:56:21.999Z</time></trkpt><trkpt lat="41.014327645603345" lon="13.982024892878405"><ele>0.0</ele><time>2026-04-26T09:56:22.999Z</time></trkpt><trkpt lat="41.01425960410692" lon="13.981849785016855"><ele>0.0</ele><time>2026-04-26T09:56:23.999Z</time></trkpt><trkpt lat="41.01419294371547" lon="13.981684689011908"><ele>0.0</ele><time>2026-04-26T09:56:24.999Z</time></trkpt><trkpt lat="41.01411525056482" lon="13.981535215868059"><ele>0.0</ele><time>2026-04-26T09:56:25.999Z</time></trkpt><trkpt lat="41.01406349221275" lon="13.981405436694043"><ele>0.0</ele><time>2026-04-26T09:56:26.999Z</time></trkpt><trkpt lat="41.01401264454381" lon="13.98129445206204"><ele>-0.16666666666666666</ele><time>2026-04-26T09:56:27.999Z</time></trkpt><trkpt lat="41.01396982993458" lon="13.981203145866738"><ele>-0.3333333333333333</ele><time>2026-04-26T09:56:28.999Z</time></trkpt><trkpt lat="41.013925562835595" lon="13.981122891301384"><ele>-0.5</ele><time>2026-04-26T09:56:29.999Z</time></trkpt><trkpt lat="41.01388394706553" lon="13.981053445548442"><ele>-0.6666666666666666</ele><time>2026-04-26T09:56:30.999Z</time></trkpt><trkpt lat="41.013825687915855" lon="13.98092911926828"><ele>-0.8333333333333333</ele><time>2026-04-26T09:56:32.999Z</time></trkpt><trkpt lat="41.01378097171322" lon="13.980816976259977"><ele>-1.0</ele><time>2026-04-26T09:56:34.999Z</time></trkpt><trkpt lat="41.01360946701486" lon="13.980862253953976"><ele>-1.0</ele><time>2026-04-26T09:56:35.999Z</time></trkpt><trkpt lat="41.013522576831036" lon="13.980852754747914"><ele>-1.0</ele><time>2026-04-26T09:56:36.999Z</time></trkpt><trkpt lat="41.013431981823665" lon="13.980842559799477"><ele>-1.0</ele><time>2026-04-26T09:56:37.999Z</time></trkpt><trkpt lat="41.01334398272551" lon="13.980821627448757"><ele>-1.0</ele><time>2026-04-26T09:56:38.999Z</time></trkpt><trkpt lat="41.01324661802095" lon="13.98080073064887"><ele>-1.0</ele><time>2026-04-26T09:56:39.999Z</time></trkpt><trkpt lat="41.0131531873368" lon="13.980780436198469"><ele>-1.0</ele><time>2026-04-26T09:56:40.999Z</time></trkpt><trkpt lat="41.01305157006615" lon="13.980758991417945"><ele>-1.0</ele><time>2026-04-26T09:56:41.999Z</time></trkpt><trkpt lat="41.012947160340474" lon="13.980741130237236"><ele>-1.0</ele><time>2026-04-26T09:56:42.999Z</time></trkpt><trkpt lat="41.01284199958935" lon="13.980719047855098"><ele>-1.0</ele><time>2026-04-26T09:56:43.999Z</time></trkpt><trkpt lat="41.01273376890063" lon="13.980690890889191"><ele>-1.0</ele><time>2026-04-26T09:56:44.999Z</time></trkpt><trkpt lat="41.012631309816285" lon="13.98066956882658"><ele>-1.0</ele><time>2026-04-26T09:56:45.999Z</time></trkpt><trkpt lat="41.01253985349126" lon="13.98064550770741"><ele>-1.0</ele><time>2026-04-26T09:56:46.999Z</time></trkpt><trkpt lat="41.01244578933322" lon="13.980607274937885"><ele>-1.0</ele><time>2026-04-26T09:56:47.999Z</time></trkpt><trkpt lat="41.012357702543866" lon="13.980553865365854"><ele>-1.0</ele><time>2026-04-26T09:56:48.999Z</time></trkpt><trkpt lat="41.01228089571717" lon="13.980501035918467"><ele>-1.0</ele><time>2026-04-26T09:56:49.999Z</time></trkpt><trkpt lat="41.012195026253465" lon="13.980449124488302"><ele>-1.0</ele><time>2026-04-26T09:56:50.999Z</time></trkpt><trkpt lat="41.01210834879054" lon="13.980396577273819"><ele>-1.0</ele><time>2026-04-26T09:56:51.999Z</time></trkpt><trkpt lat="41.012012602530824" lon="13.980349500579111"><ele>-1.0</ele><time>2026-04-26T09:56:52.999Z</time></trkpt><trkpt lat="41.01189942252384" lon="13.980321442881207"><ele>-1.0</ele><time>2026-04-26T09:56:53.999Z</time></trkpt><trkpt lat="41.01174898323125" lon="13.980276742652995"><ele>-1.0</ele><time>2026-04-26T09:56:54.999Z</time></trkpt><trkpt lat="41.011599002000686" lon="13.980242868627757"><ele>-1.0</ele><time>2026-04-26T09:56:55.999Z</time></trkpt><trkpt lat="41.011425567577504" lon="13.980206516614414"><ele>-1.0</ele><time>2026-04-26T09:56:56.999Z</time></trkpt><trkpt lat="41.01123569847192" lon="13.98016597460447"><ele>-1.0</ele><time>2026-04-26T09:56:57.999Z</time></trkpt><trkpt lat="41.01105343933291" lon="13.980138441426233"><ele>-1.0</ele><time>2026-04-26T09:56:58.999Z</time></trkpt><trkpt lat="41.01087084026478" lon="13.980090273307637"><ele>-1.0</ele><time>2026-04-26T09:56:59.999Z</time></trkpt><trkpt lat="41.01069707843082" lon="13.9800503982004"><ele>-0.6666666666666666</ele><time>2026-04-26T09:57:00.999Z</time></trkpt><trkpt lat="41.01052244938065" lon="13.980011542026311"><ele>-0.3333333333333333</ele><time>2026-04-26T09:57:01.999Z</time></trkpt><trkpt lat="41.010353886715535" lon="13.979973487458947"><ele>0.0</ele><time>2026-04-26T09:57:02.999Z</time></trkpt><trkpt lat="41.01018388875911" lon="13.979932875015582"><ele>0.0</ele><time>2026-04-26T09:57:03.999Z</time></trkpt><trkpt lat="41.01001394337089" lon="13.97988652831599"><ele>0.0</ele><time>2026-04-26T09:57:05Z</time></trkpt><trkpt lat="41.00983565178471" lon="13.979849849896718"><ele>0.0</ele><time>2026-04-26T09:57:06Z</time></trkpt><trkpt lat="41.0096554851748" lon="13.979817987684925"><ele>-0.3333333333333333</ele><time>2026-04-26T09:57:07Z</time></trkpt><trkpt lat="41.0094713684816" lon="13.979778538966958"><ele>-0.6666666666666666</ele><time>2026-04-26T09:57:08Z</time></trkpt><trkpt lat="41.009285646334874" lon="13.979733381366815"><ele>-1.0</ele><time>2026-04-26T09:57:09Z</time></trkpt><trkpt lat="41.00909303505637" lon="13.979688121332716"><ele>-0.3333333333333333</ele><time>2026-04-26T09:57:10Z</time></trkpt><trkpt lat="41.00889645152565" lon="13.979645233284907"><ele>0.3333333333333333</ele><time>2026-04-26T09:57:11Z</time></trkpt><trkpt lat="41.00870010332175" lon="13.979602013322243"><ele>1.0</ele><time>2026-04-26T09:57:12Z</time></trkpt><trkpt lat="41.00850213011804" lon="13.979558894029587"><ele>0.3333333333333333</ele><time>2026-04-26T09:57:13Z</time></trkpt><trkpt lat="41.008308254118255" lon="13.979515840105346"><ele>-0.3333333333333333</ele><time>2026-04-26T09:57:14Z</time></trkpt><trkpt lat="41.00811801492438" lon="13.979471985484968"><ele>-1.0</ele><time>2026-04-26T09:57:15Z</time></trkpt><trkpt lat="41.007924443298464" lon="13.979429139482317"><ele>-1.0</ele><time>2026-04-26T09:57:16Z</time></trkpt><trkpt lat="41.00773016886663" lon="13.979385992273912"><ele>-1.0</ele><time>2026-04-26T09:57:17Z</time></trkpt><trkpt lat="41.007541644826965" lon="13.979343889061527"><ele>-1.0</ele><time>2026-04-26T09:57:18Z</time></trkpt><trkpt lat="41.007351298686956" lon="13.979300852938207"><ele>-1.0</ele><time>2026-04-26T09:57:19Z</time></trkpt><trkpt lat="41.007155130950444" lon="13.979259593787082"><ele>-1.0</ele><time>2026-04-26T09:57:20Z</time></trkpt><trkpt lat="41.00696299434978" lon="13.979216311017714"><ele>-1.0</ele><time>2026-04-26T09:57:21Z</time></trkpt><trkpt lat="41.006771655106206" lon="13.97917280006739"><ele>-1.0</ele><time>2026-04-26T09:57:22Z</time></trkpt><trkpt lat="41.00657915352722" lon="13.979128567956213"><ele>-1.0</ele><time>2026-04-26T09:57:23Z</time></trkpt><trkpt lat="41.00638882152243" lon="13.97908603037443"><ele>-1.0</ele><time>2026-04-26T09:57:24Z</time></trkpt><trkpt lat="41.00620127849186" lon="13.979047599292985"><ele>-1.0</ele><time>2026-04-26T09:57:25Z</time></trkpt><trkpt lat="41.00603557628835" lon="13.979008178406904"><ele>-1.0</ele><time>2026-04-26T09:57:26Z</time></trkpt><trkpt lat="41.00582303861721" lon="13.978968679137607"><ele>-1.0</ele><time>2026-04-26T09:57:27Z</time></trkpt><trkpt lat="41.00563615429697" lon="13.978929716191148"><ele>-0.6666666666666666</ele><time>2026-04-26T09:57:28Z</time></trkpt><trkpt lat="41.00544622808326" lon="13.978880198655828"><ele>-0.3333333333333333</ele><time>2026-04-26T09:57:29Z</time></trkpt><trkpt lat="41.00525783788298" lon="13.97883620124275"><ele>0.0</ele><time>2026-04-26T09:57:30Z</time></trkpt><trkpt lat="41.005070474461625" lon="13.978794702644215"><ele>1.0</ele><time>2026-04-26T09:57:31Z</time></trkpt><trkpt lat="41.00488377736694" lon="13.978755765784605"><ele>2.0</ele><time>2026-04-26T09:57:32Z</time></trkpt><trkpt lat="41.00467668328817" lon="13.978731804026966"><ele>3.0</ele><time>2026-04-26T09:57:33Z</time></trkpt><trkpt lat="41.0045043417017" lon="13.978674161704324"><ele>3.0</ele><time>2026-04-26T09:57:34Z</time></trkpt><trkpt lat="41.00431445155812" lon="13.978628686698212"><ele>3.0</ele><time>2026-04-26T09:57:35Z</time></trkpt><trkpt lat="41.00412513842654" lon="13.978587875718269"><ele>3.0</ele><time>2026-04-26T09:57:36Z</time></trkpt><trkpt lat="41.00393184976759" lon="13.978544096564931"><ele>2.6666666666666665</ele><time>2026-04-26T09:57:37Z</time></trkpt><trkpt lat="41.00374214807315" lon="13.978498757646635"><ele>2.333333333333333</ele><time>2026-04-26T09:57:38Z</time></trkpt><trkpt lat="41.00355315221445" lon="13.978456295493102"><ele>2.0</ele><time>2026-04-26T09:57:39Z</time></trkpt><trkpt lat="41.00336903073785" lon="13.978416755759183"><ele>2.0</ele><time>2026-04-26T09:57:40Z</time></trkpt><trkpt lat="41.00318399329458" lon="13.978379174069019"><ele>2.0</ele><time>2026-04-26T09:57:41Z</time></trkpt><trkpt lat="41.0029984231704" lon="13.978340628707532"><ele>2.0</ele><time>2026-04-26T09:57:42Z</time></trkpt><trkpt lat="41.00281643930168" lon="13.978298432587964"><ele>1.6666666666666665</ele><time>2026-04-26T09:57:43Z</time></trkpt><trkpt lat="41.00263289804629" lon="13.978256422128972"><ele>1.3333333333333333</ele><time>2026-04-26T09:57:44Z</time></trkpt><trkpt lat="41.00245144028361" lon="13.978217706760665"><ele>1.0</ele><time>2026-04-26T09:57:45Z</time></trkpt><trkpt lat="41.00226065547435" lon="13.978180110276618"><ele>1.0</ele><time>2026-04-26T09:57:46Z</time></trkpt><trkpt lat="41.00207664005987" lon="13.978141429255036"><ele>1.0</ele><time>2026-04-26T09:57:47Z</time></trkpt><trkpt lat="41.001888601912455" lon="13.978101623630428"><ele>1.0</ele><time>2026-04-26T09:57:48Z</time></trkpt><trkpt lat="41.00169725732001" lon="13.978060749171952"><ele>1.6666666666666665</ele><time>2026-04-26T09:57:49Z</time></trkpt><trkpt lat="41.00150892283917" lon="13.978017308831935"><ele>2.3333333333333335</ele><time>2026-04-26T09:57:50Z</time></trkpt><trkpt lat="41.00131790445609" lon="13.977971686421151"><ele>3.0</ele><time>2026-04-26T09:57:51Z</time></trkpt><trkpt lat="41.001131874770124" lon="13.97792789448264"><ele>3.0</ele><time>2026-04-26T09:57:52Z</time></trkpt><trkpt lat="41.00094595896981" lon="13.977887956958876"><ele>3.0</ele><time>2026-04-26T09:57:53Z</time></trkpt><trkpt lat="41.00076863248631" lon="13.977855733011754"><ele>3.0</ele><time>2026-04-26T09:57:54Z</time></trkpt><trkpt lat="41.0005950708658" lon="13.977826268144266"><ele>3.0</ele><time>2026-04-26T09:57:55Z</time></trkpt><trkpt lat="41.000417116451025" lon="13.977787577452773"><ele>3.0</ele><time>2026-04-26T09:57:56Z</time></trkpt><trkpt lat="41.0002406771124" lon="13.977743253818955"><ele>3.0</ele><time>2026-04-26T09:57:57Z</time></trkpt><trkpt lat="41.00006266652714" lon="13.97769951969502"><ele>3.0</ele><time>2026-04-26T09:57:58Z</time></trkpt><trkpt lat="40.99988497613154" lon="13.977659157122938"><ele>3.0</ele><time>2026-04-26T09:57:59Z</time></trkpt><trkpt lat="40.999704008206585" lon="13.977619740923469"><ele>3.0</ele><time>2026-04-26T09:58:00Z</time></trkpt><trkpt lat="40.99952326180647" lon="13.977578044043343"><ele>3.0</ele><time>2026-04-26T09:58:01Z</time></trkpt><trkpt lat="40.99934836475409" lon="13.977537348208749"><ele>3.0</ele><time>2026-04-26T09:58:02Z</time></trkpt><trkpt lat="40.99916995547702" lon="13.97749764889164"><ele>3.0</ele><time>2026-04-26T09:58:03Z</time></trkpt><trkpt lat="40.99899776719902" lon="13.977466708745606"><ele>2.6666666666666665</ele><time>2026-04-26T09:58:03.999Z</time></trkpt><trkpt lat="40.99882970495586" lon="13.977432529249223"><ele>2.333333333333333</ele><time>2026-04-26T09:58:04.999Z</time></trkpt><trkpt lat="40.998675008947195" lon="13.977406327838992"><ele>2.0</ele><time>2026-04-26T09:58:05.999Z</time></trkpt><trkpt lat="40.99852671351746" lon="13.977373734158473"><ele>2.0</ele><time>2026-04-26T09:58:06.999Z</time></trkpt><trkpt lat="40.99838909214924" lon="13.977341275876816"><ele>2.0</ele><time>2026-04-26T09:58:07.999Z</time></trkpt><trkpt lat="40.99824877802778" lon="13.977305792467131"><ele>2.0</ele><time>2026-04-26T09:58:08.999Z</time></trkpt><trkpt lat="40.99810882593387" lon="13.977274300312025"><ele>2.0</ele><time>2026-04-26T09:58:09.999Z</time></trkpt><trkpt lat="40.997968941167706" lon="13.977242715117173"><ele>1.6666666666666665</ele><time>2026-04-26T09:58:10.999Z</time></trkpt><trkpt lat="40.99782799516772" lon="13.977204469829273"><ele>1.3333333333333333</ele><time>2026-04-26T09:58:11.999Z</time></trkpt><trkpt lat="40.99767946828805" lon="13.977162558779682"><ele>1.0</ele><time>2026-04-26T09:58:12.999Z</time></trkpt><trkpt lat="40.997525296580854" lon="13.977115752966311"><ele>0.6666666666666666</ele><time>2026-04-26T09:58:13.999Z</time></trkpt><trkpt lat="40.99737261613731" lon="13.977063146802829"><ele>0.3333333333333333</ele><time>2026-04-26T09:58:14.999Z</time></trkpt><trkpt lat="40.99722286770588" lon="13.977015621573871"><ele>0.0</ele><time>2026-04-26T09:58:15.999Z</time></trkpt><trkpt lat="40.997075647223475" lon="13.976971517067618"><ele>0.0</ele><time>2026-04-26T09:58:16.999Z</time></trkpt><trkpt lat="40.99694857079251" lon="13.976940301925003"><ele>0.0</ele><time>2026-04-26T09:58:17.999Z</time></trkpt><trkpt lat="40.99686782047411" lon="13.97691741593707"><ele>0.0</ele><time>2026-04-26T09:58:18.999Z</time></trkpt><trkpt lat="40.996797191988904" lon="13.97689598873017"><ele>0.0</ele><time>2026-04-26T09:58:19.999Z</time></trkpt><trkpt lat="40.99672133500535" lon="13.976869881407051"><ele>0.0</ele><time>2026-04-26T09:58:20.999Z</time></trkpt><trkpt lat="40.99664386361545" lon="13.976819988594631"><ele>0.0</ele><time>2026-04-26T09:58:21.999Z</time></trkpt><trkpt lat="40.996567782548105" lon="13.976792438483272"><ele>-0.2</ele><time>2026-04-26T09:58:22.999Z</time></trkpt><trkpt lat="40.996484488750106" lon="13.976762439083506"><ele>-0.4</ele><time>2026-04-26T09:58:23.999Z</time></trkpt><trkpt lat="40.996400583451496" lon="13.976735777590543"><ele>-0.6000000000000001</ele><time>2026-04-26T09:58:24.999Z</time></trkpt><trkpt lat="40.996307394763676" lon="13.976727663423398"><ele>-0.8</ele><time>2026-04-26T09:58:25.999Z</time></trkpt><trkpt lat="40.996212944441986" lon="13.976688179709102"><ele>-1.0</ele><time>2026-04-26T09:58:26.999Z</time></trkpt><trkpt lat="40.996109973452505" lon="13.976655792166461"><ele>-0.25</ele><time>2026-04-26T09:58:27.999Z</time></trkpt><trkpt lat="40.99599915225048" lon="13.976616043204947"><ele>0.5</ele><time>2026-04-26T09:58:28.999Z</time></trkpt><trkpt lat="40.99588939557242" lon="13.97657650507605"><ele>1.25</ele><time>2026-04-26T09:58:29.999Z</time></trkpt><trkpt lat="40.99577566666889" lon="13.976540591142706"><ele>2.0</ele><time>2026-04-26T09:58:30.999Z</time></trkpt><trkpt lat="40.99565994750899" lon="13.976511908586241"><ele>2.5</ele><time>2026-04-26T09:58:31.999Z</time></trkpt><trkpt lat="40.99555658903202" lon="13.976477618927273"><ele>3.0</ele><time>2026-04-26T09:58:32.999Z</time></trkpt><trkpt lat="40.99542475001002" lon="13.976446499185744"><ele>3.5</ele><time>2026-04-26T09:58:33.999Z</time></trkpt><trkpt lat="40.99529904123892" lon="13.976414110260212"><ele>4.0</ele><time>2026-04-26T09:58:34.999Z</time></trkpt><trkpt lat="40.99518159347085" lon="13.976381623383661"><ele>4.0</ele><time>2026-04-26T09:58:35.999Z</time></trkpt><trkpt lat="40.99505611859398" lon="13.976367370461434"><ele>4.0</ele><time>2026-04-26T09:58:36.999Z</time></trkpt><trkpt lat="40.99493965064769" lon="13.976348542467257"><ele>4.0</ele><time>2026-04-26T09:58:37.999Z</time></trkpt><trkpt lat="40.99484557586068" lon="13.976331955991695"><ele>4.0</ele><time>2026-04-26T09:58:38.999Z</time></trkpt><trkpt lat="40.994756669868835" lon="13.976314574904062"><ele>4.0</ele><time>2026-04-26T09:58:39.999Z</time></trkpt><trkpt lat="40.99466152261359" lon="13.976300810818852"><ele>3.9999999999999996</ele><time>2026-04-26T09:58:40.999Z</time></trkpt><trkpt lat="40.99456417871511" lon="13.97629317729938"><ele>4.0</ele><time>2026-04-26T09:58:41.999Z</time></trkpt><trkpt lat="40.9944716872602" lon="13.976293146227894"><ele>4.0</ele><time>2026-04-26T09:58:42.999Z</time></trkpt><trkpt lat="40.99438010006982" lon="13.976295173643818"><ele>4.0</ele><time>2026-04-26T09:58:43.999Z</time></trkpt><trkpt lat="40.99431325110605" lon="13.976292209014511"><ele>3.9999999999999996</ele><time>2026-04-26T09:58:44.999Z</time></trkpt><trkpt lat="40.99422627532102" lon="13.976297197651133"><ele>4.0</ele><time>2026-04-26T09:58:45.999Z</time></trkpt><trkpt lat="40.99411701137218" lon="13.976300578448765"><ele>4.0</ele><time>2026-04-26T09:58:46.999Z</time></trkpt><trkpt lat="40.99399455823947" lon="13.976309213732195"><ele>4.0</ele><time>2026-04-26T09:58:47.999Z</time></trkpt><trkpt lat="40.99387669599078" lon="13.976317198820828"><ele>4.0</ele><time>2026-04-26T09:58:48.999Z</time></trkpt><trkpt lat="40.99375851073041" lon="13.976325831343436"><ele>4.0</ele><time>2026-04-26T09:58:49.999Z</time></trkpt><trkpt lat="40.993630646863316" lon="13.976332931627583"><ele>4.0</ele><time>2026-04-26T09:58:50.999Z</time></trkpt><trkpt lat="40.99349437915613" lon="13.976340486506073"><ele>4.0</ele><time>2026-04-26T09:58:51.999Z</time></trkpt><trkpt lat="40.99336048773706" lon="13.976349835924875"><ele>4.0</ele><time>2026-04-26T09:58:52.999Z</time></trkpt><trkpt lat="40.99322202336125" lon="13.97636068673185"><ele>4.0</ele><time>2026-04-26T09:58:53.999Z</time></trkpt><trkpt lat="40.993081144317884" lon="13.97637385578255"><ele>3.75</ele><time>2026-04-26T09:58:54.999Z</time></trkpt><trkpt lat="40.99294039478557" lon="13.976381824357443"><ele>3.5</ele><time>2026-04-26T09:58:55.999Z</time></trkpt><trkpt lat="40.99279516760082" lon="13.97639367485237"><ele>3.25</ele><time>2026-04-26T09:58:56.999Z</time></trkpt><trkpt lat="40.99265233984715" lon="13.976405885555486"><ele>3.0</ele><time>2026-04-26T09:58:57.999Z</time></trkpt><trkpt lat="40.992515736396705" lon="13.976415270482164"><ele>3.0</ele><time>2026-04-26T09:58:58.999Z</time></trkpt><trkpt lat="40.992386424121854" lon="13.976425445658807"><ele>3.0</ele><time>2026-04-26T09:58:59.999Z</time></trkpt><trkpt lat="40.99227267306854" lon="13.976433009309565"><ele>3.0</ele><time>2026-04-26T09:59:00.999Z</time></trkpt><trkpt lat="40.99216151199509" lon="13.97644178334115"><ele>3.0</ele><time>2026-04-26T09:59:01.999Z</time></trkpt><trkpt lat="40.99205957994986" lon="13.97645075652068"><ele>3.0</ele><time>2026-04-26T09:59:02.999Z</time></trkpt><trkpt lat="40.99196184651733" lon="13.976461236291556"><ele>3.0</ele><time>2026-04-26T09:59:03.999Z</time></trkpt><trkpt lat="40.991865424377984" lon="13.976475238577699"><ele>3.0</ele><time>2026-04-26T09:59:04.999Z</time></trkpt><trkpt lat="40.99177001947994" lon="13.976477157436504"><ele>3.0</ele><time>2026-04-26T09:59:05.999Z</time></trkpt><trkpt lat="40.99168644429186" lon="13.976478471907678"><ele>3.0</ele><time>2026-04-26T09:59:06.999Z</time></trkpt><trkpt lat="40.99160833445293" lon="13.976481220230871"><ele>3.1666666666666665</ele><time>2026-04-26T09:59:07.999Z</time></trkpt><trkpt lat="40.9915098712747" lon="13.976479686753324"><ele>3.333333333333333</ele><time>2026-04-26T09:59:09.999Z</time></trkpt><trkpt lat="40.991442762330095" lon="13.976467343662678"><ele>3.5</ele><time>2026-04-26T09:59:13.001Z</time></trkpt><trkpt lat="40.99138304134074" lon="13.976419732043466"><ele>3.6666666666666665</ele><time>2026-04-26T09:59:17.001Z</time></trkpt><trkpt lat="40.99131273425366" lon="13.976346664032263"><ele>3.833333333333333</ele><time>2026-04-26T09:59:19.001Z</time></trkpt><trkpt lat="40.99124009124496" lon="13.976282893856053"><ele>4.0</ele><time>2026-04-26T09:59:21.001Z</time></trkpt><trkpt lat="40.991175927241486" lon="13.976281006937718"><ele>4.0</ele><time>2026-04-26T09:59:22Z</time></trkpt><trkpt lat="40.99110705519156" lon="13.97630227187726"><ele>4.0</ele><time>2026-04-26T09:59:23Z</time></trkpt><trkpt lat="40.99101836184842" lon="13.976351174473283"><ele>4.0</ele><time>2026-04-26T09:59:24Z</time></trkpt><trkpt lat="40.9909368273077" lon="13.97641940565605"><ele>4.0</ele><time>2026-04-26T09:59:25Z</time></trkpt><trkpt lat="40.99085136379817" lon="13.976487860193991"><ele>4.0</ele><time>2026-04-26T09:59:26Z</time></trkpt><trkpt lat="40.990768905511324" lon="13.976557823762146"><ele>3.8000000000000003</ele><time>2026-04-26T09:59:27Z</time></trkpt><trkpt lat="40.990683917467074" lon="13.97661791603469"><ele>3.6000000000000005</ele><time>2026-04-26T09:59:28Z</time></trkpt><trkpt lat="40.99059725576011" lon="13.976679088113139"><ele>3.4</ele><time>2026-04-26T09:59:29Z</time></trkpt><trkpt lat="40.99050400295678" lon="13.976743141070537"><ele>3.2</ele><time>2026-04-26T09:59:30Z</time></trkpt><trkpt lat="40.99040919954897" lon="13.976812901490444"><ele>3.0</ele><time>2026-04-26T09:59:31Z</time></trkpt><trkpt lat="40.9903157942188" lon="13.976887998617709"><ele>3.0</ele><time>2026-04-26T09:59:32Z</time></trkpt><trkpt lat="40.990232631973015" lon="13.976965786110917"><ele>3.0</ele><time>2026-04-26T09:59:33Z</time></trkpt><trkpt lat="40.99014098610356" lon="13.977043344452667"><ele>3.0</ele><time>2026-04-26T09:59:34Z</time></trkpt><trkpt lat="40.990041852081546" lon="13.977133182301154"><ele>3.0</ele><time>2026-04-26T09:59:35Z</time></trkpt><trkpt lat="40.98993861569723" lon="13.977228973529748"><ele>3.0</ele><time>2026-04-26T09:59:36Z</time></trkpt><trkpt lat="40.98983338320147" lon="13.977323956494304"><ele>3.0</ele><time>2026-04-26T09:59:37Z</time></trkpt><trkpt lat="40.98972954193601" lon="13.977413930697617"><ele>3.0</ele><time>2026-04-26T09:59:38Z</time></trkpt><trkpt lat="40.98960105500834" lon="13.97750779284354"><ele>3.0</ele><time>2026-04-26T09:59:39Z</time></trkpt><trkpt lat="40.98947696427835" lon="13.977605487146823"><ele>3.0</ele><time>2026-04-26T09:59:40Z</time></trkpt><trkpt lat="40.98935653932028" lon="13.977705363725248"><ele>3.0</ele><time>2026-04-26T09:59:41Z</time></trkpt><trkpt lat="40.98923576477719" lon="13.977806994141464"><ele>3.0</ele><time>2026-04-26T09:59:42Z</time></trkpt><trkpt lat="40.989112402886114" lon="13.97790458314315"><ele>3.0</ele><time>2026-04-26T09:59:43Z</time></trkpt><trkpt lat="40.9889864845222" lon="13.97800102626928"><ele>3.0</ele><time>2026-04-26T09:59:44Z</time></trkpt><trkpt lat="40.98886666986343" lon="13.978097678576564"><ele>3.0</ele><time>2026-04-26T09:59:45Z</time></trkpt><trkpt lat="40.98874669102844" lon="13.97819778010597"><ele>3.0</ele><time>2026-04-26T09:59:46Z</time></trkpt><trkpt lat="40.9886273487488" lon="13.978296496137098"><ele>3.0</ele><time>2026-04-26T09:59:47Z</time></trkpt><trkpt lat="40.98850921177328" lon="13.978390675763656"><ele>3.0</ele><time>2026-04-26T09:59:48Z</time></trkpt><trkpt lat="40.988390840534436" lon="13.978482861677067"><ele>3.0</ele><time>2026-04-26T09:59:49Z</time></trkpt><trkpt lat="40.988273931156456" lon="13.978575495751198"><ele>3.0</ele><time>2026-04-26T09:59:50Z</time></trkpt><trkpt lat="40.988156745174884" lon="13.978683733889246"><ele>3.0</ele><time>2026-04-26T09:59:51Z</time></trkpt><trkpt lat="40.98804318496013" lon="13.978771399775978"><ele>3.0</ele><time>2026-04-26T09:59:52Z</time></trkpt><trkpt lat="40.98793159936049" lon="13.978876405580182"><ele>3.0</ele><time>2026-04-26T09:59:53Z</time></trkpt><trkpt lat="40.98781666604706" lon="13.978989828518458"><ele>3.0</ele><time>2026-04-26T09:59:54Z</time></trkpt><trkpt lat="40.987693946491284" lon="13.979096418852816"><ele>3.0</ele><time>2026-04-26T09:59:55Z</time></trkpt><trkpt lat="40.98757060177317" lon="13.979189045312324"><ele>2.75</ele><time>2026-04-26T09:59:56Z</time></trkpt><trkpt lat="40.98744125186089" lon="13.979284783927046"><ele>2.5</ele><time>2026-04-26T09:59:57Z</time></trkpt><trkpt lat="40.98731161334094" lon="13.97938280415341"><ele>2.25</ele><time>2026-04-26T09:59:58Z</time></trkpt><trkpt lat="40.987190247839706" lon="13.979472422790517"><ele>2.0</ele><time>2026-04-26T09:59:59Z</time></trkpt><trkpt lat="40.98706511519989" lon="13.979563448835655"><ele>2.0</ele><time>2026-04-26T10:00:00Z</time></trkpt><trkpt lat="40.986942050115964" lon="13.979640192738945"><ele>2.0</ele><time>2026-04-26T10:00:01Z</time></trkpt><trkpt lat="40.98681125953192" lon="13.979703460693509"><ele>2.0</ele><time>2026-04-26T10:00:02Z</time></trkpt><trkpt lat="40.986703416810734" lon="13.979751527321342"><ele>2.0</ele><time>2026-04-26T10:00:03Z</time></trkpt><trkpt lat="40.98660133875783" lon="13.979806622936994"><ele>2.1666666666666665</ele><time>2026-04-26T10:00:04Z</time></trkpt><trkpt lat="40.98651174214559" lon="13.979857677531248"><ele>2.333333333333333</ele><time>2026-04-26T10:00:05Z</time></trkpt><trkpt lat="40.98644411879814" lon="13.979902608954271"><ele>2.5</ele><time>2026-04-26T10:00:06Z</time></trkpt><trkpt lat="40.98639209842827" lon="13.979957839904358"><ele>2.6666666666666665</ele><time>2026-04-26T10:00:07Z</time></trkpt><trkpt lat="40.9863337076678" lon="13.979996304980697"><ele>2.8333333333333335</ele><time>2026-04-26T10:00:08Z</time></trkpt><trkpt lat="40.98625605300986" lon="13.980027724953258"><ele>3.0</ele><time>2026-04-26T10:00:08.999Z</time></trkpt><trkpt lat="40.98619515014105" lon="13.98010704099971"><ele>3.0</ele><time>2026-04-26T10:00:09.999Z</time></trkpt><trkpt lat="40.986126500524925" lon="13.980188480809032"><ele>3.0</ele><time>2026-04-26T10:00:10.999Z</time></trkpt><trkpt lat="40.98605206209173" lon="13.980286627105373"><ele>3.0</ele><time>2026-04-26T10:00:11.999Z</time></trkpt><trkpt lat="40.98597335703828" lon="13.980378416405562"><ele>3.0</ele><time>2026-04-26T10:00:12.999Z</time></trkpt><trkpt lat="40.98590240561048" lon="13.980467328266844"><ele>3.0</ele><time>2026-04-26T10:00:13.999Z</time></trkpt><trkpt lat="40.985830397127906" lon="13.980561483153613"><ele>3.4</ele><time>2026-04-26T10:00:14.999Z</time></trkpt><trkpt lat="40.98576259604092" lon="13.98065480530992"><ele>3.8</ele><time>2026-04-26T10:00:15.999Z</time></trkpt><trkpt lat="40.985686012771765" lon="13.980729529807812"><ele>4.2</ele><time>2026-04-26T10:00:16.999Z</time></trkpt><trkpt lat="40.98561098441396" lon="13.980791895905568"><ele>4.6</ele><time>2026-04-26T10:00:17.999Z</time></trkpt><trkpt lat="40.98555289167014" lon="13.980851970089368"><ele>5.0</ele><time>2026-04-26T10:00:18.999Z</time></trkpt><trkpt lat="40.98546475433279" lon="13.980928913170505"><ele>5.0</ele><time>2026-04-26T10:00:19.999Z</time></trkpt><trkpt lat="40.98537785092322" lon="13.981013576404871"><ele>5.0</ele><time>2026-04-26T10:00:20.999Z</time></trkpt><trkpt lat="40.9852743471007" lon="13.981110489966687"><ele>5.0</ele><time>2026-04-26T10:00:21.999Z</time></trkpt><trkpt lat="40.98515427207539" lon="13.981207720490527"><ele>5.0</ele><time>2026-04-26T10:00:22.999Z</time></trkpt><trkpt lat="40.985029418663345" lon="13.981305675726702"><ele>5.0</ele><time>2026-04-26T10:00:23.999Z</time></trkpt><trkpt lat="40.98490830638722" lon="13.98140364729597"><ele>5.0</ele><time>2026-04-26T10:00:24.999Z</time></trkpt><trkpt lat="40.98478569025356" lon="13.981514442016376"><ele>5.0</ele><time>2026-04-26T10:00:25.999Z</time></trkpt><trkpt lat="40.98465738219213" lon="13.981632673051084"><ele>5.0</ele><time>2026-04-26T10:00:26.999Z</time></trkpt><trkpt lat="40.98452295991876" lon="13.981751403852245"><ele>4.666666666666667</ele><time>2026-04-26T10:00:27.999Z</time></trkpt><trkpt lat="40.984386622757754" lon="13.981872195719014"><ele>4.333333333333333</ele><time>2026-04-26T10:00:28.999Z</time></trkpt><trkpt lat="40.98424480095082" lon="13.98198835640818"><ele>4.0</ele><time>2026-04-26T10:00:29.999Z</time></trkpt><trkpt lat="40.98409930898699" lon="13.982108959594601"><ele>4.0</ele><time>2026-04-26T10:00:30.999Z</time></trkpt><trkpt lat="40.98394839231142" lon="13.982239614419107"><ele>4.0</ele><time>2026-04-26T10:00:31.999Z</time></trkpt><trkpt lat="40.98378073214717" lon="13.982382030216696"><ele>4.0</ele><time>2026-04-26T10:00:32.999Z</time></trkpt><trkpt lat="40.98361960151975" lon="13.982514923436394"><ele>4.0</ele><time>2026-04-26T10:00:33.999Z</time></trkpt><trkpt lat="40.98345619868309" lon="13.982650437924791"><ele>4.0</ele><time>2026-04-26T10:00:34.999Z</time></trkpt><trkpt lat="40.98329144145114" lon="13.982785116745355"><ele>4.0</ele><time>2026-04-26T10:00:35.999Z</time></trkpt><trkpt lat="40.983124563452584" lon="13.98292260940538"><ele>3.6666666666666665</ele><time>2026-04-26T10:00:36.999Z</time></trkpt><trkpt lat="40.9829556812108" lon="13.983062975862534"><ele>3.333333333333333</ele><time>2026-04-26T10:00:37.999Z</time></trkpt><trkpt lat="40.982785975600024" lon="13.983203505672718"><ele>3.0</ele><time>2026-04-26T10:00:38.999Z</time></trkpt><trkpt lat="40.98261463342904" lon="13.983338969566406"><ele>3.0</ele><time>2026-04-26T10:00:39.999Z</time></trkpt><trkpt lat="40.982443882353905" lon="13.983471885798464"><ele>3.0</ele><time>2026-04-26T10:00:40.999Z</time></trkpt><trkpt lat="40.98227673501296" lon="13.9836028752184"><ele>3.0</ele><time>2026-04-26T10:00:41.999Z</time></trkpt><trkpt lat="40.98211129439057" lon="13.983732191255664"><ele>3.0</ele><time>2026-04-26T10:00:42.999Z</time></trkpt><trkpt lat="40.98195322685702" lon="13.983859278751611"><ele>3.0</ele><time>2026-04-26T10:00:43.999Z</time></trkpt><trkpt lat="40.98179471072128" lon="13.983992322820129"><ele>3.0</ele><time>2026-04-26T10:00:44.999Z</time></trkpt><trkpt lat="40.98163803200804" lon="13.984123482375114"><ele>3.0</ele><time>2026-04-26T10:00:45.999Z</time></trkpt><trkpt lat="40.98148902777321" lon="13.984249249192244"><ele>3.0</ele><time>2026-04-26T10:00:46.999Z</time></trkpt><trkpt lat="40.981340986569485" lon="13.984373362299694"><ele>3.0</ele><time>2026-04-26T10:00:47.999Z</time></trkpt><trkpt lat="40.98119347930097" lon="13.984492923970487"><ele>3.0</ele><time>2026-04-26T10:00:48.999Z</time></trkpt><trkpt lat="40.98104841715997" lon="13.984605318948605"><ele>3.0</ele><time>2026-04-26T10:00:49.999Z</time></trkpt><trkpt lat="40.980907862405" lon="13.984717568213668"><ele>3.0</ele><time>2026-04-26T10:00:50.999Z</time></trkpt><trkpt lat="40.980766394668024" lon="13.984835957448349"><ele>3.333333333333333</ele><time>2026-04-26T10:00:51.999Z</time></trkpt><trkpt lat="40.9806264325648" lon="13.98495096652787"><ele>3.6666666666666665</ele><time>2026-04-26T10:00:52.999Z</time></trkpt><trkpt lat="40.980489282422816" lon="13.985066923759149"><ele>4.0</ele><time>2026-04-26T10:00:53.999Z</time></trkpt><trkpt lat="40.980350607658785" lon="13.985184562112915"><ele>4.0</ele><time>2026-04-26T10:00:54.999Z</time></trkpt><trkpt lat="40.98021288717823" lon="13.985298540754348"><ele>4.0</ele><time>2026-04-26T10:00:55.999Z</time></trkpt><trkpt lat="40.980070532357225" lon="13.985414087847815"><ele>4.0</ele><time>2026-04-26T10:00:56.999Z</time></trkpt><trkpt lat="40.97993444748098" lon="13.985519083146425"><ele>4.666666666666666</ele><time>2026-04-26T10:00:57.999Z</time></trkpt><trkpt lat="40.97980000744283" lon="13.985625787202109"><ele>5.333333333333333</ele><time>2026-04-26T10:00:58.999Z</time></trkpt><trkpt lat="40.97966552336269" lon="13.985732934838115"><ele>6.0</ele><time>2026-04-26T10:00:59.999Z</time></trkpt><trkpt lat="40.979530437343406" lon="13.985842800394467"><ele>5.666666666666667</ele><time>2026-04-26T10:01:00.999Z</time></trkpt><trkpt lat="40.97939159220414" lon="13.985955141550509"><ele>5.333333333333334</ele><time>2026-04-26T10:01:01.999Z</time></trkpt><trkpt lat="40.97925714153689" lon="13.986070548377484"><ele>5.0</ele><time>2026-04-26T10:01:02.999Z</time></trkpt><trkpt lat="40.979123266616334" lon="13.986188669591114"><ele>5.0</ele><time>2026-04-26T10:01:03.999Z</time></trkpt><trkpt lat="40.97899026380817" lon="13.986300580590155"><ele>5.0</ele><time>2026-04-26T10:01:04.999Z</time></trkpt><trkpt lat="40.97885464737918" lon="13.986411458979578"><ele>5.0</ele><time>2026-04-26T10:01:05.999Z</time></trkpt><trkpt lat="40.97872195648708" lon="13.986522431956093"><ele>5.0</ele><time>2026-04-26T10:01:06.999Z</time></trkpt><trkpt lat="40.97858691987694" lon="13.986632648726358"><ele>5.0</ele><time>2026-04-26T10:01:07.999Z</time></trkpt><trkpt lat="40.978456301227276" lon="13.986741330462234"><ele>5.0</ele><time>2026-04-26T10:01:08.999Z</time></trkpt><trkpt lat="40.97832648614446" lon="13.986852515972169"><ele>5.0</ele><time>2026-04-26T10:01:09.999Z</time></trkpt><trkpt lat="40.978194064226585" lon="13.986956549747731"><ele>5.0</ele><time>2026-04-26T10:01:10.999Z</time></trkpt><trkpt lat="40.978063755174766" lon="13.987066651387847"><ele>5.0</ele><time>2026-04-26T10:01:11.999Z</time></trkpt><trkpt lat="40.97792938378914" lon="13.987178589159791"><ele>5.0</ele><time>2026-04-26T10:01:12.999Z</time></trkpt><trkpt lat="40.977801288811115" lon="13.987289074594221"><ele>5.0</ele><time>2026-04-26T10:01:13.999Z</time></trkpt><trkpt lat="40.977671737867745" lon="13.987394763909105"><ele>5.0</ele><time>2026-04-26T10:01:14.998Z</time></trkpt><trkpt lat="40.97754690496462" lon="13.98749757371291"><ele>4.75</ele><time>2026-04-26T10:01:15.998Z</time></trkpt><trkpt lat="40.97742475859987" lon="13.987602846962375"><ele>4.5</ele><time>2026-04-26T10:01:17.001Z</time></trkpt><trkpt lat="40.977301361494284" lon="13.987704913194587"><ele>4.25</ele><time>2026-04-26T10:01:18.001Z</time></trkpt><trkpt lat="40.97718128004749" lon="13.98780268379051"><ele>4.0</ele><time>2026-04-26T10:01:19.001Z</time></trkpt><trkpt lat="40.97706233679488" lon="13.987901277206886"><ele>4.0</ele><time>2026-04-26T10:01:20.001Z</time></trkpt><trkpt lat="40.97694442134652" lon="13.988002709302728"><ele>4.0</ele><time>2026-04-26T10:01:21.001Z</time></trkpt><trkpt lat="40.97682392563586" lon="13.988100844228342"><ele>4.0</ele><time>2026-04-26T10:01:22.001Z</time></trkpt><trkpt lat="40.97670334735808" lon="13.988198890442625"><ele>4.0</ele><time>2026-04-26T10:01:23.001Z</time></trkpt><trkpt lat="40.97658268954977" lon="13.988296323940666"><ele>4.25</ele><time>2026-04-26T10:01:24.001Z</time></trkpt><trkpt lat="40.97646636365423" lon="13.988396337193494"><ele>4.5</ele><time>2026-04-26T10:01:25.001Z</time></trkpt><trkpt lat="40.976348703788375" lon="13.988491069780126"><ele>4.75</ele><time>2026-04-26T10:01:26.001Z</time></trkpt><trkpt lat="40.97623672064188" lon="13.988584260239426"><ele>5.0</ele><time>2026-04-26T10:01:27.001Z</time></trkpt><trkpt lat="40.97612018586297" lon="13.988682030348802"><ele>5.0</ele><time>2026-04-26T10:01:28.001Z</time></trkpt><trkpt lat="40.97600570593528" lon="13.988780257056998"><ele>5.0</ele><time>2026-04-26T10:01:29.001Z</time></trkpt><trkpt lat="40.97588396757146" lon="13.988880607229008"><ele>5.0</ele><time>2026-04-26T10:01:30.001Z</time></trkpt><trkpt lat="40.97576867085216" lon="13.98897756018894"><ele>5.0</ele><time>2026-04-26T10:01:31.001Z</time></trkpt><trkpt lat="40.9756567752847" lon="13.989073919380115"><ele>4.25</ele><time>2026-04-26T10:01:32Z</time></trkpt><trkpt lat="40.9755436474617" lon="13.989175740350491"><ele>3.5</ele><time>2026-04-26T10:01:33Z</time></trkpt><trkpt lat="40.97543222907132" lon="13.989279492591065"><ele>2.75</ele><time>2026-04-26T10:01:34Z</time></trkpt><trkpt lat="40.9753175747549" lon="13.989385648085177"><ele>2.0</ele><time>2026-04-26T10:01:35Z</time></trkpt><trkpt lat="40.97520242859443" lon="13.989491164879176"><ele>2.0</ele><time>2026-04-26T10:01:36Z</time></trkpt><trkpt lat="40.9750837751108" lon="13.989593458099748"><ele>2.0</ele><time>2026-04-26T10:01:37Z</time></trkpt><trkpt lat="40.97496361340669" lon="13.989692395947744"><ele>2.0</ele><time>2026-04-26T10:01:38Z</time></trkpt><trkpt lat="40.97483626736449" lon="13.989795750800115"><ele>2.0</ele><time>2026-04-26T10:01:39Z</time></trkpt><trkpt lat="40.974705002795716" lon="13.989899570168046"><ele>2.6666666666666665</ele><time>2026-04-26T10:01:40Z</time></trkpt><trkpt lat="40.97457439375595" lon="13.990003001103053"><ele>3.333333333333333</ele><time>2026-04-26T10:01:41Z</time></trkpt><trkpt lat="40.97444321650117" lon="13.990113549605878"><ele>4.0</ele><time>2026-04-26T10:01:42Z</time></trkpt><trkpt lat="40.974310426205754" lon="13.990227355605588"><ele>4.0</ele><time>2026-04-26T10:01:43Z</time></trkpt><trkpt lat="40.97416816665133" lon="13.990359428436532"><ele>4.0</ele><time>2026-04-26T10:01:44Z</time></trkpt><trkpt lat="40.97402886481344" lon="13.990490611801457"><ele>4.0</ele><time>2026-04-26T10:01:45Z</time></trkpt><trkpt lat="40.97387542638446" lon="13.990617118537175"><ele>4.0</ele><time>2026-04-26T10:01:46Z</time></trkpt><trkpt lat="40.97373161865319" lon="13.990733333010814"><ele>4.0</ele><time>2026-04-26T10:01:47Z</time></trkpt><trkpt lat="40.973579139646425" lon="13.990864665847358"><ele>4.0</ele><time>2026-04-26T10:01:48Z</time></trkpt><trkpt lat="40.9734134350137" lon="13.991002461817134"><ele>4.333333333333333</ele><time>2026-04-26T10:01:49Z</time></trkpt><trkpt lat="40.97324933718115" lon="13.991134998389873"><ele>4.666666666666667</ele><time>2026-04-26T10:01:50Z</time></trkpt><trkpt lat="40.97307838948867" lon="13.991271536711741"><ele>5.0</ele><time>2026-04-26T10:01:51Z</time></trkpt><trkpt lat="40.972900559431885" lon="13.99140523107059"><ele>5.0</ele><time>2026-04-26T10:01:52Z</time></trkpt><trkpt lat="40.972722192017955" lon="13.991538751397645"><ele>5.0</ele><time>2026-04-26T10:01:53Z</time></trkpt><trkpt lat="40.97254666297957" lon="13.99167756147851"><ele>5.0</ele><time>2026-04-26T10:01:54Z</time></trkpt><trkpt lat="40.97237445416063" lon="13.991821349389646"><ele>4.666666666666667</ele><time>2026-04-26T10:01:55Z</time></trkpt><trkpt lat="40.97220679889931" lon="13.991965635011528"><ele>4.333333333333333</ele><time>2026-04-26T10:01:56Z</time></trkpt><trkpt lat="40.97203722394176" lon="13.992105250275776"><ele>4.0</ele><time>2026-04-26T10:01:57Z</time></trkpt><trkpt lat="40.9718766086364" lon="13.992239718956286"><ele>4.0</ele><time>2026-04-26T10:01:58Z</time></trkpt><trkpt lat="40.97171793463969" lon="13.992377631052083"><ele>4.0</ele><time>2026-04-26T10:01:59Z</time></trkpt><trkpt lat="40.97155895660958" lon="13.992512283709095"><ele>4.0</ele><time>2026-04-26T10:02:00Z</time></trkpt><trkpt lat="40.97140558475557" lon="13.992640367704107"><ele>4.333333333333333</ele><time>2026-04-26T10:02:01Z</time></trkpt><trkpt lat="40.97125238639847" lon="13.992768241038373"><ele>4.666666666666667</ele><time>2026-04-26T10:02:02Z</time></trkpt><trkpt lat="40.971101746832915" lon="13.992896609674354"><ele>5.0</ele><time>2026-04-26T10:02:03Z</time></trkpt><trkpt lat="40.970950328411" lon="13.9930236954897"><ele>6.0</ele><time>2026-04-26T10:02:04Z</time></trkpt><trkpt lat="40.970794950512484" lon="13.993150576193067"><ele>7.0</ele><time>2026-04-26T10:02:05Z</time></trkpt><trkpt lat="40.970644271153894" lon="13.993278336936525"><ele>8.0</ele><time>2026-04-26T10:02:06Z</time></trkpt><trkpt lat="40.970493634418894" lon="13.99340928994108"><ele>8.0</ele><time>2026-04-26T10:02:07Z</time></trkpt><trkpt lat="40.9703446754594" lon="13.993537775962789"><ele>8.0</ele><time>2026-04-26T10:02:08Z</time></trkpt><trkpt lat="40.97018753705569" lon="13.99366806831569"><ele>8.0</ele><time>2026-04-26T10:02:09Z</time></trkpt><trkpt lat="40.97004417443145" lon="13.993786826828902"><ele>7.333333333333333</ele><time>2026-04-26T10:02:10Z</time></trkpt><trkpt lat="40.9699011969198" lon="13.993902163675632"><ele>6.666666666666666</ele><time>2026-04-26T10:02:11Z</time></trkpt><trkpt lat="40.969748737953346" lon="13.994028211830337"><ele>6.0</ele><time>2026-04-26T10:02:12Z</time></trkpt><trkpt lat="40.969598983156786" lon="13.994148256459045"><ele>6.0</ele><time>2026-04-26T10:02:13Z</time></trkpt><trkpt lat="40.96944898800167" lon="13.994271132378278"><ele>6.0</ele><time>2026-04-26T10:02:14Z</time></trkpt><trkpt lat="40.96929718464984" lon="13.994394369515327"><ele>6.0</ele><time>2026-04-26T10:02:15Z</time></trkpt><trkpt lat="40.969152477270896" lon="13.994517636746643"><ele>6.0</ele><time>2026-04-26T10:02:16Z</time></trkpt><trkpt lat="40.96901451316458" lon="13.994634009267797"><ele>6.0</ele><time>2026-04-26T10:02:17Z</time></trkpt><trkpt lat="40.96888584101276" lon="13.994741123376723"><ele>6.0</ele><time>2026-04-26T10:02:18Z</time></trkpt><trkpt lat="40.968750929753035" lon="13.994846878100168"><ele>6.0</ele><time>2026-04-26T10:02:19Z</time></trkpt><trkpt lat="40.96862327284678" lon="13.994947262513888"><ele>6.0</ele><time>2026-04-26T10:02:19.999Z</time></trkpt><trkpt lat="40.96849675355042" lon="13.995052863540792"><ele>6.0</ele><time>2026-04-26T10:02:20.999Z</time></trkpt><trkpt lat="40.968374520000715" lon="13.995161011144296"><ele>6.0</ele><time>2026-04-26T10:02:21.999Z</time></trkpt><trkpt lat="40.96825311247355" lon="13.9952596934111"><ele>5.666666666666667</ele><time>2026-04-26T10:02:22.999Z</time></trkpt><trkpt lat="40.96812635304321" lon="13.995365509301193"><ele>5.333333333333334</ele><time>2026-04-26T10:02:23.999Z</time></trkpt><trkpt lat="40.96799563021668" lon="13.995471935606208"><ele>5.0</ele><time>2026-04-26T10:02:24.999Z</time></trkpt><trkpt lat="40.96786001185784" lon="13.995583786204033"><ele>5.0</ele><time>2026-04-26T10:02:25.999Z</time></trkpt><trkpt lat="40.96773406514455" lon="13.995695219445796"><ele>5.0</ele><time>2026-04-26T10:02:26.999Z</time></trkpt><trkpt lat="40.96760666426501" lon="13.995809432948004"><ele>5.0</ele><time>2026-04-26T10:02:27.999Z</time></trkpt><trkpt lat="40.96746536142124" lon="13.995924727613174"><ele>5.0</ele><time>2026-04-26T10:02:28.999Z</time></trkpt><trkpt lat="40.967323093089725" lon="13.996040845919188"><ele>5.0</ele><time>2026-04-26T10:02:29.999Z</time></trkpt><trkpt lat="40.96718282507331" lon="13.99616410928404"><ele>5.0</ele><time>2026-04-26T10:02:30.999Z</time></trkpt><trkpt lat="40.96704181043893" lon="13.99628283828573"><ele>5.0</ele><time>2026-04-26T10:02:31.999Z</time></trkpt><trkpt lat="40.966898794052426" lon="13.996402353310854"><ele>5.0</ele><time>2026-04-26T10:02:32.999Z</time></trkpt><trkpt lat="40.96675172536462" lon="13.996523142461433"><ele>5.0</ele><time>2026-04-26T10:02:33.999Z</time></trkpt><trkpt lat="40.96660273311052" lon="13.996645798811368"><ele>4.666666666666667</ele><time>2026-04-26T10:02:34.999Z</time></trkpt><trkpt lat="40.96645536853814" lon="13.996770688229061"><ele>4.333333333333333</ele><time>2026-04-26T10:02:35.999Z</time></trkpt><trkpt lat="40.96630822489267" lon="13.996899931397609"><ele>4.0</ele><time>2026-04-26T10:02:36.999Z</time></trkpt><trkpt lat="40.96616909437389" lon="13.997024209330212"><ele>4.0</ele><time>2026-04-26T10:02:37.999Z</time></trkpt><trkpt lat="40.966030840312335" lon="13.99713722531869"><ele>4.0</ele><time>2026-04-26T10:02:38.999Z</time></trkpt><trkpt lat="40.96590112766454" lon="13.99725164685421"><ele>4.0</ele><time>2026-04-26T10:02:39.999Z</time></trkpt><trkpt lat="40.96577004191172" lon="13.997360735786929"><ele>4.333333333333333</ele><time>2026-04-26T10:02:40.999Z</time></trkpt><trkpt lat="40.96564360089991" lon="13.997471730865284"><ele>4.666666666666667</ele><time>2026-04-26T10:02:41.999Z</time></trkpt><trkpt lat="40.96551651911452" lon="13.997581279925202"><ele>5.0</ele><time>2026-04-26T10:02:42.999Z</time></trkpt><trkpt lat="40.96537962708032" lon="13.997683977553775"><ele>4.333333333333334</ele><time>2026-04-26T10:02:43.999Z</time></trkpt><trkpt lat="40.96524338553904" lon="13.99779204762999"><ele>3.666666666666667</ele><time>2026-04-26T10:02:44.999Z</time></trkpt><trkpt lat="40.96510298249901" lon="13.997905469412729"><ele>3.0</ele><time>2026-04-26T10:02:45.999Z</time></trkpt><trkpt lat="40.964967207435365" lon="13.998018280199226"><ele>3.0</ele><time>2026-04-26T10:02:46.999Z</time></trkpt><trkpt lat="40.96482778840904" lon="13.998129724727967"><ele>3.0</ele><time>2026-04-26T10:02:47.999Z</time></trkpt><trkpt lat="40.96468674267504" lon="13.998242011517226"><ele>3.0</ele><time>2026-04-26T10:02:48.999Z</time></trkpt><trkpt lat="40.964544133159094" lon="13.998349268880554"><ele>3.0</ele><time>2026-04-26T10:02:49.999Z</time></trkpt><trkpt lat="40.96440419864833" lon="13.998456585261914"><ele>3.0</ele><time>2026-04-26T10:02:50.999Z</time></trkpt><trkpt lat="40.964264777043944" lon="13.998561463623055"><ele>3.0</ele><time>2026-04-26T10:02:51.999Z</time></trkpt><trkpt lat="40.96413488698381" lon="13.998664902412573"><ele>3.0</ele><time>2026-04-26T10:02:52.999Z</time></trkpt><trkpt lat="40.96400585786811" lon="13.998766947650951"><ele>3.0</ele><time>2026-04-26T10:02:53.999Z</time></trkpt><trkpt lat="40.96388849962175" lon="13.998860131471465"><ele>3.0</ele><time>2026-04-26T10:02:54.999Z</time></trkpt><trkpt lat="40.963774142361196" lon="13.998944285866905"><ele>3.0</ele><time>2026-04-26T10:02:55.999Z</time></trkpt><trkpt lat="40.9636697364525" lon="13.999020974186827"><ele>3.0</ele><time>2026-04-26T10:02:56.999Z</time></trkpt><trkpt lat="40.9635668947014" lon="13.999095137367009"><ele>3.0</ele><time>2026-04-26T10:02:57.999Z</time></trkpt><trkpt lat="40.963463793755544" lon="13.99918366732329"><ele>3.0</ele><time>2026-04-26T10:02:58.999Z</time></trkpt><trkpt lat="40.963360395249445" lon="13.99926902111291"><ele>3.0</ele><time>2026-04-26T10:02:59.999Z</time></trkpt><trkpt lat="40.96325494354597" lon="13.999355061028744"><ele>3.25</ele><time>2026-04-26T10:03:00.999Z</time></trkpt><trkpt lat="40.96314634046121" lon="13.999439864530299"><ele>3.5</ele><time>2026-04-26T10:03:01.999Z</time></trkpt><trkpt lat="40.963032917797825" lon="13.999527594836946"><ele>3.75</ele><time>2026-04-26T10:03:02.999Z</time></trkpt><trkpt lat="40.962920906457995" lon="13.9996154708842"><ele>4.0</ele><time>2026-04-26T10:03:03.999Z</time></trkpt><trkpt lat="40.96281594194068" lon="13.999695452746613"><ele>4.0</ele><time>2026-04-26T10:03:04.999Z</time></trkpt><trkpt lat="40.962712089575085" lon="13.999780682990883"><ele>4.0</ele><time>2026-04-26T10:03:05.999Z</time></trkpt><trkpt lat="40.96260649066336" lon="13.999866820024145"><ele>4.0</ele><time>2026-04-26T10:03:06.999Z</time></trkpt><trkpt lat="40.96251048888591" lon="13.999951774505801"><ele>4.0</ele><time>2026-04-26T10:03:07.999Z</time></trkpt><trkpt lat="40.962411596564785" lon="14.000041949511015"><ele>4.75</ele><time>2026-04-26T10:03:08.999Z</time></trkpt><trkpt lat="40.9623132299857" lon="14.00012971120077"><ele>5.5</ele><time>2026-04-26T10:03:09.999Z</time></trkpt><trkpt lat="40.96220846822286" lon="14.000218075733025"><ele>6.25</ele><time>2026-04-26T10:03:10.999Z</time></trkpt><trkpt lat="40.962093733153786" lon="14.000312796309533"><ele>7.0</ele><time>2026-04-26T10:03:11.999Z</time></trkpt><trkpt lat="40.961968093507295" lon="14.000409297723293"><ele>7.0</ele><time>2026-04-26T10:03:12.999Z</time></trkpt><trkpt lat="40.96184048330381" lon="14.00050569672959"><ele>7.0</ele><time>2026-04-26T10:03:13.999Z</time></trkpt><trkpt lat="40.96170844713571" lon="14.000611670866833"><ele>7.0</ele><time>2026-04-26T10:03:14.999Z</time></trkpt><trkpt lat="40.96157045484502" lon="14.000720742485642"><ele>7.5</ele><time>2026-04-26T10:03:15.999Z</time></trkpt><trkpt lat="40.961438177102984" lon="14.000822539803925"><ele>8.0</ele><time>2026-04-26T10:03:16.999Z</time></trkpt><trkpt lat="40.961315809582864" lon="14.000918517968072"><ele>8.5</ele><time>2026-04-26T10:03:17.999Z</time></trkpt><trkpt lat="40.961202249317544" lon="14.001013614133237"><ele>9.0</ele><time>2026-04-26T10:03:18.999Z</time></trkpt><trkpt lat="40.961093628984855" lon="14.001099316003275"><ele>9.0</ele><time>2026-04-26T10:03:19.998Z</time></trkpt><trkpt lat="40.960995530032214" lon="14.001177727521075"><ele>9.0</ele><time>2026-04-26T10:03:20.998Z</time></trkpt><trkpt lat="40.960910722578895" lon="14.001241585139052"><ele>9.0</ele><time>2026-04-26T10:03:21.998Z</time></trkpt><trkpt lat="40.96084109443569" lon="14.001294623871274"><ele>9.0</ele><time>2026-04-26T10:03:23Z</time></trkpt><trkpt lat="40.960781389310114" lon="14.001344563714294"><ele>9.0</ele><time>2026-04-26T10:03:24Z</time></trkpt><trkpt lat="40.96072193373825" lon="14.001392077485088"><ele>9.0</ele><time>2026-04-26T10:03:25Z</time></trkpt><trkpt lat="40.96061601867209" lon="14.001465143513506"><ele>9.0</ele><time>2026-04-26T10:03:27Z</time></trkpt><trkpt lat="40.96051833813042" lon="14.001490752202796"><ele>9.0</ele><time>2026-04-26T10:03:29Z</time></trkpt><trkpt lat="40.960448357113385" lon="14.001490843631498"><ele>9.0</ele><time>2026-04-26T10:03:31Z</time></trkpt><trkpt lat="40.96037082472251" lon="14.00153202324966"><ele>9.0</ele><time>2026-04-26T10:03:34Z</time></trkpt><trkpt lat="40.96033421921175" lon="14.001604843222108"><ele>9.0</ele><time>2026-04-26T10:03:36Z</time></trkpt><trkpt lat="40.96030416152705" lon="14.001679878691856"><ele>9.0</ele><time>2026-04-26T10:03:37Z</time></trkpt><trkpt lat="40.960256824784885" lon="14.001744145582537"><ele>8.5</ele><time>2026-04-26T10:03:38Z</time></trkpt><trkpt lat="40.96018120281815" lon="14.001828524109051"><ele>8.0</ele><time>2026-04-26T10:03:39Z</time></trkpt><trkpt lat="40.96007184237021" lon="14.001904870461058"><ele>7.5</ele><time>2026-04-26T10:03:40Z</time></trkpt><trkpt lat="40.959957790143584" lon="14.001978387101376"><ele>7.0</ele><time>2026-04-26T10:03:41Z</time></trkpt><trkpt lat="40.95984183026865" lon="14.002055790077938"><ele>7.0</ele><time>2026-04-26T10:03:42Z</time></trkpt><trkpt lat="40.959721713438" lon="14.002144341235994"><ele>7.0</ele><time>2026-04-26T10:03:43Z</time></trkpt><trkpt lat="40.959598270660386" lon="14.00224206436655"><ele>7.0</ele><time>2026-04-26T10:03:44Z</time></trkpt><trkpt lat="40.95947558722998" lon="14.002342766187349"><ele>7.0</ele><time>2026-04-26T10:03:45Z</time></trkpt><trkpt lat="40.95935220036993" lon="14.002445914992173"><ele>7.0</ele><time>2026-04-26T10:03:46Z</time></trkpt><trkpt lat="40.95922789901612" lon="14.002551372626106"><ele>7.0</ele><time>2026-04-26T10:03:47Z</time></trkpt><trkpt lat="40.959106574467725" lon="14.00265441526723"><ele>7.0</ele><time>2026-04-26T10:03:48Z</time></trkpt><trkpt lat="40.958985027077595" lon="14.00275051059087"><ele>7.0</ele><time>2026-04-26T10:03:49Z</time></trkpt><trkpt lat="40.958860979184315" lon="14.002843909939692"><ele>7.0</ele><time>2026-04-26T10:03:50Z</time></trkpt><trkpt lat="40.95873119147212" lon="14.002941953063742"><ele>7.0</ele><time>2026-04-26T10:03:51Z</time></trkpt><trkpt lat="40.95859541384021" lon="14.003043143351045"><ele>7.0</ele><time>2026-04-26T10:03:52Z</time></trkpt><trkpt lat="40.95846383774614" lon="14.003148888710959"><ele>6.666666666666667</ele><time>2026-04-26T10:03:53Z</time></trkpt><trkpt lat="40.95833028276193" lon="14.003256809313921"><ele>6.333333333333334</ele><time>2026-04-26T10:03:54Z</time></trkpt><trkpt lat="40.958192296100016" lon="14.003363797654567"><ele>6.0</ele><time>2026-04-26T10:03:55Z</time></trkpt><trkpt lat="40.95804976851396" lon="14.003469640475013"><ele>6.0</ele><time>2026-04-26T10:03:56Z</time></trkpt><trkpt lat="40.95791375153083" lon="14.003573795490938"><ele>6.0</ele><time>2026-04-26T10:03:57Z</time></trkpt><trkpt lat="40.95777269090115" lon="14.003679950797864"><ele>6.0</ele><time>2026-04-26T10:03:58Z</time></trkpt><trkpt lat="40.95763264115752" lon="14.003786472392468"><ele>7.333333333333334</ele><time>2026-04-26T10:03:59Z</time></trkpt><trkpt lat="40.95751736945532" lon="14.003881102709336"><ele>8.666666666666668</ele><time>2026-04-26T10:04:00Z</time></trkpt><trkpt lat="40.95736357594296" lon="14.004005752897756"><ele>10.0</ele><time>2026-04-26T10:04:01Z</time></trkpt><trkpt lat="40.95723058872805" lon="14.004119869216897"><ele>8.333333333333334</ele><time>2026-04-26T10:04:02Z</time></trkpt><trkpt lat="40.957103988300055" lon="14.004227058986906"><ele>6.666666666666667</ele><time>2026-04-26T10:04:03Z</time></trkpt><trkpt lat="40.95696391170067" lon="14.004346020215632"><ele>5.0</ele><time>2026-04-26T10:04:04Z</time></trkpt><trkpt lat="40.95681145600864" lon="14.004482318788241"><ele>5.666666666666667</ele><time>2026-04-26T10:04:05Z</time></trkpt><trkpt lat="40.95665810945912" lon="14.004612976447792"><ele>6.333333333333334</ele><time>2026-04-26T10:04:06Z</time></trkpt><trkpt lat="40.956500225527805" lon="14.004733869717928"><ele>7.0</ele><time>2026-04-26T10:04:07Z</time></trkpt><trkpt lat="40.956352283638026" lon="14.004854943249548"><ele>7.0</ele><time>2026-04-26T10:04:08Z</time></trkpt><trkpt lat="40.95620356938926" lon="14.004965813346557"><ele>7.0</ele><time>2026-04-26T10:04:09Z</time></trkpt><trkpt lat="40.95605818676679" lon="14.005076806689091"><ele>7.0</ele><time>2026-04-26T10:04:10Z</time></trkpt><trkpt lat="40.95592137116991" lon="14.005183332363522"><ele>7.25</ele><time>2026-04-26T10:04:10.999Z</time></trkpt><trkpt lat="40.95579258602595" lon="14.00528227759035"><ele>7.5</ele><time>2026-04-26T10:04:11.999Z</time></trkpt><trkpt lat="40.95567188333113" lon="14.005374262953548"><ele>7.75</ele><time>2026-04-26T10:04:12.999Z</time></trkpt><trkpt lat="40.955560999407425" lon="14.005458788862642"><ele>8.0</ele><time>2026-04-26T10:04:13.999Z</time></trkpt><trkpt lat="40.955464070759106" lon="14.005529457812273"><ele>7.999999999999999</ele><time>2026-04-26T10:04:14.999Z</time></trkpt><trkpt lat="40.95537925986893" lon="14.005590934762864"><ele>8.0</ele><time>2026-04-26T10:04:15.999Z</time></trkpt><trkpt lat="40.95530825520095" lon="14.005646855643585"><ele>8.0</ele><time>2026-04-26T10:04:16.999Z</time></trkpt><trkpt lat="40.95524258749155" lon="14.0057001129576"><ele>8.0</ele><time>2026-04-26T10:04:17.999Z</time></trkpt><trkpt lat="40.95518464278732" lon="14.005748166822835"><ele>7.999999999999999</ele><time>2026-04-26T10:04:18.999Z</time></trkpt><trkpt lat="40.95512826352851" lon="14.005797799614578"><ele>8.0</ele><time>2026-04-26T10:04:19.999Z</time></trkpt><trkpt lat="40.955067451366105" lon="14.005843379539193"><ele>7.499999999999999</ele><time>2026-04-26T10:04:20.999Z</time></trkpt><trkpt lat="40.95500949870187" lon="14.00588873451342"><ele>7.0</ele><time>2026-04-26T10:04:21.999Z</time></trkpt><trkpt lat="40.95494758532081" lon="14.005940007875159"><ele>6.5</ele><time>2026-04-26T10:04:22.999Z</time></trkpt><trkpt lat="40.954884946069875" lon="14.005999008520837"><ele>6.0</ele><time>2026-04-26T10:04:23.999Z</time></trkpt><trkpt lat="40.95481803604853" lon="14.006060509397535"><ele>5.5</ele><time>2026-04-26T10:04:24.999Z</time></trkpt><trkpt lat="40.954747703967094" lon="14.006128921459702"><ele>5.0</ele><time>2026-04-26T10:04:25.999Z</time></trkpt><trkpt lat="40.95465230923686" lon="14.00618695465823"><ele>5.0</ele><time>2026-04-26T10:04:26.999Z</time></trkpt><trkpt lat="40.954565206119774" lon="14.006259978937692"><ele>5.0</ele><time>2026-04-26T10:04:27.999Z</time></trkpt><trkpt lat="40.95448027101458" lon="14.006330192503546"><ele>5.0</ele><time>2026-04-26T10:04:28.999Z</time></trkpt><trkpt lat="40.95440046556546" lon="14.006420293417172"><ele>5.0</ele><time>2026-04-26T10:04:29.999Z</time></trkpt><trkpt lat="40.95430137481917" lon="14.006476797483721"><ele>5.0</ele><time>2026-04-26T10:04:30.999Z</time></trkpt><trkpt lat="40.95421544589286" lon="14.006572233766445"><ele>5.0</ele><time>2026-04-26T10:04:31.999Z</time></trkpt><trkpt lat="40.95411788823345" lon="14.00665105396261"><ele>5.0</ele><time>2026-04-26T10:04:32.999Z</time></trkpt><trkpt lat="40.954017301288474" lon="14.006707890585329"><ele>5.0</ele><time>2026-04-26T10:04:33.999Z</time></trkpt><trkpt lat="40.95393915461716" lon="14.006794835765088"><ele>5.0</ele><time>2026-04-26T10:04:34.999Z</time></trkpt><trkpt lat="40.953855106945504" lon="14.006864648997272"><ele>5.0</ele><time>2026-04-26T10:04:35.999Z</time></trkpt><trkpt lat="40.95377265233893" lon="14.006931883661707"><ele>4.6</ele><time>2026-04-26T10:04:36.999Z</time></trkpt><trkpt lat="40.95369230915089" lon="14.006992442053555"><ele>4.2</ele><time>2026-04-26T10:04:37.999Z</time></trkpt><trkpt lat="40.953621696739916" lon="14.007041381525687"><ele>3.8</ele><time>2026-04-26T10:04:38.999Z</time></trkpt><trkpt lat="40.9535206884611" lon="14.007130158262742"><ele>3.4</ele><time>2026-04-26T10:04:40.999Z</time></trkpt><trkpt lat="40.95344720106415" lon="14.007169931282387"><ele>3.0</ele><time>2026-04-26T10:04:41.999Z</time></trkpt><trkpt lat="40.953380705785655" lon="14.007240914528651"><ele>3.0</ele><time>2026-04-26T10:04:42.999Z</time></trkpt><trkpt lat="40.95329119680946" lon="14.00729690235808"><ele>3.0</ele><time>2026-04-26T10:04:43.999Z</time></trkpt><trkpt lat="40.953189611932196" lon="14.007368963726844"><ele>3.0</ele><time>2026-04-26T10:04:44.999Z</time></trkpt><trkpt lat="40.95308996017622" lon="14.007440774724449"><ele>3.0</ele><time>2026-04-26T10:04:45.999Z</time></trkpt><trkpt lat="40.95298206617266" lon="14.007523945177102"><ele>3.0</ele><time>2026-04-26T10:04:46.999Z</time></trkpt><trkpt lat="40.95286573013219" lon="14.007617270511936"><ele>3.0</ele><time>2026-04-26T10:04:47.999Z</time></trkpt><trkpt lat="40.952746696552055" lon="14.007712098994038"><ele>3.0</ele><time>2026-04-26T10:04:48.999Z</time></trkpt><trkpt lat="40.95262514781305" lon="14.00780585414725"><ele>3.0</ele><time>2026-04-26T10:04:49.999Z</time></trkpt><trkpt lat="40.95249953219226" lon="14.007908621742201"><ele>3.666666666666667</ele><time>2026-04-26T10:04:50.999Z</time></trkpt><trkpt lat="40.952372031219426" lon="14.00801707872843"><ele>4.333333333333334</ele><time>2026-04-26T10:04:51.999Z</time></trkpt><trkpt lat="40.952241091525615" lon="14.008125950376638"><ele>5.0</ele><time>2026-04-26T10:04:52.999Z</time></trkpt><trkpt lat="40.95211603513623" lon="14.008220638119962"><ele>5.0</ele><time>2026-04-26T10:04:53.999Z</time></trkpt><trkpt lat="40.95199797457812" lon="14.008319461623365"><ele>5.0</ele><time>2026-04-26T10:04:54.999Z</time></trkpt><trkpt lat="40.95188120757531" lon="14.008422928984302"><ele>5.0</ele><time>2026-04-26T10:04:55.999Z</time></trkpt><trkpt lat="40.951762861040216" lon="14.008521833807245"><ele>5.0</ele><time>2026-04-26T10:04:56.999Z</time></trkpt><trkpt lat="40.9516440050165" lon="14.008618104619426"><ele>4.75</ele><time>2026-04-26T10:04:57.999Z</time></trkpt><trkpt lat="40.95152267891423" lon="14.008712563851326"><ele>4.5</ele><time>2026-04-26T10:04:58.999Z</time></trkpt><trkpt lat="40.95140366652673" lon="14.008808475867637"><ele>4.25</ele><time>2026-04-26T10:04:59.999Z</time></trkpt><trkpt lat="40.95128498196925" lon="14.008900089052199"><ele>4.0</ele><time>2026-04-26T10:05:00.999Z</time></trkpt><trkpt lat="40.95116709416754" lon="14.008993826591079"><ele>4.0</ele><time>2026-04-26T10:05:01.999Z</time></trkpt><trkpt lat="40.95105125829367" lon="14.009090869934868"><ele>4.0</ele><time>2026-04-26T10:05:02.999Z</time></trkpt><trkpt lat="40.950934331910126" lon="14.00918683831615"><ele>4.0</ele><time>2026-04-26T10:05:03.999Z</time></trkpt><trkpt lat="40.95081486761302" lon="14.009284111374544"><ele>4.0</ele><time>2026-04-26T10:05:04.999Z</time></trkpt><trkpt lat="40.95069710236322" lon="14.009378358968675"><ele>3.75</ele><time>2026-04-26T10:05:05.999Z</time></trkpt><trkpt lat="40.95058173089679" lon="14.009475067032286"><ele>3.5</ele><time>2026-04-26T10:05:06.999Z</time></trkpt><trkpt lat="40.950471144594665" lon="14.009570405037165"><ele>3.25</ele><time>2026-04-26T10:05:07.998Z</time></trkpt><trkpt lat="40.95036114836133" lon="14.009664479055827"><ele>3.0</ele><time>2026-04-26T10:05:08.998Z</time></trkpt><trkpt lat="40.950246641717875" lon="14.009763032324022"><ele>3.0</ele><time>2026-04-26T10:05:09.998Z</time></trkpt><trkpt lat="40.95012181098065" lon="14.00986934953802"><ele>3.0</ele><time>2026-04-26T10:05:10.998Z</time></trkpt><trkpt lat="40.94999092169305" lon="14.009977966141685"><ele>3.0</ele><time>2026-04-26T10:05:11.998Z</time></trkpt><trkpt lat="40.949853333892186" lon="14.010092904508735"><ele>3.666666666666667</ele><time>2026-04-26T10:05:12.998Z</time></trkpt><trkpt lat="40.949700304843844" lon="14.010221253371435"><ele>4.333333333333334</ele><time>2026-04-26T10:05:13.998Z</time></trkpt><trkpt lat="40.94954920519448" lon="14.010332310472135"><ele>5.0</ele><time>2026-04-26T10:05:14.998Z</time></trkpt><trkpt lat="40.94939548434585" lon="14.0104462394496"><ele>5.0</ele><time>2026-04-26T10:05:15.998Z</time></trkpt><trkpt lat="40.949242518931825" lon="14.010549593491257"><ele>5.0</ele><time>2026-04-26T10:05:16.998Z</time></trkpt><trkpt lat="40.94910103751044" lon="14.010653189717605"><ele>5.0</ele><time>2026-04-26T10:05:17.998Z</time></trkpt><trkpt lat="40.948988574745" lon="14.010750990592058"><ele>4.5</ele><time>2026-04-26T10:05:18.998Z</time></trkpt><trkpt lat="40.94888054290584" lon="14.010846134251981"><ele>4.0</ele><time>2026-04-26T10:05:19.998Z</time></trkpt><trkpt lat="40.94877579742149" lon="14.010938867776023"><ele>3.5</ele><time>2026-04-26T10:05:20.998Z</time></trkpt><trkpt lat="40.94866899907847" lon="14.01103773737058"><ele>3.0</ele><time>2026-04-26T10:05:21.998Z</time></trkpt><trkpt lat="40.94857681099622" lon="14.011105490885784"><ele>3.0</ele><time>2026-04-26T10:05:22.998Z</time></trkpt><trkpt lat="40.94850780536982" lon="14.011151160582797"><ele>3.0</ele><time>2026-04-26T10:05:23.998Z</time></trkpt><trkpt lat="40.94840812334801" lon="14.011207487022565"><ele>3.0</ele><time>2026-04-26T10:05:25.998Z</time></trkpt><trkpt lat="40.94834738871091" lon="14.011230844451442"><ele>3.0</ele><time>2026-04-26T10:05:26.998Z</time></trkpt><trkpt lat="40.94823360260343" lon="14.011338469253841"><ele>3.0</ele><time>2026-04-26T10:05:29Z</time></trkpt><trkpt lat="40.94815852459366" lon="14.011429756028264"><ele>3.0</ele><time>2026-04-26T10:05:30Z</time></trkpt><trkpt lat="40.94807567425256" lon="14.011513321189007"><ele>3.0</ele><time>2026-04-26T10:05:31Z</time></trkpt><trkpt lat="40.94797540428439" lon="14.011596156102716"><ele>3.0</ele><time>2026-04-26T10:05:32Z</time></trkpt><trkpt lat="40.94786867455751" lon="14.011685980545455"><ele>3.0</ele><time>2026-04-26T10:05:33Z</time></trkpt><trkpt lat="40.94775372165697" lon="14.011775578634287"><ele>3.25</ele><time>2026-04-26T10:05:34Z</time></trkpt><trkpt lat="40.947631917347124" lon="14.011877060970104"><ele>3.5</ele><time>2026-04-26T10:05:35Z</time></trkpt><trkpt lat="40.94751148124117" lon="14.011977800562656"><ele>3.75</ele><time>2026-04-26T10:05:36Z</time></trkpt><trkpt lat="40.94739048510584" lon="14.01208129401607"><ele>4.0</ele><time>2026-04-26T10:05:37Z</time></trkpt><trkpt lat="40.94726979819456" lon="14.012184756107825"><ele>4.0</ele><time>2026-04-26T10:05:38Z</time></trkpt><trkpt lat="40.94714495143583" lon="14.012283921848814"><ele>4.0</ele><time>2026-04-26T10:05:39Z</time></trkpt><trkpt lat="40.94702428727284" lon="14.012385645276813"><ele>4.0</ele><time>2026-04-26T10:05:40Z</time></trkpt><trkpt lat="40.94690441853797" lon="14.01249235231126"><ele>4.0</ele><time>2026-04-26T10:05:41Z</time></trkpt><trkpt lat="40.94678301629755" lon="14.012599159559958"><ele>4.0</ele><time>2026-04-26T10:05:42Z</time></trkpt><trkpt lat="40.94665782197178" lon="14.012697650027466"><ele>4.0</ele><time>2026-04-26T10:05:43Z</time></trkpt><trkpt lat="40.946533018580006" lon="14.012794862482934"><ele>4.0</ele><time>2026-04-26T10:05:44Z</time></trkpt><trkpt lat="40.94640483940814" lon="14.012891132934717"><ele>4.0</ele><time>2026-04-26T10:05:45Z</time></trkpt><trkpt lat="40.9462793572135" lon="14.012989090198328"><ele>4.0</ele><time>2026-04-26T10:05:46Z</time></trkpt><trkpt lat="40.94615453699966" lon="14.013089977656724"><ele>4.0</ele><time>2026-04-26T10:05:47Z</time></trkpt><trkpt lat="40.94603016071736" lon="14.013196079742169"><ele>4.0</ele><time>2026-04-26T10:05:48Z</time></trkpt><trkpt lat="40.945911642191064" lon="14.013297252153706"><ele>4.0</ele><time>2026-04-26T10:05:49Z</time></trkpt><trkpt lat="40.94578402990052" lon="14.013403822379757"><ele>3.333333333333333</ele><time>2026-04-26T10:05:50Z</time></trkpt><trkpt lat="40.94565139174588" lon="14.013515125578639"><ele>2.6666666666666665</ele><time>2026-04-26T10:05:51Z</time></trkpt><trkpt lat="40.94551784286022" lon="14.013625590607804"><ele>2.0</ele><time>2026-04-26T10:05:52Z</time></trkpt><trkpt lat="40.945390525503875" lon="14.013731876636161"><ele>2.0</ele><time>2026-04-26T10:05:53Z</time></trkpt><trkpt lat="40.945273242891886" lon="14.013831120938207"><ele>2.0</ele><time>2026-04-26T10:05:54Z</time></trkpt><trkpt lat="40.945159828959405" lon="14.013921200224763"><ele>2.0</ele><time>2026-04-26T10:05:55Z</time></trkpt><trkpt lat="40.94504872197639" lon="14.01400722021234"><ele>2.0</ele><time>2026-04-26T10:05:56Z</time></trkpt><trkpt lat="40.94494261587227" lon="14.014089830568167"><ele>2.25</ele><time>2026-04-26T10:05:57Z</time></trkpt><trkpt lat="40.94483930523604" lon="14.014169363329462"><ele>2.5</ele><time>2026-04-26T10:05:58Z</time></trkpt><trkpt lat="40.9447326930006" lon="14.0142549748165"><ele>2.75</ele><time>2026-04-26T10:05:59Z</time></trkpt><trkpt lat="40.94462068412895" lon="14.014342951734978"><ele>3.0</ele><time>2026-04-26T10:06:00Z</time></trkpt><trkpt lat="40.94450442731292" lon="14.014434057926579"><ele>3.0</ele><time>2026-04-26T10:06:01Z</time></trkpt><trkpt lat="40.94438763645182" lon="14.014533017558643"><ele>3.0</ele><time>2026-04-26T10:06:02Z</time></trkpt><trkpt lat="40.94426811779478" lon="14.014637325728044"><ele>3.0</ele><time>2026-04-26T10:06:03Z</time></trkpt><trkpt lat="40.94414643320669" lon="14.014741735201492"><ele>3.0</ele><time>2026-04-26T10:06:04Z</time></trkpt><trkpt lat="40.94401982871709" lon="14.014846128590946"><ele>3.0</ele><time>2026-04-26T10:06:05Z</time></trkpt><trkpt lat="40.94389272683986" lon="14.014950732889075"><ele>3.0</ele><time>2026-04-26T10:06:06Z</time></trkpt><trkpt lat="40.94376428711949" lon="14.015057035787486"><ele>3.0</ele><time>2026-04-26T10:06:07Z</time></trkpt><trkpt lat="40.943635708851886" lon="14.015162515746349"><ele>3.0</ele><time>2026-04-26T10:06:08Z</time></trkpt><trkpt lat="40.94350597409087" lon="14.0152638173695"><ele>3.0</ele><time>2026-04-26T10:06:09Z</time></trkpt><trkpt lat="40.94337636269737" lon="14.015367326157403"><ele>3.0</ele><time>2026-04-26T10:06:10Z</time></trkpt><trkpt lat="40.94324741351901" lon="14.015471455526505"><ele>3.0</ele><time>2026-04-26T10:06:11Z</time></trkpt><trkpt lat="40.94311680268401" lon="14.01558247885705"><ele>3.0</ele><time>2026-04-26T10:06:12Z</time></trkpt><trkpt lat="40.94299387855766" lon="14.015681858315709"><ele>3.0</ele><time>2026-04-26T10:06:13Z</time></trkpt><trkpt lat="40.94287367201777" lon="14.015778600666392"><ele>3.0</ele><time>2026-04-26T10:06:13.999Z</time></trkpt><trkpt lat="40.942759454895196" lon="14.015873475995852"><ele>3.0</ele><time>2026-04-26T10:06:14.999Z</time></trkpt><trkpt lat="40.94264620922922" lon="14.01596854531593"><ele>3.0</ele><time>2026-04-26T10:06:15.999Z</time></trkpt><trkpt lat="40.942539132574645" lon="14.0160667216492"><ele>3.0</ele><time>2026-04-26T10:06:16.999Z</time></trkpt><trkpt lat="40.94243457327015" lon="14.016161898943556"><ele>3.0</ele><time>2026-04-26T10:06:17.999Z</time></trkpt><trkpt lat="40.94233870643088" lon="14.016252297580541"><ele>3.0</ele><time>2026-04-26T10:06:18.999Z</time></trkpt><trkpt lat="40.94225463366696" lon="14.016335617122827"><ele>3.0</ele><time>2026-04-26T10:06:19.999Z</time></trkpt><trkpt lat="40.942173323614696" lon="14.016413525748646"><ele>3.0</ele><time>2026-04-26T10:06:20.999Z</time></trkpt><trkpt lat="40.94208157546796" lon="14.016496114491535"><ele>3.0</ele><time>2026-04-26T10:06:21.999Z</time></trkpt><trkpt lat="40.941978705019764" lon="14.016584164048068"><ele>3.0</ele><time>2026-04-26T10:06:22.999Z</time></trkpt><trkpt lat="40.94187430348045" lon="14.016670195885395"><ele>2.25</ele><time>2026-04-26T10:06:23.999Z</time></trkpt><trkpt lat="40.941765301032696" lon="14.016756700557767"><ele>1.5</ele><time>2026-04-26T10:06:24.999Z</time></trkpt><trkpt lat="40.941646566819806" lon="14.016844818462788"><ele>0.75</ele><time>2026-04-26T10:06:25.999Z</time></trkpt><trkpt lat="40.94151729255411" lon="14.016935750003224"><ele>0.0</ele><time>2026-04-26T10:06:26.999Z</time></trkpt><trkpt lat="40.94138310736201" lon="14.017034715985535"><ele>1.5</ele><time>2026-04-26T10:06:27.999Z</time></trkpt><trkpt lat="40.94125903374201" lon="14.017133112128503"><ele>3.0</ele><time>2026-04-26T10:06:28.999Z</time></trkpt><trkpt lat="40.94113868714296" lon="14.017229451255304"><ele>4.5</ele><time>2026-04-26T10:06:29.999Z</time></trkpt><trkpt lat="40.94101741028827" lon="14.017329374010524"><ele>6.0</ele><time>2026-04-26T10:06:30.999Z</time></trkpt><trkpt lat="40.94089976982051" lon="14.017420106322737"><ele>6.0</ele><time>2026-04-26T10:06:31.999Z</time></trkpt><trkpt lat="40.94078629161502" lon="14.017506374206146"><ele>6.0</ele><time>2026-04-26T10:06:32.999Z</time></trkpt><trkpt lat="40.94067009264634" lon="14.017592592410287"><ele>6.0</ele><time>2026-04-26T10:06:33.999Z</time></trkpt><trkpt lat="40.94054733609625" lon="14.017676591543857"><ele>6.0</ele><time>2026-04-26T10:06:34.999Z</time></trkpt><trkpt lat="40.940424789521465" lon="14.017766192293823"><ele>6.0</ele><time>2026-04-26T10:06:35.999Z</time></trkpt><trkpt lat="40.940302312254325" lon="14.017851070714109"><ele>6.0</ele><time>2026-04-26T10:06:36.999Z</time></trkpt><trkpt lat="40.94017342238639" lon="14.017935599719442"><ele>6.0</ele><time>2026-04-26T10:06:37.999Z</time></trkpt><trkpt lat="40.94004275268652" lon="14.018018998295188"><ele>6.0</ele><time>2026-04-26T10:06:38.999Z</time></trkpt><trkpt lat="40.939910185137016" lon="14.018101978483749"><ele>5.666666666666667</ele><time>2026-04-26T10:06:39.999Z</time></trkpt><trkpt lat="40.939774001927994" lon="14.018189590385205"><ele>5.333333333333334</ele><time>2026-04-26T10:06:40.999Z</time></trkpt><trkpt lat="40.939635280927554" lon="14.018275522025768"><ele>5.0</ele><time>2026-04-26T10:06:41.999Z</time></trkpt><trkpt lat="40.93948706247385" lon="14.018356703736604"><ele>5.0</ele><time>2026-04-26T10:06:42.999Z</time></trkpt><trkpt lat="40.93934669954998" lon="14.018434921433233"><ele>5.0</ele><time>2026-04-26T10:06:43.999Z</time></trkpt><trkpt lat="40.93920577351496" lon="14.018517664416011"><ele>5.0</ele><time>2026-04-26T10:06:44.999Z</time></trkpt><trkpt lat="40.93906356212901" lon="14.01859878277635"><ele>6.0</ele><time>2026-04-26T10:06:45.999Z</time></trkpt><trkpt lat="40.93891838780635" lon="14.018678766815498"><ele>7.0</ele><time>2026-04-26T10:06:46.999Z</time></trkpt><trkpt lat="40.938771079761274" lon="14.018762518176167"><ele>8.0</ele><time>2026-04-26T10:06:47.999Z</time></trkpt><trkpt lat="40.93862793359677" lon="14.018848819706685"><ele>8.0</ele><time>2026-04-26T10:06:48.999Z</time></trkpt><trkpt lat="40.93848400235046" lon="14.018938082560467"><ele>8.0</ele><time>2026-04-26T10:06:49.999Z</time></trkpt><trkpt lat="40.93833949543396" lon="14.019024667371305"><ele>8.0</ele><time>2026-04-26T10:06:50.999Z</time></trkpt><trkpt lat="40.9381921824883" lon="14.019112409860279"><ele>7.0</ele><time>2026-04-26T10:06:51.999Z</time></trkpt><trkpt lat="40.93804684570309" lon="14.019196641173682"><ele>6.0</ele><time>2026-04-26T10:06:52.999Z</time></trkpt><trkpt lat="40.937900729952034" lon="14.019279175459738"><ele>5.0</ele><time>2026-04-26T10:06:53.999Z</time></trkpt><trkpt lat="40.93774974440424" lon="14.019370668989536"><ele>5.0</ele><time>2026-04-26T10:06:54.999Z</time></trkpt><trkpt lat="40.93760173115416" lon="14.019459644464213"><ele>5.0</ele><time>2026-04-26T10:06:55.999Z</time></trkpt><trkpt lat="40.93745167606391" lon="14.01954460090144"><ele>5.0</ele><time>2026-04-26T10:06:56.999Z</time></trkpt><trkpt lat="40.93730157253301" lon="14.019629939608382"><ele>6.666666666666667</ele><time>2026-04-26T10:06:57.999Z</time></trkpt><trkpt lat="40.937153633793564" lon="14.019717459916459"><ele>8.333333333333334</ele><time>2026-04-26T10:06:58.999Z</time></trkpt><trkpt lat="40.93700615914976" lon="14.019803188637923"><ele>10.0</ele><time>2026-04-26T10:06:59.999Z</time></trkpt><trkpt lat="40.936868746122826" lon="14.019885887554917"><ele>10.0</ele><time>2026-04-26T10:07:00.999Z</time></trkpt><trkpt lat="40.936741397506246" lon="14.019958860386431"><ele>10.0</ele><time>2026-04-26T10:07:01.999Z</time></trkpt><trkpt lat="40.93664616101636" lon="14.02003201437676"><ele>10.0</ele><time>2026-04-26T10:07:02.999Z</time></trkpt><trkpt lat="40.936559042748314" lon="14.020069999399492"><ele>10.0</ele><time>2026-04-26T10:07:03.999Z</time></trkpt><trkpt lat="40.93649593799902" lon="14.020103363383203"><ele>10.0</ele><time>2026-04-26T10:07:04.999Z</time></trkpt><trkpt lat="40.93638685591268" lon="14.020137581115074"><ele>10.2</ele><time>2026-04-26T10:07:06.999Z</time></trkpt><trkpt lat="40.93628267650414" lon="14.020000467496848"><ele>10.4</ele><time>2026-04-26T10:07:09.998Z</time></trkpt><trkpt lat="40.93622941054658" lon="14.01984511333265"><ele>10.600000000000001</ele><time>2026-04-26T10:07:11.998Z</time></trkpt><trkpt lat="40.936188104287524" lon="14.019724251694628"><ele>10.8</ele><time>2026-04-26T10:07:13.998Z</time></trkpt><trkpt lat="40.93616198041934" lon="14.019646369334643"><ele>11.0</ele><time>2026-04-26T10:07:45Z</time></trkpt><trkpt lat="40.93612562845788" lon="14.019537994442151"><ele>11.0</ele><time>2026-04-26T10:07:48Z</time></trkpt><trkpt lat="40.936090865624976" lon="14.019436184721927"><ele>11.0</ele><time>2026-04-26T10:07:50Z</time></trkpt><trkpt lat="40.93605021179226" lon="14.019316715167406"><ele>11.0</ele><time>2026-04-26T10:07:52Z</time></trkpt><trkpt lat="40.93601008752904" lon="14.019197160888272"><ele>11.0</ele><time>2026-04-26T10:07:54Z</time></trkpt><trkpt lat="40.93597078161952" lon="14.019079422341155"><ele>11.0</ele><time>2026-04-26T10:07:56Z</time></trkpt><trkpt lat="40.93591742887938" lon="14.018917623100878"><ele>10.8</ele><time>2026-04-26T10:07:58Z</time></trkpt><trkpt lat="40.93588742347809" lon="14.018825620885307"><ele>10.600000000000001</ele><time>2026-04-26T10:07:59Z</time></trkpt><trkpt lat="40.93585243701994" lon="14.018717980086718"><ele>10.4</ele><time>2026-04-26T10:08:00Z</time></trkpt><trkpt lat="40.9358148564092" lon="14.018599476353348"><ele>10.2</ele><time>2026-04-26T10:08:01Z</time></trkpt><trkpt lat="40.93577286124735" lon="14.01846833869095"><ele>10.0</ele><time>2026-04-26T10:08:02Z</time></trkpt><trkpt lat="40.935729024342855" lon="14.018332354739602"><ele>8.5</ele><time>2026-04-26T10:08:03Z</time></trkpt><trkpt lat="40.935683477763824" lon="14.018190764313562"><ele>7.0</ele><time>2026-04-26T10:08:04Z</time></trkpt><trkpt lat="40.93561915591562" lon="14.018050728095652"><ele>5.5</ele><time>2026-04-26T10:08:05Z</time></trkpt><trkpt lat="40.935575436795354" lon="14.017869191388431"><ele>4.0</ele><time>2026-04-26T10:08:06Z</time></trkpt><trkpt lat="40.93550699248319" lon="14.01771894189772"><ele>4.0</ele><time>2026-04-26T10:08:07Z</time></trkpt><trkpt lat="40.93545248954069" lon="14.017568641970318"><ele>4.0</ele><time>2026-04-26T10:08:08Z</time></trkpt><trkpt lat="40.93540380928678" lon="14.01738947815989"><ele>4.0</ele><time>2026-04-26T10:08:09Z</time></trkpt><trkpt lat="40.93532953876678" lon="14.017236598067944"><ele>4.0</ele><time>2026-04-26T10:08:10Z</time></trkpt><trkpt lat="40.935271469803695" lon="14.017061250214226"><ele>4.0</ele><time>2026-04-26T10:08:11Z</time></trkpt><trkpt lat="40.935206687626554" lon="14.016900746872272"><ele>4.0</ele><time>2026-04-26T10:08:12Z</time></trkpt><trkpt lat="40.935160973042485" lon="14.016721399385773"><ele>4.0</ele><time>2026-04-26T10:08:13Z</time></trkpt><trkpt lat="40.9351052078779" lon="14.01656152407093"><ele>4.0</ele><time>2026-04-26T10:08:13.999Z</time></trkpt><trkpt lat="40.93505089719704" lon="14.016398899522354"><ele>5.0</ele><time>2026-04-26T10:08:14.999Z</time></trkpt><trkpt lat="40.93498824765427" lon="14.016249818633282"><ele>6.0</ele><time>2026-04-26T10:08:15.999Z</time></trkpt><trkpt lat="40.93493787098287" lon="14.016092745695575"><ele>7.0</ele><time>2026-04-26T10:08:16.999Z</time></trkpt><trkpt lat="40.93488326212761" lon="14.015936922962668"><ele>8.0</ele><time>2026-04-26T10:08:17.999Z</time></trkpt><trkpt lat="40.934832492818714" lon="14.015792588551635"><ele>8.0</ele><time>2026-04-26T10:08:18.999Z</time></trkpt><trkpt lat="40.934781844058406" lon="14.015646453042265"><ele>8.0</ele><time>2026-04-26T10:08:19.999Z</time></trkpt><trkpt lat="40.9347226501868" lon="14.015503590862119"><ele>8.0</ele><time>2026-04-26T10:08:20.999Z</time></trkpt><trkpt lat="40.93466392942837" lon="14.015368275676577"><ele>8.0</ele><time>2026-04-26T10:08:21.999Z</time></trkpt><trkpt lat="40.934595408061334" lon="14.015237435849498"><ele>8.0</ele><time>2026-04-26T10:08:22.999Z</time></trkpt><trkpt lat="40.93453296091594" lon="14.015098573755008"><ele>8.0</ele><time>2026-04-26T10:08:23.999Z</time></trkpt><trkpt lat="40.93446099320079" lon="14.014967360572337"><ele>8.0</ele><time>2026-04-26T10:08:24.999Z</time></trkpt><trkpt lat="40.9343973596912" lon="14.014827368844113"><ele>8.0</ele><time>2026-04-26T10:08:25.999Z</time></trkpt><trkpt lat="40.934319046174515" lon="14.014693659272845"><ele>7.75</ele><time>2026-04-26T10:08:26.999Z</time></trkpt><trkpt lat="40.93422808281008" lon="14.014575372331903"><ele>7.5</ele><time>2026-04-26T10:08:27.999Z</time></trkpt><trkpt lat="40.93415191315252" lon="14.014451760434387"><ele>7.25</ele><time>2026-04-26T10:08:28.999Z</time></trkpt><trkpt lat="40.93408300946024" lon="14.014333359362544"><ele>7.0</ele><time>2026-04-26T10:08:29.999Z</time></trkpt><trkpt lat="40.9340135212751" lon="14.014228521874672"><ele>6.500000000000001</ele><time>2026-04-26T10:08:30.999Z</time></trkpt><trkpt lat="40.93395634012266" lon="14.014122819490144"><ele>6.0</ele><time>2026-04-26T10:08:31.999Z</time></trkpt><trkpt lat="40.93390334412861" lon="14.01403704193809"><ele>5.5</ele><time>2026-04-26T10:08:32.999Z</time></trkpt><trkpt lat="40.93385913680628" lon="14.013963977680637"><ele>5.0</ele><time>2026-04-26T10:08:33.999Z</time></trkpt><trkpt lat="40.93381092445014" lon="14.013870936960537"><ele>4.5</ele><time>2026-04-26T10:08:35.999Z</time></trkpt><trkpt lat="40.933789305526126" lon="14.013790462379673"><ele>4.0</ele><time>2026-04-26T10:08:38.999Z</time></trkpt><trkpt lat="40.93370265958738" lon="14.01373724164867"><ele>4.0</ele><time>2026-04-26T10:08:41.999Z</time></trkpt><trkpt lat="40.933691465523054" lon="14.013640310872269"><ele>4.0</ele><time>2026-04-26T10:08:43.999Z</time></trkpt><trkpt lat="40.93352154316511" lon="14.013590210603471"><ele>4.0</ele><time>2026-04-26T10:08:48.999Z</time></trkpt><trkpt lat="40.93358055768145" lon="14.013800081532613"><ele>4.0</ele><time>2026-04-26T10:08:51.999Z</time></trkpt><trkpt lat="40.93364023387623" lon="14.013734519866535"><ele>4.0</ele><time>2026-04-26T10:09:14.998Z</time></trkpt><trkpt lat="40.93373071592564" lon="14.013699775793562"><ele>4.0</ele><time>2026-04-26T10:09:17.998Z</time></trkpt><trkpt lat="40.9338411310701" lon="14.013949749327839"><ele>4.0</ele><time>2026-04-26T10:09:19.998Z</time></trkpt><trkpt lat="40.93391107918166" lon="14.014097248437942"><ele>4.0</ele><time>2026-04-26T10:09:21.998Z</time></trkpt><trkpt lat="40.93396247397266" lon="14.01417967078288"><ele>4.2</ele><time>2026-04-26T10:09:22.998Z</time></trkpt><trkpt lat="40.93401964656482" lon="14.01426745999236"><ele>4.4</ele><time>2026-04-26T10:09:23.998Z</time></trkpt><trkpt lat="40.93408001673806" lon="14.014360012915414"><ele>4.6</ele><time>2026-04-26T10:09:24.998Z</time></trkpt><trkpt lat="40.9341473578082" lon="14.014467004372113"><ele>4.8</ele><time>2026-04-26T10:09:25.998Z</time></trkpt><trkpt lat="40.934218041326815" lon="14.014571312819085"><ele>5.0</ele><time>2026-04-26T10:09:26.998Z</time></trkpt><trkpt lat="40.934283954897026" lon="14.014687226330219"><ele>5.4</ele><time>2026-04-26T10:09:27.998Z</time></trkpt><trkpt lat="40.93435493197345" lon="14.014801207883234"><ele>5.8</ele><time>2026-04-26T10:09:28.998Z</time></trkpt><trkpt lat="40.93442017848845" lon="14.014908533795317"><ele>6.199999999999999</ele><time>2026-04-26T10:09:29.998Z</time></trkpt><trkpt lat="40.93448349295304" lon="14.015026525268299"><ele>6.6</ele><time>2026-04-26T10:09:30.998Z</time></trkpt><trkpt lat="40.93453019092604" lon="14.015157351710279"><ele>7.0</ele><time>2026-04-26T10:09:31.998Z</time></trkpt><trkpt lat="40.93458953416631" lon="14.01528090159761"><ele>7.25</ele><time>2026-04-26T10:09:32.998Z</time></trkpt><trkpt lat="40.93464812479665" lon="14.015405745494482"><ele>7.5</ele><time>2026-04-26T10:09:33.998Z</time></trkpt><trkpt lat="40.934709303739076" lon="14.015546141295381"><ele>7.75</ele><time>2026-04-26T10:09:34.998Z</time></trkpt><trkpt lat="40.9347800858353" lon="14.015686807838952"><ele>8.0</ele><time>2026-04-26T10:09:35.998Z</time></trkpt><trkpt lat="40.93483995813755" lon="14.015839173337111"><ele>8.0</ele><time>2026-04-26T10:09:36.998Z</time></trkpt><trkpt lat="40.93489662801577" lon="14.015998187021818"><ele>8.0</ele><time>2026-04-26T10:09:37.998Z</time></trkpt><trkpt lat="40.934952502711226" lon="14.016168035851233"><ele>8.0</ele><time>2026-04-26T10:09:38.998Z</time></trkpt><trkpt lat="40.93500713623371" lon="14.016341598882065"><ele>8.0</ele><time>2026-04-26T10:09:39.998Z</time></trkpt><trkpt lat="40.935065413603525" lon="14.016514577598944"><ele>7.0</ele><time>2026-04-26T10:09:41Z</time></trkpt><trkpt lat="40.935124688071184" lon="14.016688763422302"><ele>6.0</ele><time>2026-04-26T10:09:42Z</time></trkpt><trkpt lat="40.93518557733908" lon="14.016857957033007"><ele>5.0</ele><time>2026-04-26T10:09:43Z</time></trkpt><trkpt lat="40.93524500144629" lon="14.01702886536443"><ele>4.0</ele><time>2026-04-26T10:09:44Z</time></trkpt><trkpt lat="40.93529684806462" lon="14.01719636803017"><ele>4.0</ele><time>2026-04-26T10:09:45Z</time></trkpt><trkpt lat="40.935362981612116" lon="14.017366873267516"><ele>4.0</ele><time>2026-04-26T10:09:46Z</time></trkpt><trkpt lat="40.93542362279699" lon="14.017538957610682"><ele>4.0</ele><time>2026-04-26T10:09:47Z</time></trkpt><trkpt lat="40.935485869026266" lon="14.017714498107857"><ele>4.0</ele><time>2026-04-26T10:09:48Z</time></trkpt><trkpt lat="40.93554743907727" lon="14.017891445326823"><ele>4.0</ele><time>2026-04-26T10:09:49Z</time></trkpt><trkpt lat="40.93559414365187" lon="14.018070007664527"><ele>4.0</ele><time>2026-04-26T10:09:50Z</time></trkpt><trkpt lat="40.93565717475217" lon="14.018233652186767"><ele>4.0</ele><time>2026-04-26T10:09:51Z</time></trkpt><trkpt lat="40.93571811760414" lon="14.01840251953279"><ele>4.0</ele><time>2026-04-26T10:09:52Z</time></trkpt><trkpt lat="40.93578019067616" lon="14.018583037842243"><ele>4.5</ele><time>2026-04-26T10:09:53Z</time></trkpt><trkpt lat="40.935835720585494" lon="14.018752578596581"><ele>5.0</ele><time>2026-04-26T10:09:54Z</time></trkpt><trkpt lat="40.935896640489226" lon="14.01891684159529"><ele>5.5</ele><time>2026-04-26T10:09:55Z</time></trkpt><trkpt lat="40.93595419853643" lon="14.019087846446558"><ele>6.0</ele><time>2026-04-26T10:09:56Z</time></trkpt><trkpt lat="40.93599410292322" lon="14.01925776207151"><ele>7.25</ele><time>2026-04-26T10:09:57Z</time></trkpt><trkpt lat="40.93604821068753" lon="14.019418561494327"><ele>8.5</ele><time>2026-04-26T10:09:58Z</time></trkpt><trkpt lat="40.93609707102974" lon="14.0195614679207"><ele>9.75</ele><time>2026-04-26T10:09:59Z</time></trkpt><trkpt lat="40.9361425799551" lon="14.019697142460469"><ele>11.0</ele><time>2026-04-26T10:10:00Z</time></trkpt><trkpt lat="40.93619233140205" lon="14.019791938032572"><ele>11.0</ele><time>2026-04-26T10:10:01Z</time></trkpt><trkpt lat="40.93620761121051" lon="14.019888162903818"><ele>11.0</ele><time>2026-04-26T10:10:02Z</time></trkpt><trkpt lat="40.93624783897805" lon="14.02000549392778"><ele>11.0</ele><time>2026-04-26T10:10:04Z</time></trkpt><trkpt lat="40.936283706208215" lon="14.020110717909061"><ele>11.0</ele><time>2026-04-26T10:10:06Z</time></trkpt><trkpt lat="40.93631002949088" lon="14.020187966939126"><ele>11.0</ele><time>2026-04-26T10:10:08Z</time></trkpt><trkpt lat="40.93633627173718" lon="14.020263964570614"><ele>11.0</ele><time>2026-04-26T10:10:35.999Z</time></trkpt><trkpt lat="40.93649447762945" lon="14.020235489298612"><ele>10.8</ele><time>2026-04-26T10:10:37.999Z</time></trkpt><trkpt lat="40.93656584149424" lon="14.02019718124855"><ele>10.600000000000001</ele><time>2026-04-26T10:10:38.999Z</time></trkpt><trkpt lat="40.936654408243385" lon="14.020146370911345"><ele>10.4</ele><time>2026-04-26T10:10:39.999Z</time></trkpt><trkpt lat="40.9367496484815" lon="14.020085726279913"><ele>10.2</ele><time>2026-04-26T10:10:40.999Z</time></trkpt><trkpt lat="40.936852698642" lon="14.020022149941099"><ele>10.0</ele><time>2026-04-26T10:10:41.999Z</time></trkpt><trkpt lat="40.93696565331423" lon="14.019957966150649"><ele>10.0</ele><time>2026-04-26T10:10:42.999Z</time></trkpt><trkpt lat="40.93708227757417" lon="14.019892390404033"><ele>10.0</ele><time>2026-04-26T10:10:43.999Z</time></trkpt><trkpt lat="40.937208527053365" lon="14.019820631993118"><ele>10.0</ele><time>2026-04-26T10:10:44.999Z</time></trkpt><trkpt lat="40.93733498413558" lon="14.019747233723574"><ele>10.0</ele><time>2026-04-26T10:10:45.999Z</time></trkpt><trkpt lat="40.9374630136247" lon="14.019673444188575"><ele>8.75</ele><time>2026-04-26T10:10:46.999Z</time></trkpt><trkpt lat="40.9375932468449" lon="14.019598831810324"><ele>7.5</ele><time>2026-04-26T10:10:47.999Z</time></trkpt><trkpt lat="40.937723610980996" lon="14.019524419275399"><ele>6.25</ele><time>2026-04-26T10:10:48.999Z</time></trkpt><trkpt lat="40.937850735488794" lon="14.019447516394557"><ele>5.0</ele><time>2026-04-26T10:10:49.999Z</time></trkpt><trkpt lat="40.93797867976189" lon="14.01936910230264"><ele>5.0</ele><time>2026-04-26T10:10:50.999Z</time></trkpt><trkpt lat="40.938108900971024" lon="14.019298163411042"><ele>5.0</ele><time>2026-04-26T10:10:51.999Z</time></trkpt><trkpt lat="40.93823423844635" lon="14.019220473945746"><ele>5.0</ele><time>2026-04-26T10:10:52.999Z</time></trkpt><trkpt lat="40.938362530227856" lon="14.019144686753323"><ele>5.0</ele><time>2026-04-26T10:10:53.999Z</time></trkpt><trkpt lat="40.93848801977365" lon="14.019069295223451"><ele>5.75</ele><time>2026-04-26T10:10:54.999Z</time></trkpt><trkpt lat="40.93861670164193" lon="14.018991876918406"><ele>6.5</ele><time>2026-04-26T10:10:55.999Z</time></trkpt><trkpt lat="40.93874342885033" lon="14.018913367243618"><ele>7.25</ele><time>2026-04-26T10:10:56.999Z</time></trkpt><trkpt lat="40.93887013789229" lon="14.018833536647909"><ele>8.0</ele><time>2026-04-26T10:10:57.999Z</time></trkpt><trkpt lat="40.938994873542754" lon="14.018755107620242"><ele>8.0</ele><time>2026-04-26T10:10:58.999Z</time></trkpt><trkpt lat="40.939120533768474" lon="14.018677104297112"><ele>8.0</ele><time>2026-04-26T10:10:59.999Z</time></trkpt><trkpt lat="40.939248834877304" lon="14.018599918222991"><ele>8.0</ele><time>2026-04-26T10:11:00.999Z</time></trkpt><trkpt lat="40.939377368420296" lon="14.018522562297056"><ele>8.0</ele><time>2026-04-26T10:11:01.999Z</time></trkpt><trkpt lat="40.93950657655933" lon="14.018451037774314"><ele>7.25</ele><time>2026-04-26T10:11:02.999Z</time></trkpt><trkpt lat="40.93963990530801" lon="14.018378403301481"><ele>6.5</ele><time>2026-04-26T10:11:03.999Z</time></trkpt><trkpt lat="40.939775709476294" lon="14.018303855772393"><ele>5.75</ele><time>2026-04-26T10:11:04.999Z</time></trkpt><trkpt lat="40.93991061032363" lon="14.018226803294487"><ele>5.0</ele><time>2026-04-26T10:11:05.999Z</time></trkpt><trkpt lat="40.94004296931422" lon="14.018149389502037"><ele>5.25</ele><time>2026-04-26T10:11:06.999Z</time></trkpt><trkpt lat="40.94016977586982" lon="14.018071654637346"><ele>5.5</ele><time>2026-04-26T10:11:07.999Z</time></trkpt><trkpt lat="40.94028676943027" lon="14.017998003731766"><ele>5.75</ele><time>2026-04-26T10:11:08.999Z</time></trkpt><trkpt lat="40.9403955140352" lon="14.017925633226081"><ele>6.0</ele><time>2026-04-26T10:11:09.999Z</time></trkpt><trkpt lat="40.94049456060857" lon="14.017857362203205"><ele>6.0</ele><time>2026-04-26T10:11:10.999Z</time></trkpt><trkpt lat="40.940586603012015" lon="14.017791825832191"><ele>6.0</ele><time>2026-04-26T10:11:11.999Z</time></trkpt><trkpt lat="40.94066719032843" lon="14.017730654760312"><ele>6.0</ele><time>2026-04-26T10:11:12.999Z</time></trkpt><trkpt lat="40.94073668561947" lon="14.017677789768173"><ele>6.0</ele><time>2026-04-26T10:11:13.999Z</time></trkpt><trkpt lat="40.94079434109866" lon="14.017635363617613"><ele>6.0</ele><time>2026-04-26T10:11:14.999Z</time></trkpt><trkpt lat="40.94087998704339" lon="14.017579811381607"><ele>6.0</ele><time>2026-04-26T10:11:16.999Z</time></trkpt><trkpt lat="40.94094308226445" lon="14.01756294519922"><ele>6.0</ele><time>2026-04-26T10:11:19.998Z</time></trkpt><trkpt lat="40.94098525172508" lon="14.017497927855963"><ele>6.0</ele><time>2026-04-26T10:11:27.998Z</time></trkpt><trkpt lat="40.94108141473693" lon="14.017414965761263"><ele>6.0</ele><time>2026-04-26T10:11:29.998Z</time></trkpt><trkpt lat="40.941142305727574" lon="14.017371945443353"><ele>6.0</ele><time>2026-04-26T10:11:30.998Z</time></trkpt><trkpt lat="40.94121506402789" lon="14.017313715455298"><ele>6.0</ele><time>2026-04-26T10:11:31.998Z</time></trkpt><trkpt lat="40.94128800081215" lon="14.017249725147831"><ele>6.0</ele><time>2026-04-26T10:11:32.998Z</time></trkpt><trkpt lat="40.94136640828811" lon="14.017179876646457"><ele>6.0</ele><time>2026-04-26T10:11:33.998Z</time></trkpt><trkpt lat="40.941454078604416" lon="14.017103079052395"><ele>6.0</ele><time>2026-04-26T10:11:34.998Z</time></trkpt><trkpt lat="40.94154045463688" lon="14.017024593837556"><ele>6.0</ele><time>2026-04-26T10:11:35.998Z</time></trkpt><trkpt lat="40.941630911721184" lon="14.016940342471768"><ele>6.0</ele><time>2026-04-26T10:11:36.998Z</time></trkpt><trkpt lat="40.94172592129853" lon="14.01685634623733"><ele>6.0</ele><time>2026-04-26T10:11:37.998Z</time></trkpt><trkpt lat="40.94182433012924" lon="14.016776923514461"><ele>5.3999999999999995</ele><time>2026-04-26T10:11:38.998Z</time></trkpt><trkpt lat="40.941921542812715" lon="14.016704562823657"><ele>4.8</ele><time>2026-04-26T10:11:39.998Z</time></trkpt><trkpt lat="40.94201818985864" lon="14.01663215375012"><ele>4.199999999999999</ele><time>2026-04-26T10:11:40.998Z</time></trkpt><trkpt lat="40.942111959608226" lon="14.016552009816353"><ele>3.5999999999999996</ele><time>2026-04-26T10:11:41.998Z</time></trkpt><trkpt lat="40.94220335658118" lon="14.016466716926349"><ele>3.0</ele><time>2026-04-26T10:11:42.998Z</time></trkpt><trkpt lat="40.94229343970802" lon="14.016386499847634"><ele>3.0</ele><time>2026-04-26T10:11:43.998Z</time></trkpt><trkpt lat="40.94239057956996" lon="14.01630807451544"><ele>3.0</ele><time>2026-04-26T10:11:44.998Z</time></trkpt><trkpt lat="40.94248957809026" lon="14.016227468100332"><ele>3.0</ele><time>2026-04-26T10:11:45.998Z</time></trkpt><trkpt lat="40.942589992612525" lon="14.016145807066081"><ele>3.0</ele><time>2026-04-26T10:11:47.001Z</time></trkpt><trkpt lat="40.94269482936157" lon="14.016062149192528"><ele>3.0</ele><time>2026-04-26T10:11:48.001Z</time></trkpt><trkpt lat="40.942803376729344" lon="14.015973683930456"><ele>3.0</ele><time>2026-04-26T10:11:49.001Z</time></trkpt><trkpt lat="40.942918752170016" lon="14.015882157478375"><ele>3.0</ele><time>2026-04-26T10:11:50.001Z</time></trkpt><trkpt lat="40.94304106465818" lon="14.015786284794302"><ele>3.0</ele><time>2026-04-26T10:11:51.001Z</time></trkpt><trkpt lat="40.94315980235365" lon="14.015685894920685"><ele>3.0</ele><time>2026-04-26T10:11:52.001Z</time></trkpt><trkpt lat="40.943283833143795" lon="14.015582485995871"><ele>3.0</ele><time>2026-04-26T10:11:53.001Z</time></trkpt><trkpt lat="40.94341253047432" lon="14.015475909389744"><ele>3.0</ele><time>2026-04-26T10:11:54.001Z</time></trkpt><trkpt lat="40.94354775581728" lon="14.015363739991095"><ele>3.0</ele><time>2026-04-26T10:11:55Z</time></trkpt><trkpt lat="40.94369273576806" lon="14.015246335423672"><ele>3.0</ele><time>2026-04-26T10:11:56Z</time></trkpt><trkpt lat="40.94383371594124" lon="14.01512890364146"><ele>3.0</ele><time>2026-04-26T10:11:57Z</time></trkpt><trkpt lat="40.94396732794305" lon="14.01501942728271"><ele>3.0</ele><time>2026-04-26T10:11:58Z</time></trkpt><trkpt lat="40.94409867089043" lon="14.014909873651833"><ele>3.0</ele><time>2026-04-26T10:11:59Z</time></trkpt><trkpt lat="40.94422881430189" lon="14.014801408549417"><ele>3.0</ele><time>2026-04-26T10:12:00Z</time></trkpt><trkpt lat="40.944358257352725" lon="14.014692708136838"><ele>3.0</ele><time>2026-04-26T10:12:01Z</time></trkpt><trkpt lat="40.94448763510681" lon="14.014586368250198"><ele>3.0</ele><time>2026-04-26T10:12:02Z</time></trkpt><trkpt lat="40.94461014809098" lon="14.014487820735946"><ele>3.0</ele><time>2026-04-26T10:12:03Z</time></trkpt><trkpt lat="40.94472772710998" lon="14.014397221200165"><ele>3.0</ele><time>2026-04-26T10:12:04Z</time></trkpt><trkpt lat="40.94483945891686" lon="14.014307446723786"><ele>3.0</ele><time>2026-04-26T10:12:05Z</time></trkpt><trkpt lat="40.94494825126166" lon="14.014220712425448"><ele>3.0</ele><time>2026-04-26T10:12:06Z</time></trkpt><trkpt lat="40.94505224484778" lon="14.014139386426079"><ele>3.0</ele><time>2026-04-26T10:12:07Z</time></trkpt><trkpt lat="40.94514511740724" lon="14.014060606193173"><ele>3.0</ele><time>2026-04-26T10:12:08Z</time></trkpt><trkpt lat="40.94524051929753" lon="14.013977954528327"><ele>2.75</ele><time>2026-04-26T10:12:09Z</time></trkpt><trkpt lat="40.945336124538294" lon="14.013896593999094"><ele>2.5</ele><time>2026-04-26T10:12:10Z</time></trkpt><trkpt lat="40.94543057696051" lon="14.013816091495663"><ele>2.25</ele><time>2026-04-26T10:12:11Z</time></trkpt><trkpt lat="40.945524869518934" lon="14.013736860069795"><ele>2.0</ele><time>2026-04-26T10:12:12Z</time></trkpt><trkpt lat="40.94562323862504" lon="14.013657482150935"><ele>2.0</ele><time>2026-04-26T10:12:13Z</time></trkpt><trkpt lat="40.945720630698126" lon="14.013576880573627"><ele>2.0</ele><time>2026-04-26T10:12:14Z</time></trkpt><trkpt lat="40.945820046893665" lon="14.01349410210901"><ele>2.0</ele><time>2026-04-26T10:12:15Z</time></trkpt><trkpt lat="40.94592392627538" lon="14.01340790442229"><ele>2.0</ele><time>2026-04-26T10:12:16Z</time></trkpt><trkpt lat="40.94603084851333" lon="14.013319952411196"><ele>2.5</ele><time>2026-04-26T10:12:17Z</time></trkpt><trkpt lat="40.94614420272978" lon="14.013230605625107"><ele>3.0</ele><time>2026-04-26T10:12:18Z</time></trkpt><trkpt lat="40.94626826658426" lon="14.013131241819114"><ele>3.5</ele><time>2026-04-26T10:12:19Z</time></trkpt><trkpt lat="40.946400844328096" lon="14.013024116591296"><ele>4.0</ele><time>2026-04-26T10:12:20Z</time></trkpt><trkpt lat="40.94653071577169" lon="14.012917253478244"><ele>4.0</ele><time>2026-04-26T10:12:21Z</time></trkpt><trkpt lat="40.94666113912322" lon="14.0128060799935"><ele>4.0</ele><time>2026-04-26T10:12:22Z</time></trkpt><trkpt lat="40.9467900318476" lon="14.01269422824999"><ele>4.0</ele><time>2026-04-26T10:12:23Z</time></trkpt><trkpt lat="40.94692483904267" lon="14.012578796540838"><ele>4.0</ele><time>2026-04-26T10:12:24Z</time></trkpt><trkpt lat="40.94706170142352" lon="14.012465806859192"><ele>4.0</ele><time>2026-04-26T10:12:25Z</time></trkpt><trkpt lat="40.947195206057245" lon="14.012357939027922"><ele>4.0</ele><time>2026-04-26T10:12:26Z</time></trkpt><trkpt lat="40.94732673626822" lon="14.01225385366029"><ele>4.0</ele><time>2026-04-26T10:12:27Z</time></trkpt><trkpt lat="40.94745303315924" lon="14.012149553064054"><ele>4.0</ele><time>2026-04-26T10:12:28Z</time></trkpt><trkpt lat="40.94756540561271" lon="14.012057589383764"><ele>4.0</ele><time>2026-04-26T10:12:29Z</time></trkpt><trkpt lat="40.94767467964889" lon="14.011969253582217"><ele>4.0</ele><time>2026-04-26T10:12:30Z</time></trkpt><trkpt lat="40.94777438330361" lon="14.011888199408592"><ele>3.9999999999999996</ele><time>2026-04-26T10:12:31Z</time></trkpt><trkpt lat="40.94785727755294" lon="14.011819816467366"><ele>4.0</ele><time>2026-04-26T10:12:32Z</time></trkpt><trkpt lat="40.94792890859202" lon="14.011761091971877"><ele>4.0</ele><time>2026-04-26T10:12:33Z</time></trkpt><trkpt lat="40.94799412098783" lon="14.01170992976562"><ele>4.0</ele><time>2026-04-26T10:12:34Z</time></trkpt><trkpt lat="40.94806727614219" lon="14.011654393002177"><ele>3.9999999999999996</ele><time>2026-04-26T10:12:34.999Z</time></trkpt><trkpt lat="40.94813426367533" lon="14.01160593152846"><ele>4.0</ele><time>2026-04-26T10:12:35.999Z</time></trkpt><trkpt lat="40.94820037714319" lon="14.011558617852584"><ele>3.8000000000000003</ele><time>2026-04-26T10:12:36.999Z</time></trkpt><trkpt lat="40.948257836803656" lon="14.011522713936891"><ele>3.6000000000000005</ele><time>2026-04-26T10:12:37.999Z</time></trkpt><trkpt lat="40.94835521835099" lon="14.011475203386764"><ele>3.4</ele><time>2026-04-26T10:12:39.999Z</time></trkpt><trkpt lat="40.94843974852679" lon="14.011430740209809"><ele>3.2</ele><time>2026-04-26T10:12:41.999Z</time></trkpt><trkpt lat="40.948478784332565" lon="14.011330759309397"><ele>3.0</ele><time>2026-04-26T10:12:43.999Z</time></trkpt><trkpt lat="40.948404093561294" lon="14.01120841816092"><ele>3.0</ele><time>2026-04-26T10:12:46.999Z</time></trkpt><trkpt lat="40.948289594134586" lon="14.011255354113908"><ele>3.0</ele><time>2026-04-26T10:12:48.999Z</time></trkpt><trkpt lat="40.94822541885199" lon="14.01132863203729"><ele>3.0</ele><time>2026-04-26T10:12:49.999Z</time></trkpt><trkpt lat="40.94815675773366" lon="14.01139064143035"><ele>3.0</ele><time>2026-04-26T10:12:50.999Z</time></trkpt><trkpt lat="40.94808049942947" lon="14.011454086484859"><ele>3.0</ele><time>2026-04-26T10:12:51.999Z</time></trkpt><trkpt lat="40.94799345543865" lon="14.011526946628345"><ele>3.0</ele><time>2026-04-26T10:12:52.999Z</time></trkpt><trkpt lat="40.94791319693812" lon="14.011596122457789"><ele>3.0</ele><time>2026-04-26T10:12:53.999Z</time></trkpt><trkpt lat="40.94783039881816" lon="14.011667691509281"><ele>3.0</ele><time>2026-04-26T10:12:54.999Z</time></trkpt><trkpt lat="40.947747355033265" lon="14.011740895379926"><ele>3.0</ele><time>2026-04-26T10:12:55.999Z</time></trkpt><trkpt lat="40.947669522939634" lon="14.011811102555535"><ele>3.0</ele><time>2026-04-26T10:12:56.999Z</time></trkpt><trkpt lat="40.947579818769334" lon="14.011891122869535"><ele>3.25</ele><time>2026-04-26T10:12:57.999Z</time></trkpt><trkpt lat="40.94747701680235" lon="14.011975175318437"><ele>3.5</ele><time>2026-04-26T10:12:58.999Z</time></trkpt><trkpt lat="40.94736905513184" lon="14.012059413815154"><ele>3.75</ele><time>2026-04-26T10:12:59.999Z</time></trkpt><trkpt lat="40.94726018046606" lon="14.012144874856318"><ele>4.0</ele><time>2026-04-26T10:13:00.999Z</time></trkpt><trkpt lat="40.94714572817736" lon="14.012236030957181"><ele>4.0</ele><time>2026-04-26T10:13:01.999Z</time></trkpt><trkpt lat="40.94702395550973" lon="14.01233334586558"><ele>4.0</ele><time>2026-04-26T10:13:02.999Z</time></trkpt><trkpt lat="40.94690559483503" lon="14.012431428139179"><ele>4.0</ele><time>2026-04-26T10:13:03.999Z</time></trkpt><trkpt lat="40.94678189425879" lon="14.01253512056468"><ele>4.0</ele><time>2026-04-26T10:13:04.999Z</time></trkpt><trkpt lat="40.94665241219657" lon="14.01263858873777"><ele>4.0</ele><time>2026-04-26T10:13:05.999Z</time></trkpt><trkpt lat="40.94651850571255" lon="14.012746358570089"><ele>4.0</ele><time>2026-04-26T10:13:06.999Z</time></trkpt><trkpt lat="40.94639133296528" lon="14.012852607522863"><ele>4.0</ele><time>2026-04-26T10:13:07.999Z</time></trkpt><trkpt lat="40.94626192485228" lon="14.012961122319222"><ele>4.0</ele><time>2026-04-26T10:13:08.999Z</time></trkpt><trkpt lat="40.94613111009568" lon="14.013067194414164"><ele>4.0</ele><time>2026-04-26T10:13:09.999Z</time></trkpt><trkpt lat="40.94599874089465" lon="14.0131762127149"><ele>4.0</ele><time>2026-04-26T10:13:10.999Z</time></trkpt><trkpt lat="40.94586210957288" lon="14.013289583164708"><ele>3.333333333333333</ele><time>2026-04-26T10:13:11.999Z</time></trkpt><trkpt lat="40.945742977654525" lon="14.013408460947423"><ele>2.6666666666666665</ele><time>2026-04-26T10:13:12.999Z</time></trkpt><trkpt lat="40.94561200528208" lon="14.013510963378423"><ele>2.0</ele><time>2026-04-26T10:13:13.999Z</time></trkpt><trkpt lat="40.945489887084875" lon="14.01362930927827"><ele>2.0</ele><time>2026-04-26T10:13:14.999Z</time></trkpt><trkpt lat="40.94536646728905" lon="14.013735779935692"><ele>2.0</ele><time>2026-04-26T10:13:15.999Z</time></trkpt><trkpt lat="40.94524132443841" lon="14.013834928763506"><ele>2.0</ele><time>2026-04-26T10:13:16.999Z</time></trkpt><trkpt lat="40.94512119761487" lon="14.013932321869655"><ele>2.0</ele><time>2026-04-26T10:13:17.999Z</time></trkpt><trkpt lat="40.945004112124145" lon="14.014026435126228"><ele>2.25</ele><time>2026-04-26T10:13:18.999Z</time></trkpt><trkpt lat="40.944888539511666" lon="14.014123248309232"><ele>2.5</ele><time>2026-04-26T10:13:19.999Z</time></trkpt><trkpt lat="40.94477915135836" lon="14.014218644979433"><ele>2.75</ele><time>2026-04-26T10:13:20.999Z</time></trkpt><trkpt lat="40.94466575699619" lon="14.014317351802179"><ele>3.0</ele><time>2026-04-26T10:13:21.999Z</time></trkpt><trkpt lat="40.944546991728885" lon="14.014416548007"><ele>3.0</ele><time>2026-04-26T10:13:22.999Z</time></trkpt><trkpt lat="40.94443343595733" lon="14.014513876845212"><ele>3.0</ele><time>2026-04-26T10:13:23.998Z</time></trkpt><trkpt lat="40.94430775950539" lon="14.014620184683121"><ele>3.0</ele><time>2026-04-26T10:13:24.998Z</time></trkpt><trkpt lat="40.94417523498831" lon="14.01472711703507"><ele>3.0</ele><time>2026-04-26T10:13:25.998Z</time></trkpt><trkpt lat="40.94403597322106" lon="14.014837675841674"><ele>3.0</ele><time>2026-04-26T10:13:26.998Z</time></trkpt><trkpt lat="40.94389897969013" lon="14.014945671151878"><ele>3.0</ele><time>2026-04-26T10:13:27.998Z</time></trkpt><trkpt lat="40.94376654398583" lon="14.015050350733047"><ele>3.0</ele><time>2026-04-26T10:13:28.998Z</time></trkpt><trkpt lat="40.94363409424279" lon="14.015155214525693"><ele>3.0</ele><time>2026-04-26T10:13:29.998Z</time></trkpt><trkpt lat="40.94350426840977" lon="14.015256004802891"><ele>3.0</ele><time>2026-04-26T10:13:30.998Z</time></trkpt><trkpt lat="40.94337396520667" lon="14.015353668518465"><ele>3.0</ele><time>2026-04-26T10:13:31.998Z</time></trkpt><trkpt lat="40.94325084166108" lon="14.015457100023786"><ele>3.0</ele><time>2026-04-26T10:13:32.998Z</time></trkpt><trkpt lat="40.943132209868764" lon="14.015552703243934"><ele>3.0</ele><time>2026-04-26T10:13:33.998Z</time></trkpt><trkpt lat="40.94301816164635" lon="14.015647220925121"><ele>3.0</ele><time>2026-04-26T10:13:34.998Z</time></trkpt><trkpt lat="40.94291360442291" lon="14.015737752683622"><ele>3.0</ele><time>2026-04-26T10:13:35.998Z</time></trkpt><trkpt lat="40.94281076079104" lon="14.015820623902616"><ele>3.0</ele><time>2026-04-26T10:13:36.998Z</time></trkpt><trkpt lat="40.942715165470524" lon="14.01589849439818"><ele>3.0</ele><time>2026-04-26T10:13:37.998Z</time></trkpt><trkpt lat="40.942626963051694" lon="14.015974310986058"><ele>3.0</ele><time>2026-04-26T10:13:38.998Z</time></trkpt><trkpt lat="40.942541506808766" lon="14.016053509083262"><ele>3.0</ele><time>2026-04-26T10:13:39.998Z</time></trkpt><trkpt lat="40.942461891797116" lon="14.016128438607444"><ele>3.0</ele><time>2026-04-26T10:13:40.998Z</time></trkpt><trkpt lat="40.942385198026045" lon="14.016201878403244"><ele>3.0</ele><time>2026-04-26T10:13:41.998Z</time></trkpt><trkpt lat="40.94231546140895" lon="14.016271385610612"><ele>2.9999999999999996</ele><time>2026-04-26T10:13:42.998Z</time></trkpt><trkpt lat="40.94225071314156" lon="14.016331500701057"><ele>3.0</ele><time>2026-04-26T10:13:43.998Z</time></trkpt><trkpt lat="40.94218838620052" lon="14.01638748766483"><ele>3.0</ele><time>2026-04-26T10:13:44.998Z</time></trkpt><trkpt lat="40.94212744308595" lon="14.016439944861345"><ele>3.0</ele><time>2026-04-26T10:13:45.998Z</time></trkpt><trkpt lat="40.94206977115052" lon="14.016484135347504"><ele>3.0</ele><time>2026-04-26T10:13:46.998Z</time></trkpt><trkpt lat="40.941992626097424" lon="14.016537195968818"><ele>2.9999999999999996</ele><time>2026-04-26T10:13:48.998Z</time></trkpt><trkpt lat="40.941938834141666" lon="14.016591240884088"><ele>3.0</ele><time>2026-04-26T10:13:51.998Z</time></trkpt><trkpt lat="40.94187459811297" lon="14.016652421425029"><ele>2.5</ele><time>2026-04-26T10:13:54Z</time></trkpt><trkpt lat="40.94181169814106" lon="14.016697671418461"><ele>2.0</ele><time>2026-04-26T10:13:56Z</time></trkpt><trkpt lat="40.94171389659235" lon="14.016756790154826"><ele>1.5</ele><time>2026-04-26T10:13:58Z</time></trkpt><trkpt lat="40.94164867632216" lon="14.016799664467307"><ele>1.0</ele><time>2026-04-26T10:13:59Z</time></trkpt><trkpt lat="40.94157463522178" lon="14.016858051345125"><ele>0.5</ele><time>2026-04-26T10:14:00Z</time></trkpt><trkpt lat="40.94150413347123" lon="14.016917256097825"><ele>0.0</ele><time>2026-04-26T10:14:01Z</time></trkpt><trkpt lat="40.94142122505736" lon="14.01698439342913"><ele>1.2</ele><time>2026-04-26T10:14:02Z</time></trkpt><trkpt lat="40.94133078910895" lon="14.017058879308872"><ele>2.4</ele><time>2026-04-26T10:14:03Z</time></trkpt><trkpt lat="40.94123873643963" lon="14.017128101914517"><ele>3.5999999999999996</ele><time>2026-04-26T10:14:04Z</time></trkpt><trkpt lat="40.94114464728979" lon="14.017203774809643"><ele>4.8</ele><time>2026-04-26T10:14:05Z</time></trkpt><trkpt lat="40.941048796613956" lon="14.017282991229415"><ele>6.0</ele><time>2026-04-26T10:14:06Z</time></trkpt><trkpt lat="40.94095020823038" lon="14.017363241970402"><ele>6.0</ele><time>2026-04-26T10:14:07Z</time></trkpt><trkpt lat="40.94084828984569" lon="14.017446410808738"><ele>6.0</ele><time>2026-04-26T10:14:08Z</time></trkpt><trkpt lat="40.940742610022994" lon="14.017526905084614"><ele>6.0</ele><time>2026-04-26T10:14:09Z</time></trkpt><trkpt lat="40.940630070960445" lon="14.017609921904326"><ele>6.0</ele><time>2026-04-26T10:14:10Z</time></trkpt><trkpt lat="40.940510431951004" lon="14.017698141046042"><ele>6.0</ele><time>2026-04-26T10:14:11Z</time></trkpt><trkpt lat="40.94038133188336" lon="14.017789339538481"><ele>6.0</ele><time>2026-04-26T10:14:12Z</time></trkpt><trkpt lat="40.940253419380944" lon="14.017873363666673"><ele>6.0</ele><time>2026-04-26T10:14:13Z</time></trkpt><trkpt lat="40.94012077133313" lon="14.017960869309501"><ele>6.0</ele><time>2026-04-26T10:14:14Z</time></trkpt><trkpt lat="40.93998947501765" lon="14.018045563507103"><ele>7.666666666666666</ele><time>2026-04-26T10:14:15Z</time></trkpt><trkpt lat="40.93985206736311" lon="14.018131575349818"><ele>9.333333333333332</ele><time>2026-04-26T10:14:16Z</time></trkpt><trkpt lat="40.939707663773255" lon="14.018216808209255"><ele>11.0</ele><time>2026-04-26T10:14:17Z</time></trkpt><trkpt lat="40.93955036213996" lon="14.01831408886655"><ele>10.0</ele><time>2026-04-26T10:14:18Z</time></trkpt><trkpt lat="40.93939115070794" lon="14.018406249414701"><ele>9.0</ele><time>2026-04-26T10:14:19Z</time></trkpt><trkpt lat="40.93923128883442" lon="14.018503706002537"><ele>8.0</ele><time>2026-04-26T10:14:20Z</time></trkpt><trkpt lat="40.939079377368" lon="14.018590432819414"><ele>8.0</ele><time>2026-04-26T10:14:21Z</time></trkpt><trkpt lat="40.938929400675455" lon="14.018672894555849"><ele>8.0</ele><time>2026-04-26T10:14:22Z</time></trkpt><trkpt lat="40.93878425570048" lon="14.018752865108798"><ele>8.0</ele><time>2026-04-26T10:14:23Z</time></trkpt><trkpt lat="40.9386383495003" lon="14.018831362364272"><ele>8.0</ele><time>2026-04-26T10:14:23.999Z</time></trkpt><trkpt lat="40.93849847907756" lon="14.018917248678223"><ele>8.0</ele><time>2026-04-26T10:14:24.999Z</time></trkpt><trkpt lat="40.93836163117998" lon="14.019006836361614"><ele>8.0</ele><time>2026-04-26T10:14:25.999Z</time></trkpt><trkpt lat="40.938223392943975" lon="14.019095578174722"><ele>7.0</ele><time>2026-04-26T10:14:26.999Z</time></trkpt><trkpt lat="40.938078456909565" lon="14.019183800912998"><ele>6.0</ele><time>2026-04-26T10:14:27.999Z</time></trkpt><trkpt lat="40.93793156583502" lon="14.019270221367886"><ele>5.0</ele><time>2026-04-26T10:14:28.999Z</time></trkpt><trkpt lat="40.937784485269965" lon="14.019355952523009"><ele>5.0</ele><time>2026-04-26T10:14:29.999Z</time></trkpt><trkpt lat="40.937630722734596" lon="14.019442297365345"><ele>5.0</ele><time>2026-04-26T10:14:30.999Z</time></trkpt><trkpt lat="40.93747751712987" lon="14.019529359641158"><ele>5.0</ele><time>2026-04-26T10:14:31.999Z</time></trkpt><trkpt lat="40.93732196134066" lon="14.019617748944176"><ele>6.666666666666667</ele><time>2026-04-26T10:14:32.999Z</time></trkpt><trkpt lat="40.937160378667826" lon="14.019711804034829"><ele>8.333333333333334</ele><time>2026-04-26T10:14:33.999Z</time></trkpt><trkpt lat="40.93700346835656" lon="14.019808963860855"><ele>10.0</ele><time>2026-04-26T10:14:34.999Z</time></trkpt><trkpt lat="40.93684360685885" lon="14.01990362978801"><ele>8.333333333333334</ele><time>2026-04-26T10:14:35.999Z</time></trkpt><trkpt lat="40.93668128199067" lon="14.019997250249679"><ele>6.666666666666667</ele><time>2026-04-26T10:14:36.999Z</time></trkpt><trkpt lat="40.93651841207494" lon="14.020088147002669"><ele>5.0</ele><time>2026-04-26T10:14:37.999Z</time></trkpt><trkpt lat="40.93635630790252" lon="14.020177044363685"><ele>5.0</ele><time>2026-04-26T10:14:38.999Z</time></trkpt><trkpt lat="40.936208140166855" lon="14.020296578682649"><ele>5.0</ele><time>2026-04-26T10:14:39.999Z</time></trkpt><trkpt lat="40.93603886703461" lon="14.020374933640852"><ele>5.0</ele><time>2026-04-26T10:14:40.999Z</time></trkpt><trkpt lat="40.93587651538814" lon="14.020472318367004"><ele>6.333333333333334</ele><time>2026-04-26T10:14:41.999Z</time></trkpt><trkpt lat="40.935717287727954" lon="14.020568836345237"><ele>7.666666666666667</ele><time>2026-04-26T10:14:42.999Z</time></trkpt><trkpt lat="40.93555905515931" lon="14.020664137993647"><ele>9.0</ele><time>2026-04-26T10:14:43.999Z</time></trkpt><trkpt lat="40.93540050000974" lon="14.020755023228125"><ele>8.666666666666666</ele><time>2026-04-26T10:14:44.999Z</time></trkpt><trkpt lat="40.93524331205922" lon="14.02084678830385"><ele>8.333333333333332</ele><time>2026-04-26T10:14:45.999Z</time></trkpt><trkpt lat="40.93508656090534" lon="14.020933709401445"><ele>8.0</ele><time>2026-04-26T10:14:46.999Z</time></trkpt><trkpt lat="40.934927412539786" lon="14.021019276260361"><ele>8.0</ele><time>2026-04-26T10:14:47.999Z</time></trkpt><trkpt lat="40.93476690505278" lon="14.02111146546253"><ele>8.0</ele><time>2026-04-26T10:14:48.999Z</time></trkpt><trkpt lat="40.934606578176734" lon="14.021203159865436"><ele>8.0</ele><time>2026-04-26T10:14:49.999Z</time></trkpt><trkpt lat="40.93444662517503" lon="14.021296660590341"><ele>8.0</ele><time>2026-04-26T10:14:50.999Z</time></trkpt><trkpt lat="40.934287979970044" lon="14.021390864366962"><ele>8.0</ele><time>2026-04-26T10:14:51.999Z</time></trkpt><trkpt lat="40.93412847251261" lon="14.021481983123625"><ele>8.0</ele><time>2026-04-26T10:14:52.999Z</time></trkpt><trkpt lat="40.933969025847084" lon="14.02157106992904"><ele>6.666666666666666</ele><time>2026-04-26T10:14:53.999Z</time></trkpt><trkpt lat="40.9338087430789" lon="14.021665576483318"><ele>5.333333333333333</ele><time>2026-04-26T10:14:54.999Z</time></trkpt><trkpt lat="40.933643574018156" lon="14.021764917171923"><ele>4.0</ele><time>2026-04-26T10:14:55.999Z</time></trkpt><trkpt lat="40.93349308001515" lon="14.021847154108709"><ele>4.0</ele><time>2026-04-26T10:14:56.999Z</time></trkpt><trkpt lat="40.93334503485499" lon="14.021937544287637"><ele>4.0</ele><time>2026-04-26T10:14:57.999Z</time></trkpt><trkpt lat="40.933204162893006" lon="14.022030518580038"><ele>4.0</ele><time>2026-04-26T10:14:58.999Z</time></trkpt><trkpt lat="40.93306881920078" lon="14.022108053697956"><ele>4.0</ele><time>2026-04-26T10:14:59.999Z</time></trkpt><trkpt lat="40.93293776027577" lon="14.022187768547456"><ele>4.0</ele><time>2026-04-26T10:15:00.999Z</time></trkpt><trkpt lat="40.932809102059295" lon="14.022267920645598"><ele>4.0</ele><time>2026-04-26T10:15:01.999Z</time></trkpt><trkpt lat="40.93268896693735" lon="14.022339739502668"><ele>4.0</ele><time>2026-04-26T10:15:02.999Z</time></trkpt><trkpt lat="40.93257813970133" lon="14.02240694747404"><ele>4.5</ele><time>2026-04-26T10:15:03.999Z</time></trkpt><trkpt lat="40.932476412876504" lon="14.022469387111737"><ele>5.0</ele><time>2026-04-26T10:15:04.999Z</time></trkpt><trkpt lat="40.93237559826764" lon="14.022530410357675"><ele>5.5</ele><time>2026-04-26T10:15:05.999Z</time></trkpt><trkpt lat="40.93226023220204" lon="14.022582972982836"><ele>6.0</ele><time>2026-04-26T10:15:06.999Z</time></trkpt><trkpt lat="40.93214990699361" lon="14.022638263935292"><ele>6.5</ele><time>2026-04-26T10:15:07.999Z</time></trkpt><trkpt lat="40.93203602249764" lon="14.022691066530799"><ele>7.0</ele><time>2026-04-26T10:15:08.999Z</time></trkpt><trkpt lat="40.93191915751844" lon="14.022753373834545"><ele>7.5</ele><time>2026-04-26T10:15:09.999Z</time></trkpt><trkpt lat="40.93179754091626" lon="14.022826894912484"><ele>8.0</ele><time>2026-04-26T10:15:10.999Z</time></trkpt><trkpt lat="40.931680506983454" lon="14.022900410616819"><ele>8.75</ele><time>2026-04-26T10:15:11.999Z</time></trkpt><trkpt lat="40.93155880788449" lon="14.02297860179417"><ele>9.5</ele><time>2026-04-26T10:15:12.999Z</time></trkpt><trkpt lat="40.93143875631905" lon="14.023049154108309"><ele>10.25</ele><time>2026-04-26T10:15:13.999Z</time></trkpt><trkpt lat="40.93131727147119" lon="14.023122206125256"><ele>11.0</ele><time>2026-04-26T10:15:14.999Z</time></trkpt><trkpt lat="40.93117903887394" lon="14.023199404758303"><ele>11.0</ele><time>2026-04-26T10:15:15.999Z</time></trkpt><trkpt lat="40.93104000330735" lon="14.023280999005692"><ele>11.0</ele><time>2026-04-26T10:15:16.999Z</time></trkpt><trkpt lat="40.930909287776956" lon="14.023363608632836"><ele>11.0</ele><time>2026-04-26T10:15:17.999Z</time></trkpt><trkpt lat="40.930777843452226" lon="14.0234480096103"><ele>11.0</ele><time>2026-04-26T10:15:18.999Z</time></trkpt><trkpt lat="40.93065534999325" lon="14.023528331011146"><ele>10.25</ele><time>2026-04-26T10:15:19.999Z</time></trkpt><trkpt lat="40.93052917521648" lon="14.023613987748405"><ele>9.5</ele><time>2026-04-26T10:15:20.998Z</time></trkpt><trkpt lat="40.93039353714681" lon="14.023693318914933"><ele>8.75</ele><time>2026-04-26T10:15:21.998Z</time></trkpt><trkpt lat="40.93025835908753" lon="14.023765990131114"><ele>8.0</ele><time>2026-04-26T10:15:22.998Z</time></trkpt><trkpt lat="40.93012445596698" lon="14.023837539369271"><ele>7.5</ele><time>2026-04-26T10:15:23.998Z</time></trkpt><trkpt lat="40.92999988683392" lon="14.023915306977562"><ele>7.0</ele><time>2026-04-26T10:15:24.998Z</time></trkpt><trkpt lat="40.92987251697611" lon="14.023992628230651"><ele>6.5</ele><time>2026-04-26T10:15:25.998Z</time></trkpt><trkpt lat="40.929735590640796" lon="14.024076765988903"><ele>6.0</ele><time>2026-04-26T10:15:26.998Z</time></trkpt><trkpt lat="40.92958453717741" lon="14.024166733068698"><ele>6.0</ele><time>2026-04-26T10:15:27.998Z</time></trkpt><trkpt lat="40.92943498986124" lon="14.024256005778085"><ele>6.0</ele><time>2026-04-26T10:15:28.998Z</time></trkpt><trkpt lat="40.929282653794154" lon="14.024345335044023"><ele>6.0</ele><time>2026-04-26T10:15:29.998Z</time></trkpt><trkpt lat="40.929117329212545" lon="14.024427201334289"><ele>7.666666666666666</ele><time>2026-04-26T10:15:30.998Z</time></trkpt><trkpt lat="40.92894956452233" lon="14.02450401074731"><ele>9.333333333333332</ele><time>2026-04-26T10:15:31.998Z</time></trkpt><trkpt lat="40.92877823677564" lon="14.02457823909124"><ele>11.0</ele><time>2026-04-26T10:15:32.998Z</time></trkpt><trkpt lat="40.92859999896409" lon="14.024649096073368"><ele>11.0</ele><time>2026-04-26T10:15:33.998Z</time></trkpt><trkpt lat="40.928420346203225" lon="14.024709463507925"><ele>11.0</ele><time>2026-04-26T10:15:34.998Z</time></trkpt><trkpt lat="40.92823851698288" lon="14.024760229894486"><ele>11.0</ele><time>2026-04-26T10:15:35.998Z</time></trkpt><trkpt lat="40.928059529233956" lon="14.024798722743759"><ele>11.0</ele><time>2026-04-26T10:15:36.998Z</time></trkpt><trkpt lat="40.92787655779121" lon="14.024829033602137"><ele>11.0</ele><time>2026-04-26T10:15:37.998Z</time></trkpt><trkpt lat="40.9276988698289" lon="14.02485248891933"><ele>11.0</ele><time>2026-04-26T10:15:38.998Z</time></trkpt><trkpt lat="40.92752281573059" lon="14.024874339601832"><ele>11.0</ele><time>2026-04-26T10:15:39.998Z</time></trkpt><trkpt lat="40.92735338949298" lon="14.02489100758487"><ele>11.0</ele><time>2026-04-26T10:15:40.998Z</time></trkpt><trkpt lat="40.927186956136545" lon="14.02490530128539"><ele>11.0</ele><time>2026-04-26T10:15:41.998Z</time></trkpt><trkpt lat="40.927018242534636" lon="14.024917037773971"><ele>11.0</ele><time>2026-04-26T10:15:42.998Z</time></trkpt><trkpt lat="40.92685164144246" lon="14.024919991273222"><ele>11.0</ele><time>2026-04-26T10:15:43.998Z</time></trkpt><trkpt lat="40.92668169285063" lon="14.0249113195693"><ele>11.0</ele><time>2026-04-26T10:15:44.998Z</time></trkpt><trkpt lat="40.926521674842725" lon="14.024899794079367"><ele>11.0</ele><time>2026-04-26T10:15:45.998Z</time></trkpt><trkpt lat="40.92635289220894" lon="14.024886001611211"><ele>11.0</ele><time>2026-04-26T10:15:46.998Z</time></trkpt><trkpt lat="40.92618735182104" lon="14.024874698276891"><ele>11.0</ele><time>2026-04-26T10:15:47.998Z</time></trkpt><trkpt lat="40.92602265714293" lon="14.024865396072167"><ele>11.333333333333332</ele><time>2026-04-26T10:15:48.998Z</time></trkpt><trkpt lat="40.92586084150781" lon="14.02484507018375"><ele>11.666666666666666</ele><time>2026-04-26T10:15:49.998Z</time></trkpt><trkpt lat="40.92569879345829" lon="14.024827713629646"><ele>12.0</ele><time>2026-04-26T10:15:50.998Z</time></trkpt><trkpt lat="40.925539025999115" lon="14.024809690697955"><ele>12.0</ele><time>2026-04-26T10:15:51.998Z</time></trkpt><trkpt lat="40.925381725950274" lon="14.024799347743233"><ele>12.0</ele><time>2026-04-26T10:15:52.998Z</time></trkpt><trkpt lat="40.92522082452085" lon="14.024791912727244"><ele>12.0</ele><time>2026-04-26T10:15:53.998Z</time></trkpt><trkpt lat="40.92506084048835" lon="14.024783241341684"><ele>11.0</ele><time>2026-04-26T10:15:54.998Z</time></trkpt><trkpt lat="40.924904013142005" lon="14.024769322053066"><ele>10.0</ele><time>2026-04-26T10:15:55.998Z</time></trkpt><trkpt lat="40.924743112881394" lon="14.024751454911256"><ele>9.0</ele><time>2026-04-26T10:15:56.998Z</time></trkpt><trkpt lat="40.924578637172424" lon="14.024729196672986"><ele>9.0</ele><time>2026-04-26T10:15:57.998Z</time></trkpt><trkpt lat="40.924415566850946" lon="14.024713838673636"><ele>9.0</ele><time>2026-04-26T10:15:59Z</time></trkpt><trkpt lat="40.924247001428824" lon="14.024703842116232"><ele>9.0</ele><time>2026-04-26T10:16:00Z</time></trkpt><trkpt lat="40.924083253275796" lon="14.024686568643018"><ele>8.666666666666666</ele><time>2026-04-26T10:16:01Z</time></trkpt><trkpt lat="40.92391188052184" lon="14.024671301407029"><ele>8.333333333333332</ele><time>2026-04-26T10:16:02Z</time></trkpt><trkpt lat="40.923739972968804" lon="14.024658386342258"><ele>8.0</ele><time>2026-04-26T10:16:03Z</time></trkpt><trkpt lat="40.92357092616864" lon="14.024643885274275"><ele>6.666666666666666</ele><time>2026-04-26T10:16:04Z</time></trkpt><trkpt lat="40.9233963897796" lon="14.02463154324558"><ele>5.333333333333333</ele><time>2026-04-26T10:16:05Z</time></trkpt><trkpt lat="40.923224610821784" lon="14.02461397945525"><ele>4.0</ele><time>2026-04-26T10:16:06Z</time></trkpt><trkpt lat="40.92305041873838" lon="14.024601123835206"><ele>4.0</ele><time>2026-04-26T10:16:07Z</time></trkpt><trkpt lat="40.92287423452056" lon="14.024588825305438"><ele>4.0</ele><time>2026-04-26T10:16:08Z</time></trkpt><trkpt lat="40.92269971197805" lon="14.024575583443056"><ele>4.0</ele><time>2026-04-26T10:16:09Z</time></trkpt><trkpt lat="40.92252784490098" lon="14.024559250849812"><ele>3.6666666666666665</ele><time>2026-04-26T10:16:10Z</time></trkpt><trkpt lat="40.92235695030835" lon="14.024543149284876"><ele>3.333333333333333</ele><time>2026-04-26T10:16:11Z</time></trkpt><trkpt lat="40.922189404273865" lon="14.024526747828142"><ele>3.0</ele><time>2026-04-26T10:16:12Z</time></trkpt><trkpt lat="40.92202348399362" lon="14.024519354021326"><ele>3.0</ele><time>2026-04-26T10:16:13Z</time></trkpt><trkpt lat="40.92186895248501" lon="14.024501674297596"><ele>3.0</ele><time>2026-04-26T10:16:14Z</time></trkpt><trkpt lat="40.921719693863224" lon="14.024489050344698"><ele>3.0</ele><time>2026-04-26T10:16:15Z</time></trkpt><trkpt lat="40.921569122703694" lon="14.024476276483146"><ele>3.333333333333333</ele><time>2026-04-26T10:16:16Z</time></trkpt><trkpt lat="40.92141506493981" lon="14.024465856801163"><ele>3.6666666666666665</ele><time>2026-04-26T10:16:17Z</time></trkpt><trkpt lat="40.92126767070188" lon="14.02445072167596"><ele>4.0</ele><time>2026-04-26T10:16:18Z</time></trkpt><trkpt lat="40.92111761281319" lon="14.024440309809025"><ele>4.0</ele><time>2026-04-26T10:16:19Z</time></trkpt><trkpt lat="40.920968964240494" lon="14.024426814855738"><ele>4.0</ele><time>2026-04-26T10:16:20Z</time></trkpt><trkpt lat="40.92082501508165" lon="14.024410020914765"><ele>4.0</ele><time>2026-04-26T10:16:21Z</time></trkpt><trkpt lat="40.920674137855045" lon="14.024395294024755"><ele>4.0</ele><time>2026-04-26T10:16:22Z</time></trkpt><trkpt lat="40.92052011359628" lon="14.024382704891233"><ele>4.666666666666666</ele><time>2026-04-26T10:16:22.999Z</time></trkpt><trkpt lat="40.92036298665702" lon="14.024372177734566"><ele>5.333333333333333</ele><time>2026-04-26T10:16:23.999Z</time></trkpt><trkpt lat="40.92020826139051" lon="14.024359226498449"><ele>6.0</ele><time>2026-04-26T10:16:24.999Z</time></trkpt><trkpt lat="40.92004794337521" lon="14.024351066668787"><ele>6.0</ele><time>2026-04-26T10:16:25.999Z</time></trkpt><trkpt lat="40.9198875828739" lon="14.024349126916103"><ele>6.0</ele><time>2026-04-26T10:16:26.999Z</time></trkpt><trkpt lat="40.9197261545444" lon="14.024365667076609"><ele>6.0</ele><time>2026-04-26T10:16:27.999Z</time></trkpt><trkpt lat="40.91956425196501" lon="14.02440373740217"><ele>6.0</ele><time>2026-04-26T10:16:28.999Z</time></trkpt><trkpt lat="40.9194020268454" lon="14.024464427632804"><ele>6.0</ele><time>2026-04-26T10:16:29.999Z</time></trkpt><trkpt lat="40.919243324063935" lon="14.024539407555833"><ele>6.0</ele><time>2026-04-26T10:16:30.999Z</time></trkpt><trkpt lat="40.91909262515806" lon="14.024630594649873"><ele>6.0</ele><time>2026-04-26T10:16:31.999Z</time></trkpt><trkpt lat="40.918951155999345" lon="14.024740894540374"><ele>6.0</ele><time>2026-04-26T10:16:32.999Z</time></trkpt><trkpt lat="40.91882999604933" lon="14.024894057438072"><ele>6.0</ele><time>2026-04-26T10:16:33.999Z</time></trkpt><trkpt lat="40.91870989505728" lon="14.025042584338848"><ele>5.666666666666667</ele><time>2026-04-26T10:16:34.999Z</time></trkpt><trkpt lat="40.918598580557855" lon="14.025200577997197"><ele>5.333333333333334</ele><time>2026-04-26T10:16:35.999Z</time></trkpt><trkpt lat="40.918495164016974" lon="14.025365378045512"><ele>5.0</ele><time>2026-04-26T10:16:36.999Z</time></trkpt><trkpt lat="40.91839996934207" lon="14.025544346481276"><ele>4.666666666666667</ele><time>2026-04-26T10:16:37.999Z</time></trkpt><trkpt lat="40.9183144931237" lon="14.025729714327953"><ele>4.333333333333333</ele><time>2026-04-26T10:16:38.999Z</time></trkpt><trkpt lat="40.9182456687031" lon="14.02592446447224"><ele>4.0</ele><time>2026-04-26T10:16:39.999Z</time></trkpt><trkpt lat="40.91819130913835" lon="14.026126867928099"><ele>4.0</ele><time>2026-04-26T10:16:40.999Z</time></trkpt><trkpt lat="40.91814938423195" lon="14.026314545964519"><ele>4.0</ele><time>2026-04-26T10:16:41.999Z</time></trkpt><trkpt lat="40.918127351808714" lon="14.026494456131076"><ele>4.0</ele><time>2026-04-26T10:16:42.999Z</time></trkpt><trkpt lat="40.918108360330194" lon="14.026683413808534"><ele>4.0</ele><time>2026-04-26T10:16:43.999Z</time></trkpt><trkpt lat="40.918105961385365" lon="14.026875040521771"><ele>3.75</ele><time>2026-04-26T10:16:44.999Z</time></trkpt><trkpt lat="40.91808729561926" lon="14.02706502689381"><ele>3.5</ele><time>2026-04-26T10:16:45.999Z</time></trkpt><trkpt lat="40.91806538900689" lon="14.027254192711869"><ele>3.25</ele><time>2026-04-26T10:16:46.999Z</time></trkpt><trkpt lat="40.91805011317625" lon="14.027444784107818"><ele>3.0</ele><time>2026-04-26T10:16:47.999Z</time></trkpt><trkpt lat="40.91803561811847" lon="14.027630020785036"><ele>2.75</ele><time>2026-04-26T10:16:48.999Z</time></trkpt><trkpt lat="40.91802172356875" lon="14.027816001620767"><ele>2.5</ele><time>2026-04-26T10:16:49.999Z</time></trkpt><trkpt lat="40.91800253651089" lon="14.027996894544957"><ele>2.25</ele><time>2026-04-26T10:16:50.999Z</time></trkpt><trkpt lat="40.91798240697749" lon="14.02817959009479"><ele>2.0</ele><time>2026-04-26T10:16:51.999Z</time></trkpt><trkpt lat="40.91796912725362" lon="14.028353601511407"><ele>2.8</ele><time>2026-04-26T10:16:52.999Z</time></trkpt><trkpt lat="40.917957430142856" lon="14.028509681508586"><ele>3.6</ele><time>2026-04-26T10:16:53.999Z</time></trkpt><trkpt lat="40.91794549109013" lon="14.02865317669874"><ele>4.3999999999999995</ele><time>2026-04-26T10:16:54.999Z</time></trkpt><trkpt lat="40.91793383013203" lon="14.028786159044829"><ele>5.2</ele><time>2026-04-26T10:16:55.999Z</time></trkpt><trkpt lat="40.91791873674569" lon="14.028910825257185"><ele>6.0</ele><time>2026-04-26T10:16:56.999Z</time></trkpt><trkpt lat="40.91790505491555" lon="14.029035126072765"><ele>7.199999999999999</ele><time>2026-04-26T10:16:57.999Z</time></trkpt><trkpt lat="40.91789274783318" lon="14.02915080383433"><ele>8.399999999999999</ele><time>2026-04-26T10:16:58.999Z</time></trkpt><trkpt lat="40.91787879317116" lon="14.02926319254516"><ele>9.6</ele><time>2026-04-26T10:16:59.999Z</time></trkpt><trkpt lat="40.917865616312405" lon="14.029386229798236"><ele>10.799999999999999</ele><time>2026-04-26T10:17:00.999Z</time></trkpt><trkpt lat="40.917855540690326" lon="14.029516345032423"><ele>12.0</ele><time>2026-04-26T10:17:01.999Z</time></trkpt><trkpt lat="40.917843515500024" lon="14.0296471660674"><ele>12.0</ele><time>2026-04-26T10:17:02.999Z</time></trkpt><trkpt lat="40.91783275334695" lon="14.029779325557145"><ele>12.0</ele><time>2026-04-26T10:17:03.999Z</time></trkpt><trkpt lat="40.9178202529414" lon="14.029910729566165"><ele>12.0</ele><time>2026-04-26T10:17:04.999Z</time></trkpt><trkpt lat="40.91780707548505" lon="14.030029210395883"><ele>12.0</ele><time>2026-04-26T10:17:05.999Z</time></trkpt><trkpt lat="40.91779938552517" lon="14.03013008645073"><ele>12.0</ele><time>2026-04-26T10:17:06.999Z</time></trkpt><trkpt lat="40.91779212813064" lon="14.030251491172663"><ele>12.0</ele><time>2026-04-26T10:17:08.999Z</time></trkpt><trkpt lat="40.91779511785998" lon="14.030346876573956"><ele>12.0</ele><time>2026-04-26T10:17:10.999Z</time></trkpt><trkpt lat="40.91777139053215" lon="14.030465239337818"><ele>12.0</ele><time>2026-04-26T10:17:13.999Z</time></trkpt><trkpt lat="40.91775966652653" lon="14.030582603240678"><ele>12.0</ele><time>2026-04-26T10:17:15.999Z</time></trkpt><trkpt lat="40.91774781450498" lon="14.030701248665048"><ele>12.0</ele><time>2026-04-26T10:17:17.999Z</time></trkpt><trkpt lat="40.9178757742368" lon="14.030789343498485"><ele>11.8</ele><time>2026-04-26T10:17:19.999Z</time></trkpt><trkpt lat="40.91798561837631" lon="14.030833190875407"><ele>11.6</ele><time>2026-04-26T10:17:21.999Z</time></trkpt><trkpt lat="40.918063698463946" lon="14.030838573367916"><ele>11.4</ele><time>2026-04-26T10:17:22.999Z</time></trkpt><trkpt lat="40.91815205203974" lon="14.03084598817384"><ele>11.200000000000001</ele><time>2026-04-26T10:17:23.999Z</time></trkpt><trkpt lat="40.918244427116456" lon="14.030846029923046"><ele>11.0</ele><time>2026-04-26T10:17:24.998Z</time></trkpt><trkpt lat="40.91835211037178" lon="14.030853756727195"><ele>11.600000000000001</ele><time>2026-04-26T10:17:25.998Z</time></trkpt><trkpt lat="40.91846071047883" lon="14.030873772045782"><ele>12.2</ele><time>2026-04-26T10:17:26.998Z</time></trkpt><trkpt lat="40.91857233702194" lon="14.030900428994675"><ele>12.799999999999999</ele><time>2026-04-26T10:17:27.998Z</time></trkpt><trkpt lat="40.918678352184266" lon="14.030915530279161"><ele>13.399999999999999</ele><time>2026-04-26T10:17:28.998Z</time></trkpt><trkpt lat="40.91878751815983" lon="14.030928883781089"><ele>14.0</ele><time>2026-04-26T10:17:29.998Z</time></trkpt><trkpt lat="40.91889663186553" lon="14.030957524330782"><ele>14.0</ele><time>2026-04-26T10:17:30.998Z</time></trkpt><trkpt lat="40.91901447000765" lon="14.030984023811376"><ele>14.0</ele><time>2026-04-26T10:17:31.998Z</time></trkpt><trkpt lat="40.91913218066235" lon="14.031022127659309"><ele>14.0</ele><time>2026-04-26T10:17:32.998Z</time></trkpt><trkpt lat="40.91925397489052" lon="14.031062240902182"><ele>14.0</ele><time>2026-04-26T10:17:33.998Z</time></trkpt><trkpt lat="40.91937171995714" lon="14.03111359643107"><ele>13.5</ele><time>2026-04-26T10:17:34.998Z</time></trkpt><trkpt lat="40.91949636948529" lon="14.031159839910448"><ele>13.0</ele><time>2026-04-26T10:17:35.998Z</time></trkpt><trkpt lat="40.919627562667785" lon="14.031219900274102"><ele>12.5</ele><time>2026-04-26T10:17:36.998Z</time></trkpt><trkpt lat="40.91973597825773" lon="14.031290546331949"><ele>12.0</ele><time>2026-04-26T10:17:37.998Z</time></trkpt><trkpt lat="40.91984619950416" lon="14.031354144226563"><ele>12.0</ele><time>2026-04-26T10:17:38.998Z</time></trkpt><trkpt lat="40.91994797669945" lon="14.03141327646799"><ele>12.0</ele><time>2026-04-26T10:17:39.998Z</time></trkpt><trkpt lat="40.920045671305076" lon="14.031481501109747"><ele>12.0</ele><time>2026-04-26T10:17:40.998Z</time></trkpt><trkpt lat="40.92014346543555" lon="14.031562015742374"><ele>12.0</ele><time>2026-04-26T10:17:41.998Z</time></trkpt><trkpt lat="40.9202420949411" lon="14.031652865574344"><ele>11.75</ele><time>2026-04-26T10:17:42.998Z</time></trkpt><trkpt lat="40.92034198172793" lon="14.031745860781314"><ele>11.5</ele><time>2026-04-26T10:17:43.998Z</time></trkpt><trkpt lat="40.92044759675929" lon="14.031836512051761"><ele>11.25</ele><time>2026-04-26T10:17:44.998Z</time></trkpt><trkpt lat="40.920557013280664" lon="14.031931470385583"><ele>11.0</ele><time>2026-04-26T10:17:45.998Z</time></trkpt><trkpt lat="40.92066196086486" lon="14.032031108905075"><ele>11.0</ele><time>2026-04-26T10:17:46.998Z</time></trkpt><trkpt lat="40.92077005574162" lon="14.032133878697074"><ele>11.0</ele><time>2026-04-26T10:17:47.998Z</time></trkpt><trkpt lat="40.9208852877266" lon="14.032240773814356"><ele>11.0</ele><time>2026-04-26T10:17:48.998Z</time></trkpt><trkpt lat="40.921007792788544" lon="14.032345685539726"><ele>11.0</ele><time>2026-04-26T10:17:49.998Z</time></trkpt><trkpt lat="40.92113856634562" lon="14.032456535992448"><ele>11.0</ele><time>2026-04-26T10:17:50.998Z</time></trkpt><trkpt lat="40.92127810931625" lon="14.03257901068432"><ele>11.0</ele><time>2026-04-26T10:17:51.998Z</time></trkpt><trkpt lat="40.9214159167544" lon="14.032701617708197"><ele>11.0</ele><time>2026-04-26T10:17:52.998Z</time></trkpt><trkpt lat="40.921556077427816" lon="14.032825681538784"><ele>11.0</ele><time>2026-04-26T10:17:53.998Z</time></trkpt><trkpt lat="40.92169047051874" lon="14.032947140816656"><ele>11.0</ele><time>2026-04-26T10:17:54.998Z</time></trkpt><trkpt lat="40.921832291681575" lon="14.033069033917783"><ele>11.0</ele><time>2026-04-26T10:17:55.998Z</time></trkpt><trkpt lat="40.92197514084269" lon="14.033189737736969"><ele>11.0</ele><time>2026-04-26T10:17:56.998Z</time></trkpt><trkpt lat="40.9221152197012" lon="14.033308769799799"><ele>11.0</ele><time>2026-04-26T10:17:57.998Z</time></trkpt><trkpt lat="40.922251722867244" lon="14.03343105572349"><ele>11.0</ele><time>2026-04-26T10:17:58.998Z</time></trkpt><trkpt lat="40.92238267823967" lon="14.033547287922215"><ele>11.0</ele><time>2026-04-26T10:17:59.998Z</time></trkpt><trkpt lat="40.92250961454621" lon="14.033661546676756"><ele>11.0</ele><time>2026-04-26T10:18:00.998Z</time></trkpt><trkpt lat="40.922633555736276" lon="14.033764795671598"><ele>11.0</ele><time>2026-04-26T10:18:01.998Z</time></trkpt><trkpt lat="40.92275656952222" lon="14.033866912082294"><ele>11.0</ele><time>2026-04-26T10:18:02.998Z</time></trkpt><trkpt lat="40.92287753860987" lon="14.033969832257872"><ele>11.0</ele><time>2026-04-26T10:18:03.998Z</time></trkpt><trkpt lat="40.922993949323875" lon="14.034075859956353"><ele>11.0</ele><time>2026-04-26T10:18:05Z</time></trkpt><trkpt lat="40.92310697646145" lon="14.034182483960393"><ele>11.0</ele><time>2026-04-26T10:18:06Z</time></trkpt><trkpt lat="40.92322526706855" lon="14.034289218074962"><ele>11.0</ele><time>2026-04-26T10:18:07Z</time></trkpt><trkpt lat="40.9233439050458" lon="14.034392768988605"><ele>10.0</ele><time>2026-04-26T10:18:08Z</time></trkpt><trkpt lat="40.92345867997901" lon="14.034495077680045"><ele>9.0</ele><time>2026-04-26T10:18:09Z</time></trkpt><trkpt lat="40.923570950542405" lon="14.034588818252672"><ele>8.0</ele><time>2026-04-26T10:18:10Z</time></trkpt><trkpt lat="40.9236818362033" lon="14.034684210293019"><ele>7.0</ele><time>2026-04-26T10:18:11Z</time></trkpt><trkpt lat="40.92379859263744" lon="14.034775433445054"><ele>7.0</ele><time>2026-04-26T10:18:12Z</time></trkpt><trkpt lat="40.923907002316454" lon="14.03487573249323"><ele>7.0</ele><time>2026-04-26T10:18:13Z</time></trkpt><trkpt lat="40.924015477162044" lon="14.034984553316685"><ele>7.0</ele><time>2026-04-26T10:18:14Z</time></trkpt><trkpt lat="40.924129896030024" lon="14.035096291505413"><ele>7.0</ele><time>2026-04-26T10:18:15Z</time></trkpt><trkpt lat="40.92424645885807" lon="14.035199693343754"><ele>6.666666666666667</ele><time>2026-04-26T10:18:16Z</time></trkpt><trkpt lat="40.92437218351014" lon="14.035304690609191"><ele>6.333333333333334</ele><time>2026-04-26T10:18:17Z</time></trkpt><trkpt lat="40.92449965757112" lon="14.035414747784387"><ele>6.0</ele><time>2026-04-26T10:18:18Z</time></trkpt><trkpt lat="40.9246233007941" lon="14.035532336942671"><ele>6.0</ele><time>2026-04-26T10:18:19Z</time></trkpt><trkpt lat="40.924753110882996" lon="14.035638486819186"><ele>6.0</ele><time>2026-04-26T10:18:20Z</time></trkpt><trkpt lat="40.92488316515348" lon="14.035752897632157"><ele>6.0</ele><time>2026-04-26T10:18:21Z</time></trkpt><trkpt lat="40.92501698400175" lon="14.035874323455399"><ele>5.333333333333333</ele><time>2026-04-26T10:18:22Z</time></trkpt><trkpt lat="40.925150062286505" lon="14.035993628201306"><ele>4.666666666666666</ele><time>2026-04-26T10:18:23Z</time></trkpt><trkpt lat="40.92528579915261" lon="14.036108395581664"><ele>4.0</ele><time>2026-04-26T10:18:24Z</time></trkpt><trkpt lat="40.92541858008428" lon="14.036224610175235"><ele>4.0</ele><time>2026-04-26T10:18:25Z</time></trkpt><trkpt lat="40.925547386698035" lon="14.036337990310235"><ele>4.0</ele><time>2026-04-26T10:18:26Z</time></trkpt><trkpt lat="40.92567757788531" lon="14.036450083666157"><ele>4.0</ele><time>2026-04-26T10:18:27Z</time></trkpt><trkpt lat="40.92580825669786" lon="14.03656660569021"><ele>4.333333333333333</ele><time>2026-04-26T10:18:28Z</time></trkpt><trkpt lat="40.92593294517801" lon="14.03667770142776"><ele>4.666666666666667</ele><time>2026-04-26T10:18:29Z</time></trkpt><trkpt lat="40.92606170815141" lon="14.036790804142774"><ele>5.0</ele><time>2026-04-26T10:18:30Z</time></trkpt><trkpt lat="40.926190547754516" lon="14.03690404795706"><ele>5.0</ele><time>2026-04-26T10:18:31Z</time></trkpt><trkpt lat="40.926318153488204" lon="14.037016650395094"><ele>5.0</ele><time>2026-04-26T10:18:32Z</time></trkpt><trkpt lat="40.926445829882084" lon="14.037128187766356"><ele>5.0</ele><time>2026-04-26T10:18:33Z</time></trkpt><trkpt lat="40.926566958700356" lon="14.037237752207973"><ele>5.0</ele><time>2026-04-26T10:18:33.999Z</time></trkpt><trkpt lat="40.926691967391605" lon="14.03734319804242"><ele>5.0</ele><time>2026-04-26T10:18:34.999Z</time></trkpt><trkpt lat="40.926817227084534" lon="14.037446850392808"><ele>5.0</ele><time>2026-04-26T10:18:35.999Z</time></trkpt><trkpt lat="40.926930468884706" lon="14.037549738231158"><ele>5.0</ele><time>2026-04-26T10:18:36.999Z</time></trkpt><trkpt lat="40.92704502657714" lon="14.037647339830478"><ele>5.25</ele><time>2026-04-26T10:18:37.999Z</time></trkpt><trkpt lat="40.92716469792826" lon="14.037750631734076"><ele>5.5</ele><time>2026-04-26T10:18:38.999Z</time></trkpt><trkpt lat="40.927269460960474" lon="14.03784940543855"><ele>5.75</ele><time>2026-04-26T10:18:39.999Z</time></trkpt><trkpt lat="40.92737587798647" lon="14.037955461313771"><ele>6.0</ele><time>2026-04-26T10:18:40.999Z</time></trkpt><trkpt lat="40.9274820580745" lon="14.038060840829544"><ele>6.0</ele><time>2026-04-26T10:18:41.999Z</time></trkpt><trkpt lat="40.927595581104164" lon="14.038158610831257"><ele>6.0</ele><time>2026-04-26T10:18:42.999Z</time></trkpt><trkpt lat="40.92771182729455" lon="14.038254760923532"><ele>6.0</ele><time>2026-04-26T10:18:43.999Z</time></trkpt><trkpt lat="40.927819625093726" lon="14.038347460534066"><ele>6.0</ele><time>2026-04-26T10:18:44.999Z</time></trkpt><trkpt lat="40.92791699814215" lon="14.038438220278165"><ele>6.6</ele><time>2026-04-26T10:18:45.999Z</time></trkpt><trkpt lat="40.9280074744148" lon="14.038515345917821"><ele>7.199999999999999</ele><time>2026-04-26T10:18:46.999Z</time></trkpt><trkpt lat="40.9280972042754" lon="14.0385971246977"><ele>7.800000000000001</ele><time>2026-04-26T10:18:47.999Z</time></trkpt><trkpt lat="40.928188369251096" lon="14.038677380796882"><ele>8.4</ele><time>2026-04-26T10:18:48.999Z</time></trkpt><trkpt lat="40.92828575250924" lon="14.038766948811302"><ele>9.0</ele><time>2026-04-26T10:18:49.999Z</time></trkpt><trkpt lat="40.928382139071516" lon="14.038866692140735"><ele>9.5</ele><time>2026-04-26T10:18:50.999Z</time></trkpt><trkpt lat="40.92849039965376" lon="14.038951236003912"><ele>10.0</ele><time>2026-04-26T10:18:51.999Z</time></trkpt><trkpt lat="40.92860138169776" lon="14.039055584621881"><ele>10.5</ele><time>2026-04-26T10:18:52.999Z</time></trkpt><trkpt lat="40.92871560733868" lon="14.039156472416687"><ele>11.0</ele><time>2026-04-26T10:18:53.999Z</time></trkpt><trkpt lat="40.92883408356358" lon="14.039253558721876"><ele>11.5</ele><time>2026-04-26T10:18:54.999Z</time></trkpt><trkpt lat="40.928950593898385" lon="14.039348791713637"><ele>12.0</ele><time>2026-04-26T10:18:55.999Z</time></trkpt><trkpt lat="40.92906601864324" lon="14.039448872283419"><ele>12.5</ele><time>2026-04-26T10:18:56.999Z</time></trkpt><trkpt lat="40.9291746206394" lon="14.039545764725313"><ele>13.0</ele><time>2026-04-26T10:18:57.999Z</time></trkpt><trkpt lat="40.92928324079309" lon="14.039640636305469"><ele>13.0</ele><time>2026-04-26T10:18:58.999Z</time></trkpt><trkpt lat="40.92938982409687" lon="14.03972664725605"><ele>13.0</ele><time>2026-04-26T10:18:59.999Z</time></trkpt><trkpt lat="40.9294884958552" lon="14.039819299620866"><ele>13.0</ele><time>2026-04-26T10:19:00.999Z</time></trkpt><trkpt lat="40.929590479934426" lon="14.039901784025123"><ele>13.0</ele><time>2026-04-26T10:19:01.999Z</time></trkpt><trkpt lat="40.929680798446014" lon="14.039983932798824"><ele>13.2</ele><time>2026-04-26T10:19:02.999Z</time></trkpt><trkpt lat="40.92976610833137" lon="14.040061915721749"><ele>13.4</ele><time>2026-04-26T10:19:03.999Z</time></trkpt><trkpt lat="40.92984952307936" lon="14.0401342960378"><ele>13.599999999999998</ele><time>2026-04-26T10:19:04.999Z</time></trkpt><trkpt lat="40.9299274763454" lon="14.040204074019853"><ele>13.799999999999999</ele><time>2026-04-26T10:19:05.999Z</time></trkpt><trkpt lat="40.93000616170638" lon="14.04027974284898"><ele>14.0</ele><time>2026-04-26T10:19:06.999Z</time></trkpt><trkpt lat="40.930092685506665" lon="14.040359135618194"><ele>14.0</ele><time>2026-04-26T10:19:07.999Z</time></trkpt><trkpt lat="40.93018591891515" lon="14.040441587860162"><ele>14.0</ele><time>2026-04-26T10:19:08.999Z</time></trkpt><trkpt lat="40.930281156843456" lon="14.040530868355093"><ele>14.0</ele><time>2026-04-26T10:19:09.999Z</time></trkpt><trkpt lat="40.93038529243486" lon="14.040622970417177"><ele>14.0</ele><time>2026-04-26T10:19:10.999Z</time></trkpt><trkpt lat="40.93049085484092" lon="14.040717257659256"><ele>15.0</ele><time>2026-04-26T10:19:11.999Z</time></trkpt><trkpt lat="40.9305881028087" lon="14.040801312769231"><ele>15.999999999999998</ele><time>2026-04-26T10:19:12.999Z</time></trkpt><trkpt lat="40.930674844690316" lon="14.040876704291565"><ele>17.0</ele><time>2026-04-26T10:19:13.999Z</time></trkpt><trkpt lat="40.93075138255527" lon="14.04094808998998"><ele>18.0</ele><time>2026-04-26T10:19:14.999Z</time></trkpt><trkpt lat="40.93081620088535" lon="14.041010518129893"><ele>19.0</ele><time>2026-04-26T10:19:15.999Z</time></trkpt><trkpt lat="40.93087561005535" lon="14.04106097422059"><ele>19.0</ele><time>2026-04-26T10:19:16.999Z</time></trkpt><trkpt lat="40.930959012744914" lon="14.041133417017384"><ele>19.0</ele><time>2026-04-26T10:19:18.999Z</time></trkpt><trkpt lat="40.931020657907936" lon="14.041175975195673"><ele>19.0</ele><time>2026-04-26T10:19:21.999Z</time></trkpt><trkpt lat="40.930946308193434" lon="14.041293755656898"><ele>19.0</ele><time>2026-04-26T10:19:24.999Z</time></trkpt><trkpt lat="40.93088475737916" lon="14.041355433994598"><ele>19.0</ele><time>2026-04-26T10:19:26.999Z</time></trkpt><trkpt lat="40.93078836350635" lon="14.041452818618612"><ele>19.0</ele><time>2026-04-26T10:19:28.999Z</time></trkpt><trkpt lat="40.93073256228569" lon="14.041502958843779"><ele>19.0</ele><time>2026-04-26T10:19:29.999Z</time></trkpt><trkpt lat="40.93066592417503" lon="14.041558868011398"><ele>19.0</ele><time>2026-04-26T10:19:30.999Z</time></trkpt><trkpt lat="40.93059771032765" lon="14.041613336398619"><ele>19.0</ele><time>2026-04-26T10:19:31.999Z</time></trkpt><trkpt lat="40.930526164625114" lon="14.04166770065106"><ele>19.0</ele><time>2026-04-26T10:19:32.999Z</time></trkpt><trkpt lat="40.930459865023124" lon="14.041724796057077"><ele>19.0</ele><time>2026-04-26T10:19:33.999Z</time></trkpt><trkpt lat="40.9303940362168" lon="14.041787356711389"><ele>19.333333333333332</ele><time>2026-04-26T10:19:34.999Z</time></trkpt><trkpt lat="40.9303293218294" lon="14.041844819661275"><ele>19.666666666666664</ele><time>2026-04-26T10:19:35.999Z</time></trkpt><trkpt lat="40.9302594355852" lon="14.04190370515079"><ele>20.0</ele><time>2026-04-26T10:19:36.998Z</time></trkpt><trkpt lat="40.93019229801513" lon="14.041958360835288"><ele>20.333333333333332</ele><time>2026-04-26T10:19:37.998Z</time></trkpt><trkpt lat="40.93013127162182" lon="14.042014995212865"><ele>20.666666666666668</ele><time>2026-04-26T10:19:38.998Z</time></trkpt><trkpt lat="40.93006709071145" lon="14.04207388504353"><ele>21.0</ele><time>2026-04-26T10:19:39.998Z</time></trkpt><trkpt lat="40.93000342031228" lon="14.042125459471965"><ele>21.0</ele><time>2026-04-26T10:19:40.998Z</time></trkpt><trkpt lat="40.92994102843812" lon="14.042175651630679"><ele>21.0</ele><time>2026-04-26T10:19:41.998Z</time></trkpt><trkpt lat="40.92987726781528" lon="14.04223656316137"><ele>21.0</ele><time>2026-04-26T10:19:42.998Z</time></trkpt><trkpt lat="40.92981771530179" lon="14.042292557542451"><ele>21.0</ele><time>2026-04-26T10:19:43.998Z</time></trkpt><trkpt lat="40.92976447775609" lon="14.042343454847217"><ele>21.0</ele><time>2026-04-26T10:19:44.998Z</time></trkpt><trkpt lat="40.929709811530735" lon="14.042390676095605"><ele>21.0</ele><time>2026-04-26T10:19:45.998Z</time></trkpt><trkpt lat="40.929652837309156" lon="14.042434429790076"><ele>21.0</ele><time>2026-04-26T10:19:46.998Z</time></trkpt><trkpt lat="40.92959822113646" lon="14.042479348859981"><ele>21.200000000000003</ele><time>2026-04-26T10:19:47.998Z</time></trkpt><trkpt lat="40.92949625738253" lon="14.04256872610524"><ele>21.400000000000002</ele><time>2026-04-26T10:19:49.998Z</time></trkpt><trkpt lat="40.92939259976546" lon="14.042663251577743"><ele>21.6</ele><time>2026-04-26T10:19:51.998Z</time></trkpt><trkpt lat="40.92928546776547" lon="14.042751266840106"><ele>21.8</ele><time>2026-04-26T10:19:53.998Z</time></trkpt><trkpt lat="40.92923245805831" lon="14.04280135738826"><ele>22.0</ele><time>2026-04-26T10:19:54.998Z</time></trkpt><trkpt lat="40.92918001536244" lon="14.042851412302998"><ele>22.142857142857142</ele><time>2026-04-26T10:19:55.998Z</time></trkpt><trkpt lat="40.929121439000674" lon="14.042888994545052"><ele>22.285714285714285</ele><time>2026-04-26T10:19:56.998Z</time></trkpt><trkpt lat="40.92905815053671" lon="14.04292756957088"><ele>22.42857142857143</ele><time>2026-04-26T10:19:57.998Z</time></trkpt><trkpt lat="40.92899410925093" lon="14.04295997400371"><ele>22.57142857142857</ele><time>2026-04-26T10:19:58.998Z</time></trkpt><trkpt lat="40.92892887863105" lon="14.042988395789292"><ele>22.71428571428571</ele><time>2026-04-26T10:19:59.998Z</time></trkpt><trkpt lat="40.92885992648765" lon="14.043012454701845"><ele>22.857142857142858</ele><time>2026-04-26T10:20:00.998Z</time></trkpt><trkpt lat="40.92879372435262" lon="14.043033630615747"><ele>23.0</ele><time>2026-04-26T10:20:01.998Z</time></trkpt><trkpt lat="40.92872569183862" lon="14.043052861482147"><ele>23.0</ele><time>2026-04-26T10:20:02.998Z</time></trkpt><trkpt lat="40.92865919215178" lon="14.04306394558064"><ele>23.0</ele><time>2026-04-26T10:20:03.998Z</time></trkpt><trkpt lat="40.92859396546828" lon="14.043055581732117"><ele>23.0</ele><time>2026-04-26T10:20:04.998Z</time></trkpt><trkpt lat="40.92852897049019" lon="14.043049859423299"><ele>23.0</ele><time>2026-04-26T10:20:05.998Z</time></trkpt><trkpt lat="40.928464778723324" lon="14.043056006121459"><ele>23.0</ele><time>2026-04-26T10:20:06.998Z</time></trkpt><trkpt lat="40.92840346450148" lon="14.043089813969019"><ele>23.0</ele><time>2026-04-26T10:20:07.998Z</time></trkpt><trkpt lat="40.92834569120807" lon="14.04312741402978"><ele>23.0</ele><time>2026-04-26T10:20:08.998Z</time></trkpt><trkpt lat="40.92828941950305" lon="14.04316524776429"><ele>22.75</ele><time>2026-04-26T10:20:09.998Z</time></trkpt><trkpt lat="40.92818493609573" lon="14.043240729975613"><ele>22.5</ele><time>2026-04-26T10:20:11.999Z</time></trkpt><trkpt lat="40.928086283974416" lon="14.043296249833501"><ele>22.25</ele><time>2026-04-26T10:20:13.999Z</time></trkpt><trkpt lat="40.928007651804286" lon="14.043332404144817"><ele>22.0</ele><time>2026-04-26T10:20:15.999Z</time></trkpt><trkpt lat="40.92795246528657" lon="14.043116188257562"><ele>21.8</ele><time>2026-04-26T10:20:26.999Z</time></trkpt><trkpt lat="40.92791797835649" lon="14.043000594927133"><ele>21.6</ele><time>2026-04-26T10:20:28.999Z</time></trkpt><trkpt lat="40.927897385753575" lon="14.042872994519863"><ele>21.400000000000002</ele><time>2026-04-26T10:20:30.999Z</time></trkpt><trkpt lat="40.92787499530084" lon="14.042753013516219"><ele>21.200000000000003</ele><time>2026-04-26T10:20:32.999Z</time></trkpt><trkpt lat="40.927854195867866" lon="14.0426303205613"><ele>21.0</ele><time>2026-04-26T10:20:34.999Z</time></trkpt><trkpt lat="40.927837091104365" lon="14.042511303489272"><ele>21.0</ele><time>2026-04-26T10:20:36.999Z</time></trkpt><trkpt lat="40.92783198672551" lon="14.042397273533586"><ele>19.0</ele><time>2026-04-26T10:20:38.999Z</time></trkpt><trkpt lat="40.927841720969894" lon="14.042307803491532"><ele>19.0</ele><time>2026-04-26T10:20:40.999Z</time></trkpt><trkpt lat="40.92785377981337" lon="14.042214587186901"><ele>19.0</ele><time>2026-04-26T10:20:44.999Z</time></trkpt></trkseg></trk></gpx>